[[{"header":{"parameterUnit":"m.s-1","parameterCategory":1,"la1":31.0,"la2":29.5877,"lo1":-88.7671,"lo2":-86.6584,"dy":0.0162,"dx":0.0185,"nx":115,"ny":88,"refTime":"2023-04-30T06:00:00:Z","depth":0,"parameterNumber":2,"parameterNumberName":"U-component_of_WINDS"},"data":[0.0,0.0,0.0,0.0,0.0,0.0,0.0,0.0,0.0,0.0,0.0,0.0,0.0,0.0,0.0,0.0,0.0,0.0,0.0,0.0,0.0,0.0,0.0,0.0,0.0,0.0,0.0,0.0,0.0,0.0,0.0,0.0,0.0,0.0,0.0,0.0,0.0,0.0,0.0,0.0,0.0,0.0,0.0,0.0,0.0,0.0,0.0,0.0,0.0,0.0,0.0,0.0,0.0,0.0,0.0,0.0,0.0,0.0,0.0,0.0,0.0,0.0,0.0,0.0,0.0,0.0,0.0,0.0,0.0,0.0,0.0,0.0,0.0,0.0,0.0,0.0,0.0,0.0,0.0,0.0,0.0,0.0,0.0,0.0,0.0,0.0,0.0,0.0,0.0,0.0,0.0,0.0,0.0,0.0,0.0,0.0,0.0,0.0,0.0,0.0,0.0,0.0,0.0,0.0,0.0,0.0,0.0,0.0,0.0,0.0,0.0,0.0,0.0,0.0,0.0,0.0,0.0,0.0,0.0,0.0,0.0,0.0,0.0,0.0,0.0,0.0,0.0,0.0,0.0,0.0,0.0,0.0,0.0,0.0,0.0,0.0,0.0,0.0,0.0,0.0,0.0,0.0,0.0,0.0,0.0,0.0,0.0,0.0,0.0,0.0,0.0,0.0,0.0,0.0,0.0,0.0,0.0,0.0,0.0,0.0,0.0,0.0,0.0,0.0,0.0,0.0,0.0,0.0,0.0,0.0,0.0,0.0,0.0,0.0,0.0,0.0,0.0,0.0,0.0,0.0,0.0,0.0,0.0,0.0,0.0,0.0,0.0,0.0,0.0,0.0,0.0,0.0,0.0,0.0,0.0,0.0,0.0,0.0,0.0,0.0,0.0,0.0,0.0,0.0,0.0,0.0,0.0,0.0,0.0,0.0,0.0,0.0,0.0,0.0,0.0,0.0,0.0,0.0,0.0,0.0,0.0,0.0,0.0,0.0,0.0,0.0,0.0,0.0,0.0,0.0,0.0,0.0,0.0,0.0,0.0,0.0,0.0,0.0,0.0,0.0,0.0,0.0,0.0,0.0,0.0,0.0,0.0,0.0,0.0,0.0,0.0,0.0,0.0,0.0,0.0,0.0,0.0,0.0,0.0,0.0,0.0,0.0,0.0,0.0,0.0,0.0,0.0,0.0,0.0,0.0,0.0,0.0,0.0,0.0,0.0,0.0,0.0,0.0,0.0,0.0,0.0,0.0,0.0,0.0,0.0,0.0,0.0,0.0,0.0,0.0,0.0,0.0,0.0,0.0,0.0,0.0,0.0,0.0,0.0,0.0,0.0,0.0,0.0,0.0,0.0,0.0,0.0,0.0,0.0,0.0,0.0,0.0,0.0,0.0,0.0,0.0,0.0,0.0,0.0,0.0,0.0,0.0,0.0,0.0,0.0,0.0,0.0,0.0,0.0,0.0,0.0,0.0,0.0,0.0,0.0,0.0,0.0,0.0,0.0,0.0,0.0,0.0,0.0,0.0,0.0,0.0,0.0,0.0,0.0,0.0,0.0,0.0,0.0,0.0,0.0,0.0,0.0,0.0,0.0,0.0,0.0,0.0,0.0,0.0,0.0,0.0,0.0,0.0,0.0,0.0,0.0,0.0,0.0,0.0,0.0,0.0,0.0,0.0,0.0,0.0,0.0,0.0,0.0,0.0,0.0,0.0,0.0,0.0,0.0,0.0,0.0,0.0,0.0,0.0,0.0,0.0,0.0,0.0,0.0,0.0,0.0,0.0,0.0,0.0,0.0,0.0,0.0,0.0,0.0,0.0,0.0,0.0,0.0,0.0,0.0,0.0,0.0,0.0,0.0,0.0,0.0,0.0,0.0,0.0,0.0,0.0,0.0,0.0,0.0,0.0,0.0,0.0,0.0,0.0,0.0,0.0,0.0,0.0,0.0,0.0,0.0,0.0,0.0,0.0,0.0,0.0,0.0,0.0,0.0,0.0,0.0,0.0,0.0,0.0,0.0,0.0,0.0,0.0,0.0,0.0,0.0,0.0,0.0,0.0,0.0,0.0,0.0,0.0,0.0,0.0,0.0,0.0,0.0,0.0,0.0,0.0,0.0,0.0,0.0,0.0,0.0,0.0,0.0,0.0,0.0,0.0,0.0,0.0,0.0,0.0,0.0,0.0,0.0,0.0,0.0,0.0,0.0,0.0,0.0,0.0,0.0,0.0,0.0,0.0,0.0,0.0,0.0,0.0,0.0,0.0,0.0,0.0,0.0,0.0,0.0,0.0,0.0,0.0,0.0,0.0,0.0,0.0,0.0,0.0,0.0,0.0,0.0,0.0,0.0,0.0,0.0,0.0,0.0,0.0,0.0,0.0,0.0,0.0,0.0,0.0,0.0,0.0,0.0,0.0,0.0,0.0,0.0,0.0,0.0,0.0,0.0,0.0,0.0,0.0,0.0,0.0,0.0,0.0,0.0,0.0,0.0,0.0,0.0,0.0,0.0,0.0,0.0,0.0,0.0,0.0,0.0,0.0,0.0,0.0,0.0,0.0,0.0,0.0,0.0,0.0,0.0,0.0,0.0,0.0,0.0,0.0,0.0,0.0,0.0,0.0,0.0,0.0,0.0,0.0,0.0,0.0,0.0,0.0,0.0,0.0,0.0,0.0,0.0,0.0,0.0,0.0,0.0,0.0,0.0,0.0,0.0,0.0,0.0,0.0,0.0,0.0,0.0,0.0,0.0,0.0,0.0,0.0,0.0,0.0,0.0,0.0,0.0,0.0,0.0,0.0,0.0,0.0,0.0,0.0,0.0,0.0,0.0,0.0,0.0,0.0,0.0,0.0,0.0,0.0,0.0,0.0,0.0,0.0,0.0,0.0,0.0,0.0,0.0,0.0,0.0,0.0,0.0,0.0,0.0,0.0,0.0,0.0,0.0,0.0,0.0,0.0,0.0,0.0,0.0,0.0,0.0,0.0,0.0,0.0,0.0,0.0,0.0,0.0,0.0,0.0,0.0,0.0,0.0,0.0,0.0,0.0,0.0,0.0,0.0,0.0,0.0,0.0,0.0,0.0,0.0,0.0,0.0,0.0,0.0,0.0,0.0,0.0,0.0,0.0,0.0,0.0,0.0,0.0,0.0,0.0,0.0,0.0,0.0,0.0,0.0,0.0,0.0,0.0,0.0,0.0,0.0,0.0,0.0,0.0,0.0,0.0,0.0,0.0,0.0,0.0,0.0,0.0,0.0,0.0,0.0,0.0,0.0,0.0,0.0,0.0,0.0,0.0,0.0,0.0,0.0,0.0,0.0,0.0,0.0,0.0,0.0,0.0,0.0,0.0,0.0,0.0,0.0,0.0,0.0,0.0,0.0,0.0,0.0,0.0,0.0,0.0,0.0,0.0,0.0,0.0,0.0,0.0,0.0,0.0,0.0,0.0,0.0,0.0,0.0,0.0,0.0,0.0,0.0,0.0,0.0,0.0,0.0,0.0,0.0,0.0,0.0,0.0,0.0,0.0,0.0,0.0,0.0,0.0,0.0,0.0,0.0,0.0,0.0,0.0,0.0,0.0,0.0,0.0,0.0,0.0,0.0,0.0,0.0,0.0,0.0,0.0,0.0,0.0,0.0,0.0,0.0,0.0,0.0,0.0,0.0,0.0,0.0,0.0,0.0,0.0,0.0,0.0,0.0,0.0,0.0,0.0,0.0,0.0,0.0,0.0,0.0,0.0,0.0,0.0,0.0,0.0,0.0,0.0,0.0,0.0,0.0,0.0,0.0,0.0,0.0,0.0,0.0,0.0,0.0,0.0,0.0,0.0,0.0,0.0,0.0,0.0,0.0,0.0,0.0,0.0,0.0,0.0,0.0,0.0,0.0,0.0,0.0,0.0,0.0,0.0,0.0,0.0,0.0,0.0,0.0,0.0,0.0,0.0,0.0,0.0,0.0,0.0,0.0,0.0,0.0,0.0,0.0,0.0,0.0,0.0,0.0,0.0,0.0,0.0,0.0,0.0,0.0,0.0,0.0,0.0,0.0,0.0,0.0,0.0,0.0,0.0,0.0,0.0,0.0,0.0,0.0,0.0,0.0,0.0,0.0,0.0,0.0,0.0,0.0,0.0,0.0,0.0,0.0,0.0,0.0,0.0,0.0,0.0,0.0,0.0,0.0,0.0,0.0,0.0,0.0,0.0,0.0,0.0,0.0,0.0,0.0,0.0,0.0,0.0,0.0,0.0,0.0,0.0,0.0,0.0,0.0,0.0,0.0,0.0,0.0,0.0,0.8791,0.0,0.0,0.0,0.0,0.0,0.0,0.0,0.0,0.0,0.0,0.0,0.0,0.0,0.0,0.0,0.0,0.0,0.0,0.0,0.0,0.0,0.0,0.0,0.0,0.0,0.0,0.0,0.0,0.0,0.0,0.0,0.0,0.0,0.0,0.0,0.0,0.0,0.0,0.0,0.0,0.0,0.0,0.0,0.0,0.0,0.0,0.0,0.0,0.0,0.0,0.0,0.0,0.0,0.0,0.0,0.0,0.0,0.0,0.0,0.0,0.0,0.0,0.0,0.0,0.0,0.0,0.0,0.0,0.0,0.0,0.0,0.0,0.0,0.0,0.0,0.0,0.0,0.0,0.0,0.0,0.0,0.0,0.0,0.0,0.0,0.0,0.0,0.0,0.0,0.0,0.0,0.0,0.0,0.0,0.0,0.0,0.0,0.0,0.0,0.0,0.0,0.0,0.0,0.0,0.0,0.0,0.0,0.0,0.0,0.0,0.8791,0.8791,0.8791,0.8791,0.8791,0.0,0.0,0.0,0.0,0.0,0.0,0.0,0.0,0.0,0.0,0.0,0.0,0.0,0.0,0.0,0.0,0.0,0.0,0.0,0.0,0.0,0.0,0.0,0.0,0.0,0.0,0.0,0.0,0.0,0.0,0.0,0.0,0.0,0.0,0.0,0.0,0.0,0.0,0.0,0.0,0.0,0.0,0.0,0.0,0.0,0.0,0.0,0.0,0.0,0.0,0.0,0.0,0.0,0.0,0.0,0.0,0.0,0.0,0.0,0.0,0.0,0.0,0.0,0.0,0.0,0.0,0.0,0.0,0.0,0.0,0.0,0.0,0.0,0.0,0.0,0.0,0.0,0.0,0.0,0.0,0.0,0.0,0.0,0.0,0.0,0.0,0.0,0.0,0.0,0.0,0.0,0.0,0.0,0.0,0.0,0.0,0.0,0.0,0.0,0.0,0.0,0.0,0.0,0.0,0.0,0.0,0.0,0.0,0.0,0.0,0.0,0.0,0.8791,0.8791,0.8791,0.0,0.0,0.0,0.0,0.0,0.0,0.0,0.0,0.0,0.0,0.0,0.0,0.0,0.0,0.0,0.0,0.0,0.0,0.0,0.0,0.0,0.0,0.0,0.0,0.0,0.0,0.0,0.0,0.0,0.0,0.0,0.0,0.0,0.0,0.0,0.0,0.0,0.0,0.0,0.0,0.0,0.0,0.0,0.0,0.0,0.0,0.0,0.0,0.0,0.0,0.0,0.0,0.0,0.0,0.0,0.0,0.0,0.0,0.0,0.0,0.0,0.0,0.0,0.0,0.0,0.0,0.0,0.0,0.0,0.0,0.0,0.0,0.0,0.0,0.0,0.0,0.0,0.0,0.0,0.0,0.0,0.0,0.0,0.0,0.0,0.0,0.0,0.0,0.0,0.0,0.0,0.0,0.0,0.0,0.0,0.0,0.0,0.0,0.0,0.0,0.0,0.0,0.0,0.0,0.0,0.0,0.0,0.0,0.0,0.0,0.8791,0.8791,0.8791,0.0,0.8791,0.0,0.0,0.0,0.0,0.0,0.0,0.0,0.0,0.0,0.0,0.0,0.0,0.0,0.0,0.0,0.0,0.0,0.0,0.0,0.0,0.0,0.0,0.0,0.0,0.0,0.0,0.0,0.0,0.0,0.0,0.0,0.0,0.0,0.0,0.0,0.0,0.0,0.0,0.0,0.0,0.0,0.0,0.0,0.0,0.0,0.0,0.0,0.0,0.0,0.0,0.0,0.0,0.0,0.0,0.0,0.0,0.0,0.0,0.0,0.0,0.0,0.0,0.0,0.0,0.0,0.0,0.0,0.0,0.0,0.0,0.0,0.0,0.0,0.0,0.0,0.0,0.0,0.0,0.0,0.0,0.0,0.0,0.0,0.0,0.0,0.0,0.0,0.0,0.0,0.0,0.0,0.0,0.0,0.0,0.0,0.0,0.0,0.0,0.0,0.0,0.0,0.0,0.0,0.0,0.0,0.0,0.0,0.0,0.0,0.0,0.8791,0.8791,0.8791,0.8791,0.0,0.0,0.0,0.0,0.0,0.0,0.0,0.0,0.0,0.0,0.0,0.0,0.0,0.0,0.0,0.0,0.0,0.0,0.0,0.0,0.0,0.0,0.0,0.0,0.0,0.0,0.0,0.0,0.0,0.0,0.0,0.0,0.0,0.0,0.0,0.0,0.0,0.0,0.0,0.0,0.0,0.0,0.0,0.0,0.0,0.0,0.0,0.0,0.0,0.0,0.0,0.0,0.0,0.0,0.0,0.0,0.0,0.0,0.0,0.0,0.0,0.0,0.0,0.0,0.0,0.0,0.0,0.0,0.0,0.0,0.0,0.0,0.0,0.0,0.0,0.0,0.0,0.0,0.0,0.0,0.0,0.0,0.0,0.0,0.0,0.0,0.0,0.0,0.0,0.0,0.0,0.0,0.0,0.0,0.0,0.0,0.0,0.0,0.0,0.0,0.0,0.0,0.0,0.0,0.0,0.0,0.0,0.0,0.0,0.0,0.8791,0.8791,0.8791,0.8791,0.8791,0.8791,0.0,0.0,0.0,0.0,0.0,0.0,0.0,0.0,0.0,0.0,0.0,0.0,0.0,0.0,0.0,0.0,0.0,0.0,0.0,0.0,0.0,0.0,0.0,0.0,0.0,0.0,0.0,0.0,0.0,0.0,0.0,0.0,0.0,0.0,0.0,0.0,0.0,0.0,0.0,0.0,0.0,0.0,0.0,0.0,0.0,0.0,0.0,0.0,0.0,0.0,0.0,0.0,0.0,0.0,0.0,0.0,0.0,0.0,0.0,0.0,0.0,0.0,0.0,0.0,0.0,0.0,0.0,0.0,0.0,0.0,0.0,0.0,0.0,0.0,0.0,0.0,0.0,0.0,0.0,0.0,0.0,0.0,0.0,0.0,0.0,0.0,0.0,0.0,0.0,0.0,0.0,0.0,0.0,0.0,0.0,0.0,0.0,0.0,0.0,0.0,0.0,0.0,0.0,0.0,0.0,0.0,0.0,0.0,0.8765,0.8791,0.8791,0.8765,0.8791,0.8791,0.0,0.0,0.0,0.0,0.0,0.0,0.0,0.0,0.0,0.0,0.0,0.0,0.0,0.0,0.0,0.0,0.0,0.0,0.0,0.0,0.0,0.0,0.0,0.0,0.0,0.0,0.0,0.0,0.0,0.0,0.0,0.0,0.0,0.0,0.0,0.0,0.0,0.0,0.0,0.0,0.0,0.0,0.0,0.0,0.0,0.0,0.0,0.0,0.0,0.0,0.0,0.0,0.0,0.0,0.0,0.0,0.0,0.0,0.0,0.0,0.0,0.0,0.0,0.0,0.0,0.0,0.0,0.0,0.0,0.0,0.0,0.0,0.0,0.0,0.0,0.0,0.0,0.0,0.0,0.0,0.0,0.0,0.0,0.0,0.0,0.0,0.0,0.0,0.0,0.0,0.0,0.0,0.0,0.0,0.0,0.0,0.0,0.0,0.0,0.0,0.0,0.0,0.0,0.0,0.0,0.0,0.0,0.0,0.0,0.8778,0.8791,0.856,0.8129,0.854,0.8586,0.0,0.0,0.0,0.0,0.0,0.0,0.0,0.0,0.0,0.0,0.0,0.0,0.0,0.0,0.0,0.0,0.0,0.0,0.0,0.0,0.0,0.0,0.0,0.0,0.0,0.0,0.0,0.0,0.0,0.0,0.0,0.0,0.0,0.0,0.0,0.0,0.0,0.0,0.0,0.0,0.0,0.0,0.0,0.0,0.0,0.0,0.0,0.0,0.0,0.0,0.0,0.0,0.0,0.0,0.0,0.0,0.0,0.0,0.0,0.0,0.0,0.0,0.0,0.0,0.0,0.0,0.0,0.0,0.0,0.0,0.0,0.0,0.0,0.0,0.0,0.0,0.0,0.0,0.0,0.0,0.0,0.0,0.0,0.0,0.0,0.0,0.0,0.0,0.0,0.0,0.0,0.0,0.0,0.0,0.0,0.0,0.0,0.0,0.0,0.0,0.0,0.0,0.0,0.0,0.0,0.0,0.0,0.0,0.0,0.8056,0.0,0.7849,0.7383,0.7817,0.7843,0.0,0.0,0.0,0.0,0.0,0.0,0.0,0.0,0.0,0.0,0.0,0.0,0.0,0.0,0.0,0.0,0.0,0.0,0.0,0.0,0.0,0.0,0.0,0.0,0.0,0.0,0.0,0.0,0.0,0.0,0.0,0.0,0.0,0.0,0.0,0.0,0.0,0.0,0.0,0.0,0.0,0.0,0.0,0.0,0.0,0.0,0.0,0.0,0.0,0.0,0.0,0.0,0.0,0.0,0.0,0.0,0.0,0.0,0.0,0.0,0.0,0.0,0.0,0.0,0.0,0.0,0.0,0.0,0.0,0.0,0.0,0.0,0.0,0.0,0.0,0.0,0.0,0.0,0.0,0.0,0.0,0.0,0.0,0.0,0.0,0.0,0.0,0.0,0.0,0.0,0.0,0.0,0.0,0.0,0.0,0.0,0.0,0.0,0.0,0.0,0.0,0.0,0.0,0.0,0.0,0.0,0.0,0.0,0.5896,0.661,0.6693,0.6735,0.6625,0.668,0.6625,0.0,0.0,0.0,0.0,0.0,0.0,0.0,0.0,0.0,0.0,0.0,0.0,0.0,0.0,0.0,0.0,0.0,0.0,0.0,0.0,0.0,0.0,0.0,0.0,0.0,0.0,0.0,0.0,0.0,0.0,0.0,0.0,0.0,0.0,0.0,0.0,0.0,0.0,0.0,0.0,0.0,0.0,0.0,0.0,0.0,0.0,0.0,0.0,0.0,0.0,0.0,0.0,0.0,0.0,0.0,0.0,0.0,0.0,0.0,0.0,0.0,0.0,0.0,0.0,0.0,0.0,0.0,0.0,0.0,0.0,0.0,0.0,0.0,0.0,0.0,0.0,0.0,0.0,0.0,0.0,0.0,0.0,0.0,0.0,0.0,0.0,0.0,0.0,0.0,0.0,0.0,0.0,0.0,0.0,0.0,0.0,0.0,0.0,0.0,0.0,0.0,0.0,0.0,0.0,0.0,0.0,0.0,0.0,0.0,0.7306,0.7667,0.7501,0.6847,0.6809,0.6571,0.0,0.0,0.0,0.0,0.0,0.0,0.0,0.0,0.0,0.0,0.0,0.0,0.0,0.0,0.0,0.0,0.0,0.0,0.0,0.0,0.0,0.0,0.0,0.0,0.0,0.0,0.0,0.0,0.0,0.0,0.0,0.0,0.0,0.0,0.0,0.0,0.0,0.0,0.0,0.0,0.0,0.0,0.0,0.0,0.0,0.0,0.0,0.0,0.0,0.0,0.0,0.0,0.0,0.0,0.0,0.0,0.0,0.0,0.0,0.0,0.0,0.0,0.0,0.0,0.0,0.0,0.0,0.0,0.0,0.0,0.0,0.0,0.0,0.0,0.0,0.0,0.0,0.0,0.0,0.0,0.0,0.0,0.0,0.0,0.0,0.0,0.0,0.0,0.0,0.0,0.0,0.0,0.0,0.0,0.0,0.0,0.0,0.0,0.0,0.0,0.0,0.0,0.0,0.0,0.0,0.0,0.0,0.0,0.0,0.7505,0.7569,0.7268,0.6668,0.6634,0.6281,0.5511,0.0,0.0,0.0,0.0,0.0,0.0,0.0,0.0,0.0,0.0,0.0,0.0,0.0,0.0,0.0,0.0,0.0,0.0,0.0,0.0,0.0,0.0,0.0,0.0,0.0,0.0,0.0,0.0,0.0,0.0,0.0,0.0,0.0,0.0,0.0,0.0,0.0,0.0,0.0,0.0,0.0,0.0,0.0,0.0,0.0,0.0,0.0,0.0,0.0,0.0,0.0,0.0,0.0,0.0,0.0,0.0,0.0,0.0,0.0,0.0,0.0,0.0,0.0,0.0,0.0,0.0,0.0,0.0,0.0,0.0,0.0,0.0,0.0,0.0,0.0,0.0,0.0,0.0,0.0,0.0,0.0,0.0,0.0,0.0,0.0,0.0,0.0,0.0,0.0,0.0,0.0,0.0,0.0,0.0,0.0,0.0,0.0,0.0,0.0,0.0,0.0,0.0,0.0,0.0,0.0,0.0,0.0,0.0,0.7419,0.6731,0.6371,0.6312,0.6252,0.5809,0.0,0.0,0.0,0.0,0.0,0.0,0.0,0.0,0.0,0.0,0.0,0.0,0.0,0.0,0.0,0.0,0.0,0.0,0.0,0.0,0.0,0.0,0.0,0.0,0.0,0.0,0.0,0.0,0.0,0.0,0.0,0.0,0.0,0.0,0.0,0.0,0.0,0.0,0.0,0.0,0.0,0.0,0.0,0.0,0.0,0.0,0.0,0.0,0.0,0.0,0.0,0.0,0.0,0.0,0.0,0.0,0.0,0.0,0.0,0.0,0.0,0.0,0.0,0.0,0.0,0.0,0.0,0.0,0.0,0.0,0.0,0.0,0.0,0.0,0.0,0.0,0.0,0.0,0.0,0.0,0.0,0.0,0.0,0.0,0.0,0.0,0.0,0.0,0.0,0.0,0.0,0.0,0.0,0.0,0.0,0.0,0.0,0.0,0.0,0.0,0.0,0.0,0.0,0.0,0.0,0.0,0.0,0.0,0.0,0.8732,0.8585,0.8059,0.7193,0.6633,0.5942,0.0,0.0,0.0,0.0,0.0,0.0,0.0,0.0,0.0,0.0,0.0,0.0,0.0,0.0,0.0,0.0,0.0,0.0,0.0,0.0,0.0,0.0,0.0,0.0,0.0,0.0,0.0,0.0,0.0,0.0,0.0,0.0,0.0,0.0,0.0,0.0,0.0,0.0,0.0,0.0,0.0,0.0,0.0,0.0,0.0,0.0,0.0,0.0,0.0,0.0,0.0,0.0,0.0,0.0,0.0,0.0,0.0,0.0,0.0,0.0,0.0,0.0,0.0,0.0,0.0,0.0,0.0,0.0,0.0,0.0,0.0,0.0,0.0,0.0,0.0,0.0,0.0,0.0,0.0,0.0,0.0,0.0,0.0,0.0,0.0,0.0,0.0,0.0,0.0,0.0,0.0,0.0,0.0,0.0,0.0,0.0,0.0,0.0,0.0,0.0,0.0,0.0,0.0,0.0,0.0,0.0,0.0,0.0,0.8619,0.8748,0.8742,0.8596,0.8269,0.7485,0.6486,0.0,0.0,0.0,0.0,0.0,0.0,0.0,0.0,0.0,0.0,0.0,0.0,0.0,0.0,0.0,0.0,0.0,0.0,0.0,0.0,0.0,0.0,0.0,0.0,0.0,0.0,0.0,0.0,0.0,0.0,0.0,0.0,0.0,0.0,0.0,0.0,0.0,0.0,0.0,0.0,0.0,0.0,0.0,0.0,0.0,0.0,0.0,0.0,0.0,0.0,0.0,0.0,0.0,0.0,0.0,0.0,0.0,0.0,0.0,0.0,0.0,0.0,0.0,0.0,0.0,0.0,0.0,0.0,0.0,0.0,0.0,0.0,0.0,0.0,0.0,0.0,0.0,0.0,0.0,0.0,0.0,0.0,0.0,0.0,0.0,0.0,0.0,0.0,0.0,0.0,0.0,0.0,0.0,0.0,0.0,0.0,0.0,0.0,0.0,0.0,0.0,0.0,0.0,0.0,0.0,0.0,0.0,0.0,0.8775,0.8027,0.8091,0.8463,0.9113,0.8425,0.723,0.0,0.0,0.0,0.0,0.0,0.0,0.0,0.0,0.0,0.0,0.0,0.0,0.0,0.0,0.0,0.0,0.0,0.0,0.0,0.0,0.0,0.0,0.0,0.0,0.0,0.0,0.0,0.0,0.0,0.0,0.0,0.0,0.0,0.0,0.0,0.0,0.0,0.0,0.0,0.0,0.0,0.0,0.0,0.0,0.0,0.0,0.0,0.0,0.0,0.0,0.0,0.0,0.0,0.0,0.0,0.0,0.0,0.0,0.0,0.0,0.0,0.0,0.0,0.0,0.0,0.0,0.0,0.0,0.0,0.0,0.0,0.0,0.0,0.0,0.0,0.0,0.0,0.0,0.0,0.0,0.0,0.0,0.0,0.0,0.0,0.0,0.0,0.0,0.0,0.0,0.0,0.0,0.0,0.0,0.0,0.0,0.0,0.0,0.0,0.0,0.0,0.0,0.0,0.0,0.0,0.0,0.0,0.0,0.8172,0.8027,0.8667,0.8796,0.8285,0.8091,0.7486,0.0,0.0,0.0,0.0,0.0,0.0,0.0,0.0,0.0,0.0,0.0,0.0,0.0,0.0,0.0,0.0,0.0,0.0,0.0,0.0,0.0,0.0,0.0,0.0,0.0,0.0,0.0,0.0,0.0,0.0,0.0,0.0,0.0,0.0,0.0,0.0,0.0,0.0,0.0,0.0,0.0,0.0,0.0,0.0,0.0,0.0,0.0,0.0,1.0443,0.0,0.0,0.0,0.0,0.0,0.0,0.0,0.0,0.0,0.0,0.0,0.0,0.0,0.0,0.0,0.0,0.0,0.0,0.0,0.0,0.0,0.0,0.0,0.0,0.0,0.0,0.0,0.0,0.0,0.0,0.0,0.0,0.0,0.0,0.0,0.0,0.0,0.0,0.0,0.0,0.0,0.0,0.0,0.0,0.0,0.0,0.0,0.0,0.0,0.0,0.0,0.0,0.0,0.0,0.0,0.0,0.0,0.0,0.0,0.78,0.7437,0.8242,0.8468,0.8027,0.76,0.7372,0.0,0.0,0.0,0.0,0.0,0.0,0.0,0.0,0.0,0.0,0.0,0.0,0.0,0.0,0.0,0.0,0.0,0.0,0.0,0.0,0.0,0.0,0.0,0.0,0.0,0.0,0.0,0.0,0.0,0.0,0.0,0.0,0.0,0.0,0.0,0.0,0.0,0.0,0.0,0.0,0.0,0.0,0.0,0.0,0.0,0.0,0.0,0.0,0.0,0.0,0.0,0.0,0.0,0.0,0.0,0.0,0.0,0.0,0.0,0.0,0.0,0.0,0.0,0.0,0.0,0.0,0.0,0.0,0.0,0.0,0.0,0.0,0.0,0.0,0.0,0.0,0.0,0.0,0.0,0.0,0.0,0.0,0.0,0.0,0.0,0.0,0.0,0.0,0.0,0.0,0.0,0.0,0.0,0.0,0.0,0.0,0.0,0.0,0.0,0.0,0.0,0.0,0.0,0.0,0.0,0.0,0.0,0.7929,0.7567,0.6764,0.7551,0.7929,0.7795,0.7079,0.7177,0.8124,0.0,0.0,0.0,0.0,0.0,0.0,0.0,0.0,0.0,0.0,0.0,0.0,0.0,0.0,0.0,0.0,0.0,0.0,0.0,0.0,0.0,0.0,0.0,0.0,0.0,0.0,0.0,0.0,0.0,0.0,0.0,0.0,0.0,0.0,0.0,0.0,0.0,0.0,1.0412,1.0301,0.0,0.0,0.0,0.0,0.0,0.0,0.0,0.0,1.0586,0.0,0.0,0.0,0.0,0.0,0.0,0.0,0.0,0.0,0.0,0.0,0.0,0.0,0.0,0.0,0.0,0.0,0.0,0.0,0.0,0.0,0.0,0.0,0.0,0.0,0.0,0.0,0.0,0.0,0.0,0.0,0.0,0.0,0.0,0.0,0.0,0.0,0.0,0.0,0.0,0.0,0.0,0.0,0.0,0.0,0.0,0.0,0.0,0.0,0.0,0.0,0.0,0.0,0.0,0.0,0.0,0.6927,0.7637,0.7572,0.6736,0.7567,0.7653,0.6932,0.6768,0.7437,0.8882,0.0,0.0,0.0,0.0,0.0,0.0,0.0,0.0,0.0,0.0,0.0,0.0,0.0,0.0,0.0,0.0,0.0,0.0,0.0,0.0,0.0,0.0,0.0,0.0,0.0,0.0,0.0,0.0,0.0,0.0,0.0,0.0,0.0,0.0,0.0,0.0,0.0,0.0,0.0,0.8893,0.8646,0.0,0.0,0.0,0.0,0.0,0.0,0.0,0.0,1.087,0.0,0.0,0.0,0.0,0.0,0.0,0.0,0.0,0.0,0.0,0.0,0.0,0.0,0.0,0.0,0.0,0.0,0.0,0.0,0.0,0.0,0.0,0.0,0.0,0.0,0.0,0.0,0.0,0.0,0.0,0.0,0.0,0.0,0.0,0.0,0.0,0.0,0.0,0.0,0.0,0.0,0.0,0.0,0.0,0.0,0.0,0.0,0.0,0.0,0.0,0.0,0.0,0.0,0.0,0.0,0.7377,0.734,0.734,0.7372,0.7783,0.7567,0.6736,0.6719,0.7111,0.0,0.0,0.0,0.0,0.0,0.0,0.0,0.0,0.0,0.0,0.0,0.0,0.0,0.0,0.0,0.0,0.0,0.0,0.0,0.0,0.0,0.0,0.0,0.0,0.0,0.0,0.0,0.0,0.0,0.0,0.0,0.0,0.0,0.0,0.0,0.0,0.0,0.0,0.0,0.0,0.8253,0.7994,0.7962,0.0,0.0,0.0,0.0,0.0,0.0,1.0586,1.0728,0.0,0.0,0.0,0.0,0.0,0.0,0.0,0.0,0.0,0.0,0.0,0.0,0.0,0.0,0.0,0.0,0.0,0.0,0.0,0.0,0.0,0.0,0.0,0.0,0.0,0.0,0.0,0.0,0.0,0.0,0.0,0.0,0.0,0.0,0.0,0.0,0.0,0.0,0.0,0.0,0.0,0.0,0.0,0.0,0.0,0.0,0.0,0.0,0.0,0.0,0.0,0.0,0.0,0.0,0.0,0.8205,0.7746,0.7725,0.8237,0.8253,0.7762,0.6752,0.6719,0.6719,0.0,0.0,0.0,0.0,0.0,0.0,0.0,0.0,0.0,0.0,0.0,0.0,0.0,0.0,0.0,0.0,0.0,0.0,0.0,0.0,0.0,0.0,0.0,0.0,0.0,0.0,0.0,0.0,0.0,0.0,0.0,0.0,0.0,0.0,0.0,0.0,0.0,0.0,0.0,0.0,0.0,0.7295,0.6801,0.8043,0.0,0.0,0.0,0.0,1.0586,1.0586,0.0,0.0,0.0,0.0,0.0,0.0,0.0,0.0,0.0,0.0,0.0,0.0,0.0,0.0,0.0,0.0,0.0,0.0,0.0,0.0,0.0,0.0,0.0,0.0,0.0,0.0,0.0,0.0,0.0,0.0,0.0,0.0,0.0,0.0,0.0,0.0,0.0,0.0,0.0,0.0,0.0,0.0,0.0,0.0,0.0,0.0,0.0,0.0,0.0,0.0,0.0,0.0,0.0,0.0,0.0,0.0,0.9139,0.9802,0.9833,0.9188,0.9145,0.8371,0.6768,0.6719,0.6719,0.0,0.0,0.0,0.0,0.0,0.0,0.0,0.0,0.0,0.0,0.0,0.0,0.0,0.0,0.0,0.0,0.0,0.0,0.0,0.0,0.0,0.0,0.0,0.0,0.0,0.0,0.0,0.0,0.0,0.0,0.0,0.0,0.0,0.0,0.0,0.0,0.0,0.0,0.0,0.0,0.0,0.5947,0.6609,0.754,0.8415,0.0,0.0,1.0586,1.0586,1.0586,0.0,0.0,0.0,0.0,0.0,0.0,0.0,0.0,0.0,0.0,0.0,0.0,0.0,0.0,0.0,0.0,0.0,0.0,0.0,0.0,0.0,0.0,0.0,0.0,0.0,0.0,0.0,0.0,0.0,0.0,0.0,0.0,0.0,0.0,0.0,0.0,0.0,0.0,0.0,0.0,0.0,0.0,0.0,0.0,0.0,0.0,0.0,0.0,0.0,0.0,0.0,0.0,0.0,0.0,0.0,0.7455,0.8837,0.8697,0.8634,0.8678,0.8672,0.8039,0.6736,0.6719,0.6461,0.0,0.0,0.0,0.0,0.0,0.0,0.0,0.0,0.0,0.0,0.0,0.0,0.0,0.0,0.0,0.0,0.0,0.0,0.0,0.0,0.0,0.0,0.0,0.0,0.0,0.0,0.0,0.0,0.0,0.0,0.0,0.0,0.0,0.0,0.0,0.0,0.0,0.0,0.0,0.0,0.0,0.0,0.6637,0.7453,0.0,0.0,0.0,1.0586,1.0586,0.0,0.0,0.0,0.0,0.0,0.0,0.0,0.0,0.0,0.0,0.0,0.0,0.0,0.0,0.0,0.0,0.0,0.0,0.0,0.0,0.0,0.0,0.0,0.0,0.0,0.0,0.0,0.0,0.0,0.0,0.0,0.0,0.0,0.0,0.0,0.0,0.0,0.0,0.0,0.0,0.0,0.0,0.0,0.0,0.0,0.0,0.0,0.0,0.0,0.0,0.0,0.0,0.0,0.0,0.0,0.0,0.0,0.8496,0.7796,0.7688,0.8228,0.824,0.7788,0.6852,0.6814,0.0,0.0,0.0,0.0,0.0,0.0,0.0,0.0,0.0,0.0,0.0,0.0,0.0,0.0,0.0,0.0,0.0,0.0,0.0,0.0,0.0,0.0,0.0,0.0,0.0,0.0,0.0,0.7665,0.0,0.0,0.0,0.0,0.0,0.0,0.0,0.0,0.0,0.0,0.0,0.0,0.0,0.0,0.6621,0.64,0.7116,0.7665,0.0,0.0,1.0285,1.0269,1.046,1.0586,0.0,0.0,0.0,0.0,0.0,0.0,0.0,0.0,0.0,0.0,0.0,0.0,0.0,0.0,0.0,0.0,0.0,0.0,0.0,0.0,0.0,0.0,0.0,0.0,0.0,0.0,0.0,0.0,0.0,0.0,0.0,0.0,0.0,0.0,0.0,0.0,0.0,0.0,0.0,0.0,0.0,0.0,0.0,0.0,0.0,0.0,0.0,0.0,0.0,0.0,0.0,0.0,0.0,0.0,0.84,0.8403,0.8351,0.8298,0.8383,0.8379,0.7975,0.7112,0.7076,0.6598,0.0,0.0,0.0,0.0,0.0,0.0,0.0,0.0,0.0,0.0,0.0,0.0,0.0,0.0,0.0,0.0,0.0,0.0,0.0,0.0,0.0,0.0,0.0,0.0,0.0,0.0,0.0,0.0,0.0,0.0,0.0,0.0,0.0,0.0,0.0,0.0,0.0,0.0,0.0,0.0,0.0,0.6416,0.5604,0.6235,0.6801,0.0,0.8269,0.9402,0.9402,1.0079,1.0586,1.0586,0.0,0.0,0.0,0.0,0.0,0.0,0.0,0.0,0.0,0.0,0.0,0.0,0.0,0.0,0.0,0.0,0.0,0.0,0.0,0.0,0.0,0.0,0.0,0.0,0.0,0.0,0.0,0.0,0.0,0.0,0.0,0.0,0.0,0.0,0.0,0.0,0.0,0.0,0.0,0.0,0.0,0.0,0.0,0.0,0.0,0.0,0.0,0.0,0.0,0.0,0.0,0.0,0.0,0.747,0.8023,0.7414,0.7045,0.6938,0.6916,0.6724,0.6301,0.6297,0.6111,0.0,0.0,0.0,0.0,0.0,0.0,0.0,0.0,0.0,0.0,0.0,0.0,0.0,0.0,0.0,0.0,0.0,0.0,0.0,0.0,0.0,0.0,0.0,0.0,0.0,0.0,0.0,0.0,0.6379,0.703,0.7897,0.0,0.0,0.0,0.0,0.0,0.0,0.0,0.0,0.0,0.0,0.6593,0.6252,0.6948,0.0,0.0,0.8983,1.0104,1.0095,1.0387,1.0586,1.0586,1.0586,0.0,0.0,0.0,0.0,0.0,0.0,0.0,0.0,0.0,0.0,0.0,0.0,0.0,0.0,0.0,0.0,0.0,0.0,0.0,0.0,0.0,0.0,0.0,0.0,0.0,0.0,0.0,0.0,0.0,0.0,0.0,0.0,0.0,0.0,0.0,0.0,0.0,0.0,0.0,0.0,0.0,0.0,0.0,0.0,0.0,0.0,0.0,0.0,0.0,0.0,0.0,0.0,0.708,0.7783,0.6814,0.6229,0.6098,0.6083,0.6047,0.5945,0.5939,0.5915,0.0,0.0,0.0,0.0,0.0,0.0,0.0,0.0,0.0,0.0,0.0,0.0,0.0,0.0,0.0,0.0,0.0,0.0,0.0,0.0,0.0,0.0,0.0,0.0,0.0,0.0,0.0,0.0,0.6957,0.7905,0.8507,0.0,0.0,0.0,0.0,0.0,0.0,0.0,0.0,0.0,0.0,0.7129,0.7188,0.7724,0.8149,0.8232,0.9426,1.0345,1.0329,1.0487,1.0586,1.0586,0.0,0.0,0.0,0.0,0.0,0.0,0.0,0.0,0.0,0.0,0.0,0.0,0.0,0.0,0.0,0.0,0.0,0.0,0.0,0.0,0.0,0.0,0.0,0.0,0.0,0.0,0.0,0.3124,0.0,0.0,0.4647,0.0,0.0,0.0,0.0,0.0,0.0,0.0,0.0,0.0,0.0,0.0,0.0,0.0,0.0,0.0,0.0,0.0,0.0,0.0,0.0,0.0,0.0,0.7783,0.7783,0.6849,0.6296,0.6289,0.6273,0.6286,0.6279,0.6286,0.6199,0.6008,0.0,0.0,0.0,0.0,0.0,0.0,0.0,0.0,0.0,0.0,0.0,0.0,0.0,0.0,0.0,0.0,0.0,0.0,0.0,0.0,0.0,0.0,0.0,0.0,0.0,0.0,0.7075,0.8709,0.9777,0.0,0.0,0.0,0.0,0.0,0.0,0.0,0.0,0.0,0.0,0.7994,0.8075,0.83,0.8381,0.8521,0.8772,0.9332,0.976,0.9777,1.0247,1.0586,0.0,0.0,0.0,0.0,0.0,0.0,0.0,0.0,0.0,0.0,0.0,0.0,0.0,0.0,0.0,0.0,0.0,0.0,0.0,0.0,0.0,0.0,0.0,0.0,0.0,0.0,0.0,0.2874,0.412,0.0,0.0,0.0,0.0,0.0,0.0,0.0,0.0,0.0,0.0,0.0,0.628,0.628,0.0,0.0,0.0,0.0,0.0,0.0,0.0,0.0,0.0,0.0,0.0,0.0,0.8466,0.7821,0.7461,0.6965,0.6315,0.628,0.628,0.628,0.628,0.6577,0.7182,0.0,0.0,0.0,0.0,0.0,0.0,0.0,0.0,0.0,0.0,0.0,0.0,0.0,0.0,0.0,0.0,0.0,0.0,0.0,0.0,0.0,0.0,0.0,0.0,0.0,0.6793,0.0,0.0,0.0,0.0,0.0,0.0,0.0,0.0,0.0,0.0,0.0,0.9722,0.9434,0.8896,0.8559,0.8648,0.9169,0.9564,0.0,0.0,0.0,0.0,0.0,0.0,0.0,0.0,0.0,0.0,0.0,0.0,0.0,0.0,1.1206,1.1367,1.2035,1.266,1.2829,0.0,0.0,0.0,0.0,0.0,0.0,0.0,0.0,0.0,0.0,0.0,0.0,0.0,0.0,0.3088,0.0,0.4708,0.0,0.0,0.0,0.0,0.0,0.0,0.0,0.0,0.628,0.628,0.628,0.628,0.628,0.0,0.628,0.628,0.0,0.0,0.0,0.0,0.0,0.0,0.0,0.0,0.8084,0.7802,0.7442,0.6968,0.6338,0.628,0.628,0.628,0.628,0.6606,0.7249,0.6644,0.6606,0.0,0.0,0.0,0.0,0.0,0.0,0.0,0.0,0.0,0.0,0.0,0.0,0.0,0.0,0.0,0.0,0.0,0.0,0.0,0.0,0.0,0.0,0.0,0.6995,0.0,0.0,0.0,0.0,0.0,0.0,0.0,0.0,0.0,1.0396,0.9945,0.9574,0.9574,0.9399,0.9398,0.9839,0.0,0.0,0.0,0.0,0.0,0.0,0.0,1.1412,1.1412,1.1412,1.1412,1.1412,1.1412,1.1412,1.1412,0.0,0.0,1.1617,1.2084,1.2503,1.2685,1.2707,1.2776,1.2981,1.3044,1.3027,0.0,0.0,0.0,0.0,0.0,0.0,0.0,0.0,0.3007,0.3632,0.0,0.4708,0.0,0.0,0.0,0.0,0.0,0.632,0.0,0.0,0.632,0.6313,0.632,0.632,0.6297,0.6313,0.6301,0.632,0.632,0.6317,0.0,0.0,0.0,0.0,0.0,0.0,0.6853,0.7744,0.6891,0.6358,0.63,0.628,0.628,0.628,0.628,0.63,0.63,0.63,0.63,0.6296,0.63,0.0,0.0,0.0,0.0,0.0,0.0,0.0,0.0,0.0,0.0,0.0,0.0,0.0,0.0,0.0,0.0,0.0,0.0,0.0,0.0,0.723,0.0,0.0,0.0,0.0,0.0,0.0,0.0,0.0,0.0,0.0,0.9002,0.8805,0.8714,0.876,0.0,0.0,0.0,0.0,1.2029,1.2253,1.2096,1.1933,1.1919,1.165,1.1446,1.1446,0.0,0.0,1.1446,1.1429,1.1459,1.1446,1.1466,1.1439,1.145,1.1478,1.1478,1.1488,1.1515,1.1443,1.1456,1.1665,1.1617,0.1999,0.0,0.0,0.0,0.0,0.0471,0.1058,0.2016,0.2035,0.3028,0.4708,0.4708,0.0,0.0,0.0,0.0,0.0,0.0,0.6593,0.6593,0.6576,0.6573,0.6593,0.6576,0.6576,0.6573,0.6597,0.6576,0.6576,0.6573,0.6488,0.6322,0.0,0.0,0.0,0.0,0.8237,0.7802,0.7518,0.7022,0.6319,0.628,0.628,0.628,0.628,0.628,0.628,0.628,0.628,0.628,0.628,0.0,0.0,0.0,0.0,0.0,0.0,0.0,0.0,0.0,0.0,0.0,0.0,0.0,0.0,0.0,0.0,0.0,0.0,0.0,0.6338,0.784,0.8575,0.0,0.0,0.0,0.0,0.0,0.0,0.0,0.0,0.0,1.0532,1.0911,1.124,0.0,0.0,1.215,1.2504,1.2704,1.2779,1.2677,1.2608,0.0,1.2211,1.2104,1.2033,1.2033,1.2033,1.2051,1.2033,1.2033,1.2026,1.2033,1.2033,1.2033,1.2024,1.1686,1.1513,1.1683,1.1744,1.1835,1.1986,1.2051,1.2051,0.3114,0.2335,0.1692,0.143,0.143,0.143,0.1792,0.2395,0.2394,0.3316,0.4838,0.4858,0.5502,0.6583,0.6586,0.0,0.0,0.0,0.6722,0.6722,0.6722,0.6722,0.6722,0.6722,0.6722,0.6722,0.6722,0.6722,0.6722,0.6722,0.6614,0.648,0.0,0.0,0.7293,0.7888,0.7874,0.7238,0.7215,0.6891,0.6319,0.628,0.628,0.628,0.628,0.628,0.628,0.628,0.628,0.628,0.628,0.628,0.0,0.0,0.0,0.0,0.0,0.0,0.0,0.0,0.0,0.0,0.0,0.628,0.628,0.0,0.0,0.0,0.628,0.628,0.628,0.7744,0.0,0.0,0.0,0.0,0.0,0.0,0.0,1.2441,1.1844,1.1569,1.194,1.237,1.25,1.2113,1.2582,1.2945,1.2971,0.0,1.314,1.2972,1.2945,1.2885,1.2692,1.2665,1.2665,1.2646,1.2646,1.2659,1.2659,1.2659,1.2659,1.264,1.2646,1.2665,1.2665,1.234,1.2084,1.2069,1.2037,1.2104,1.2271,1.2305,1.2305,0.3895,0.3874,0.3874,0.376,0.3604,0.3604,0.3646,0.3728,0.3707,0.427,0.5225,0.5225,0.5779,0.6698,0.6729,0.0,0.6736,0.6715,0.6739,0.6736,0.6732,0.6736,0.6736,0.6739,0.6736,0.6736,0.6736,0.6739,0.6739,0.6739,0.6736,0.6736,0.6736,0.6654,0.6522,0.6532,0.6443,0.6337,0.6337,0.6327,0.6297,0.6306,0.628,0.628,0.628,0.628,0.628,0.628,0.628,0.628,0.628,0.628,0.628,0.0,0.0,0.0,0.0,0.0,0.0,0.0,0.0,0.0,0.0,0.0,0.0,0.0,0.0,0.0,0.628,0.0,0.628,0.7211,0.0,0.0,0.0,1.1161,1.1998,1.1663,1.1727,1.2721,0.0,0.0,1.3121,1.326,1.2928,1.2009,1.2663,1.3247,1.3227,1.3253,1.3273,1.3253,1.324,1.3213,1.316,1.314,1.3153,1.3153,1.3206,1.316,1.3173,1.318,1.318,1.3173,1.32,1.3193,1.32,1.314,1.3033,1.246,1.2385,1.2392,1.2418,1.2432,1.242,0.6265,0.6265,0.6265,0.5245,0.3604,0.3604,0.402,0.4726,0.4747,0.5334,0.6322,0.6322,0.6508,0.686,0.6968,0.7016,0.6991,0.7016,0.7016,0.7012,0.7016,0.7016,0.6994,0.7016,0.7012,0.6991,0.7016,0.7012,0.6991,0.6991,0.6994,0.6991,0.6991,0.6905,0.6658,0.6647,0.663,0.6614,0.6617,0.6559,0.6443,0.6358,0.628,0.628,0.628,0.628,0.628,0.628,0.628,0.628,0.628,0.628,0.628,0.628,0.0,0.0,0.0,0.0,0.0,0.0,0.0,0.0,0.0,0.628,0.628,0.0,0.628,0.0,0.628,0.628,0.6296,0.7215,0.0,0.0,0.9438,1.0877,1.0401,1.1746,1.2824,1.306,1.3133,1.3229,1.348,1.3741,1.3798,1.3556,1.351,1.35,1.3507,1.3741,1.3774,1.3567,1.352,1.342,1.3253,1.3206,1.3227,1.3206,1.3213,1.3206,1.3213,1.3206,1.3206,1.3206,1.3206,1.3206,1.3227,1.3206,1.3173,1.3026,1.2999,1.2993,1.2993,1.2993,1.2973,0.7117,0.7117,0.7117,0.634,0.5149,0.5151,0.547,0.5986,0.5983,0.6334,0.6874,0.6874,0.6924,0.698,0.7061,0.7117,0.7117,0.7117,0.7117,0.7117,0.7117,0.7117,0.7117,0.7117,0.7117,0.7117,0.7117,0.7117,0.7117,0.7117,0.7117,0.7117,0.7117,0.7036,0.688,0.6834,0.677,0.6722,0.6722,0.6661,0.6597,0.6515,0.6463,0.6375,0.6395,0.6364,0.63,0.628,0.628,0.628,0.628,0.628,0.628,0.628,0.628,0.0,0.0,0.0,0.0,0.0,0.0,0.0,0.0,0.0,0.0,0.0,0.628,0.628,0.628,0.628,0.628,0.6854,0.7379,0.7788,0.9503,1.0782,1.1207,1.2511,1.338,1.336,1.364,1.382,1.382,1.3981,1.4109,1.4109,1.3941,1.382,1.3827,1.3967,1.4049,1.3847,1.382,1.3774,1.3621,1.3601,1.358,1.3594,1.3607,1.3601,1.3601,1.3601,1.3601,1.3601,1.3601,1.3601,1.3601,1.3601,1.3601,1.3601,1.3601,1.3507,1.3267,1.3206,1.3206,0.7117,0.7117,0.7117,0.7117,0.7117,0.7117,0.7117,0.7117,0.7117,0.7117,0.7117,0.7117,0.7117,0.7117,0.7117,0.7117,0.7117,0.7117,0.7117,0.7117,0.7117,0.7117,0.7117,0.7117,0.7117,0.7117,0.7117,0.7117,0.7117,0.7117,0.7117,0.7117,0.7117,0.7117,0.7114,0.6974,0.687,0.6759,0.6718,0.6711,0.6729,0.6709,0.6637,0.6549,0.6522,0.6464,0.6341,0.6358,0.6354,0.6354,0.6337,0.6323,0.6327,0.6313,0.628,0.0,0.632,0.0,0.0,0.0,0.0,0.0,0.0,0.0,0.0,0.628,0.6326,0.6323,0.6323,0.6392,0.6546,0.6662,0.7573,0.9493,1.0018,1.0961,1.2802,1.3419,1.366,1.368,1.3907,1.4109,1.4096,1.4109,1.4109,1.4109,1.4075,1.4062,1.4082,1.4103,1.4103,1.4109,1.4109,1.4041,1.4056,1.4076,1.4055,1.4089,1.4041,1.4109,1.4076,1.4083,1.4089,1.4089,1.4041,1.4083,1.4109,1.4089,1.4089,1.4063,1.4056,1.3895,1.3494,1.3373,1.332,0.7117,0.7117,0.7117,0.7117,0.7117,0.7117,0.7117,0.7117,0.7117,0.7117,0.7117,0.7117,0.7117,0.7117,0.7117,0.7117,0.7117,0.7117,0.7117,0.7117,0.7117,0.7117,0.7117,0.7117,0.7117,0.7117,0.7117,0.7117,0.7117,0.7117,0.7117,0.7117,0.7117,0.7117,0.7117,0.0,0.0,0.0,0.6924,0.6867,0.6857,0.6763,0.6688,0.6678,0.6658,0.0,0.662,0.6617,0.6637,0.6634,0.6518,0.0,0.0,0.0,0.0,0.0,0.0,0.0,0.0,0.0,0.0,0.0,0.6637,0.6539,0.6323,0.628,0.6328,0.646,0.6454,0.6895,0.7882,0.8004,0.8594,0.9963,1.1052,1.1867,1.2316,1.3316,1.4001,1.4008,1.4076,1.4109,1.4109,1.4109,1.4109,1.4109,1.4109,1.4109,1.4109,1.4109,1.4109,1.4109,1.4109,1.4109,1.4109,1.4109,1.4109,1.4109,1.4109,1.4109,1.4109,1.4109,1.4109,1.4109,1.4109,1.4109,1.4109,1.4109,1.4109,1.4109,1.4109,1.4076,1.3962,1.3942,1.3921,0.7117,0.7117,0.7117,0.7117,0.0,0.7117,0.7117,0.7117,0.7117,0.7117,0.7117,0.7117,0.7117,0.7117,0.7117,0.7117,0.7117,0.7117,0.7117,0.7117,0.7117,0.7117,0.7117,0.7117,0.7117,0.7117,0.7117,0.7117,0.7117,0.7117,0.7117,0.7117,0.7117,0.7117,0.7117,0.7117,0.7117,0.7117,0.7024,0.6991,0.6987,0.6935,0.6864,0.6796,0.6814,0.0,0.0,0.0,0.0,0.0,0.0,0.0,0.0,0.6539,0.0,0.6501,0.6563,0.6583,0.6607,0.6658,0.6722,0.6722,0.7208,0.7241,0.6565,0.6498,0.6763,0.7373,0.7441,0.7943,0.9127,0.9368,0.9842,1.0994,1.1785,1.2398,1.3021,1.3667,1.4088,1.4109,1.4109,1.4109,1.4109,1.4109,1.4109,1.4109,1.4109,1.4109,1.4109,1.4109,1.4109,1.4109,1.4109,1.4109,1.4109,1.4109,1.4109,1.4109,1.4109,1.4109,1.4109,1.4109,1.4109,1.4109,1.4109,1.4109,1.4109,1.4109,1.4109,1.4109,1.4109,1.4313,1.4741,1.488,1.5061,0.7117,0.7117,0.7117,0.7117,0.7117,0.7117,0.7117,0.7117,0.0,0.0,0.0,0.7117,0.7117,0.7117,0.7117,0.7117,0.7117,0.7117,0.7117,0.7117,0.7117,0.7117,0.7117,0.7117,0.7117,0.7117,0.7117,0.7117,0.7117,0.7117,0.7117,0.7117,0.7117,0.7117,0.7117,0.7117,0.7117,0.7117,0.7117,0.7117,0.7117,0.7117,0.7041,0.6927,0.6923,0.6884,0.6787,0.6776,0.678,0.6755,0.6756,0.6739,0.6718,0.6715,0.6722,0.6722,0.6725,0.6742,0.6742,0.6763,0.678,0.6776,0.7827,0.7986,0.6788,0.6885,0.7302,0.8082,0.8308,0.8955,1.0152,1.058,1.1198,1.2325,1.2554,1.3021,1.3927,1.4109,1.4109,1.4109,1.4109,1.4109,1.4109,1.4109,1.4109,1.4109,1.4109,1.4109,1.4109,1.4109,1.4109,1.4109,1.4109,1.4109,1.4109,1.4109,1.4109,1.4109,1.4109,1.4109,1.4109,1.4109,1.4109,1.4109,1.4109,1.4109,1.4109,1.4109,1.4109,1.4109,1.4109,1.4412,1.5421,1.5861,1.6232,0.7117,0.7117,0.7117,0.7117,0.7117,0.7117,0.7117,0.7117,0.7117,0.7117,0.7117,0.7117,0.7117,0.7117,0.7117,0.7117,0.7117,0.7117,0.7117,0.7117,0.7117,0.7117,0.7117,0.7117,0.7117,0.7117,0.7117,0.7117,0.7117,0.7117,0.7117,0.7117,0.7117,0.7117,0.7117,0.7117,0.7117,0.7117,0.7117,0.7117,0.7117,0.7117,0.7088,0.7068,0.7065,0.7058,0.706,0.7053,0.7034,0.7053,0.6941,0.6877,0.687,0.6752,0.6722,0.6705,0.6799,0.6874,0.6877,0.6967,0.7056,0.71,0.8162,0.8234,0.6871,0.7613,0.7878,0.7275,0.8193,0.9158,1.0404,1.147,1.2502,1.3581,1.3816,1.3934,1.4109,1.4109,1.4109,1.4109,1.4109,1.4109,1.4109,1.4109,1.4109,1.4109,1.4109,1.4109,1.4109,1.4109,1.4109,1.4109,1.4109,1.4109,1.4109,1.4109,1.4109,1.4109,1.4109,1.4109,1.4109,1.4109,1.4109,1.4109,1.4109,1.4109,1.4109,1.4109,1.4187,1.4229,1.4271,1.465,1.5745,1.658,1.7192,0.7117,0.7117,0.7117,0.7117,0.7117,0.7117,0.7117,0.7117,0.7117,0.7117,0.7117,0.7117,0.7117,0.7117,0.7117,0.7117,0.7117,0.7117,0.7117,0.7117,0.7117,0.7117,0.7117,0.7117,0.7117,0.7117,0.7117,0.7117,0.7117,0.7117,0.7117,0.7117,0.7117,0.7117,0.7117,0.7117,0.7117,0.7117,0.7117,0.7117,0.7117,0.7117,0.7117,0.7117,0.7117,0.7117,0.7117,0.7117,0.7117,0.7117,0.7056,0.7001,0.7001,0.6955,0.6918,0.6918,0.6985,0.7001,0.7001,0.7058,0.7379,0.8057,0.9165,0.9567,0.8879,0.8713,0.8981,0.9724,1.0369,1.1155,1.2355,1.2969,1.3491,1.4018,1.4109,1.4109,1.4109,1.4109,1.4109,1.4109,1.4109,1.4109,1.4109,1.4109,1.4109,1.4109,1.4109,1.4109,1.4109,1.4109,1.4109,1.4109,1.4109,1.4109,1.4109,1.4109,1.4109,1.4109,1.4109,1.4109,1.4109,1.4109,1.4109,1.4109,1.4109,1.4109,1.4109,1.4615,1.488,1.504,1.5532,1.6198,1.7273,1.8341,1.9036,0.7117,0.7117,0.7117,0.7117,0.7117,0.7117,0.7117,0.7117,0.7117,0.7117,0.7117,0.7117,0.7117,0.7117,0.7117,0.7117,0.7117,0.7117,0.7117,0.7117,0.7117,0.7117,0.7117,0.7117,0.7117,0.7117,0.7117,0.7117,0.7117,0.7117,0.7117,0.7117,0.7117,0.7117,0.7117,0.7117,0.7117,0.7117,0.7117,0.7117,0.7117,0.7117,0.7117,0.7117,0.7117,0.7117,0.7117,0.7117,0.7117,0.7117,0.7356,0.7514,0.7511,0.7749,0.7878,0.7856,0.7643,0.7514,0.7533,0.8009,0.8554,0.9213,1.033,1.0977,1.0907,1.0183,1.0226,1.1659,1.199,1.2626,1.3379,1.3913,1.4109,1.4109,1.4109,1.4109,1.4109,1.4109,1.4109,1.4109,1.4109,1.4109,1.4109,1.4109,1.4109,1.4109,1.4109,1.4109,1.4109,1.4109,1.4109,1.4109,1.4109,1.4109,1.4109,1.4109,1.4109,1.4109,1.4109,1.4109,1.4109,1.4109,1.4109,1.4109,1.4109,1.4109,1.4187,1.4678,1.5123,1.5179,1.5848,1.7172,1.851,1.9373,2.0245,0.7117,0.7117,0.7117,0.7117,0.7117,0.7117,0.7117,0.7117,0.7117,0.7117,0.7117,0.7117,0.7117,0.7117,0.7117,0.7117,0.7117,0.7117,0.7117,0.7117,0.7117,0.7117,0.7117,0.7117,0.7117,0.7117,0.7117,0.7117,0.7117,0.7117,0.7117,0.7117,0.7117,0.7117,0.7117,0.7117,0.7117,0.7117,0.7117,0.7117,0.7117,0.7117,0.7117,0.7117,0.7117,0.7117,0.7117,0.7117,0.7117,0.7183,0.8101,0.8693,0.8759,0.9662,1.0221,1.0108,0.9253,0.8737,0.8868,1.067,1.1295,1.0632,1.1472,1.2109,1.2157,1.205,1.1579,1.1338,1.1788,1.2456,1.2525,1.347,1.4082,1.4109,1.4109,1.4109,1.4109,1.4109,1.4109,1.4109,1.4109,1.4109,1.4109,1.4109,1.4109,1.4109,1.4109,1.4109,1.4109,1.4109,1.4109,1.4109,1.4109,1.4109,1.4109,1.4109,1.4109,1.4109,1.4109,1.4109,1.4109,1.4109,1.4109,1.4109,1.4109,1.4109,1.4109,1.425,1.4454,1.5103,1.5786,1.6695,1.839,1.9263,1.9697,0.7117,0.7117,0.7117,0.7117,0.7117,0.7117,0.7117,0.7117,0.7117,0.7117,0.7117,0.7117,0.7117,0.7117,0.7117,0.7117,0.7117,0.7117,0.7117,0.7117,0.7117,0.7117,0.7117,0.7117,0.7117,0.7117,0.7117,0.7117,0.7117,0.7117,0.7117,0.7117,0.7117,0.7117,0.7117,0.7117,0.7117,0.7117,0.7117,0.7117,0.7117,0.7117,0.7117,0.7117,0.7117,0.7117,0.7117,0.7117,0.7117,0.7139,0.7577,0.7819,0.7841,0.8273,0.8532,0.8532,0.8798,0.9192,0.9857,1.0805,1.1402,1.1574,1.2023,1.2595,1.3294,1.3358,1.3145,1.2842,1.3097,1.3358,1.3385,1.38,1.4109,1.4109,1.4109,1.4109,1.4109,1.4109,1.4109,1.4109,1.4109,1.4109,1.4109,1.4109,1.4109,1.4109,1.4109,1.4109,1.4109,1.4109,1.4109,1.4109,1.4109,1.4109,1.4109,1.4109,1.4109,1.4109,1.4109,1.4109,1.4109,1.4109,1.4109,1.413,1.425,1.425,1.4109,1.5311,1.6021,1.6219,1.7488,1.8939,1.9825,1.9942,2.0206,0.7117,0.7117,0.7117,0.7117,0.7117,0.7117,0.7117,0.7117,0.7117,0.7117,0.7117,0.7117,0.7117,0.7117,0.7117,0.7117,0.7117,0.7117,0.7117,0.7117,0.7117,0.7117,0.7117,0.7117,0.7117,0.7117,0.7117,0.7117,0.7117,0.7117,0.7117,0.7117,0.7117,0.7117,0.7117,0.7117,0.7117,0.7117,0.7117,0.7117,0.7117,0.7117,0.7117,0.7117,0.7117,0.7117,0.7117,0.7117,0.7117,0.7117,0.7687,0.8053,0.8097,0.8663,0.8877,0.8655,0.964,1.0529,1.1085,1.1364,1.1906,1.2681,1.2787,1.3139,1.3891,1.4109,1.4109,1.4039,1.4109,1.406,1.4109,1.4109,1.4109,1.4109,1.4109,1.4109,1.4109,1.4109,1.4109,1.4109,1.4109,1.4109,1.4109,1.4109,1.4109,1.4109,1.4109,1.4109,1.4109,1.4109,1.4109,1.4109,1.4109,1.4109,1.4109,1.4109,1.4109,1.4109,1.4109,1.4109,1.4187,1.4271,1.4552,1.4852,1.4796,1.5026,1.5387,1.6588,1.7504,1.7989,1.8997,2.0206,2.0411,2.0547,2.0566,0.7117,0.7117,0.7117,0.7117,0.7117,0.7117,0.7117,0.7117,0.7117,0.7117,0.7117,0.7117,0.7117,0.7117,0.7117,0.7117,0.7117,0.7117,0.7117,0.7117,0.7117,0.7117,0.7117,0.7117,0.7117,0.7117,0.7117,0.7117,0.7117,0.7117,0.7117,0.7117,0.7117,0.7117,0.7117,0.7117,0.7117,0.7117,0.7117,0.7117,0.7117,0.7117,0.7117,0.7117,0.7117,0.7117,0.7117,0.7117,0.7117,0.7139,0.9074,1.0286,1.0524,1.2339,1.2842,1.2157,1.3012,1.3252,1.2504,1.3167,1.3822,1.3955,1.3864,1.3997,1.4067,1.4109,1.4109,1.4109,1.4109,1.4109,1.4109,1.4109,1.4109,1.4109,1.4109,1.4109,1.4109,1.4109,1.4109,1.4109,1.4109,1.4109,1.4109,1.4109,1.4109,1.4109,1.4109,1.4109,1.413,1.413,1.4229,1.425,1.4271,1.4145,1.4145,1.4349,1.4286,1.4391,1.4573,1.4349,1.4538,1.4817,1.5296,1.5786,1.6239,1.665,1.7009,1.7455,1.8,1.849,1.8937,1.9766,2.0508,2.0566,2.0596,0.7117,0.7117,0.7117,0.7117,0.7117,0.7117,0.7117,0.7117,0.7117,0.7117,0.7117,0.7117,0.7117,0.7117,0.7117,0.7117,0.7117,0.7117,0.7117,0.7117,0.7117,0.7117,0.7117,0.7117,0.7117,0.7117,0.7117,0.7117,0.7117,0.7117,0.7117,0.7117,0.7117,0.7117,0.7117,0.7117,0.7117,0.7117,0.7117,0.7117,0.7117,0.7117,0.7117,0.7117,0.7117,0.7117,0.7117,0.7117,0.7445,0.8215,0.9082,0.9857,1.0567,1.1386,1.2035,1.2306,1.2717,1.3097,1.3442,1.3828,1.4109,1.4109,1.4109,1.4109,1.4109,1.4109,1.4109,1.4109,1.4109,1.4109,1.4109,1.4109,1.4109,1.4109,1.4109,1.4109,1.4109,1.4109,1.4109,1.4109,1.4109,1.4109,1.4109,1.4109,1.4109,1.4109,1.4109,1.4145,1.425,1.4629,1.5116,1.5262,1.5718,1.6165,1.6144,1.5504,1.52,1.54,1.5566,1.6021,1.6281,1.6309,1.6703,1.6785,1.7354,1.7617,1.7779,1.8241,1.8749,1.9461,1.9883,1.9932,2.0527,2.0586,2.0596,0.7117,0.7117,0.7117,0.7117,0.7117,0.7117,0.7117,0.7117,0.7117,0.7117,0.7117,0.7117,0.7117,0.7117,0.7117,0.7117,0.7117,0.7117,0.7117,0.7117,0.7117,0.7117,0.7117,0.7117,0.7117,0.7117,0.7117,0.7117,0.7117,0.7117,0.7117,0.7117,0.7117,0.7117,0.7117,0.7117,0.7117,0.7117,0.7117,0.7117,0.7139,0.7492,0.7691,0.7753,0.8013,0.8031,0.7709,0.8031,0.8575,0.9362,0.9792,1.0508,1.1563,1.1719,1.2056,1.2744,1.2893,1.323,1.3955,1.4109,1.4109,1.4109,1.4109,1.4109,1.4109,1.4109,1.4109,1.4109,1.4109,1.4109,1.4109,1.4109,1.4109,1.4109,1.4109,1.4109,1.4109,1.4109,1.4109,1.4109,1.4109,1.4109,1.4109,1.4109,1.4109,1.4109,1.4349,1.4615,1.4755,1.5504,1.6211,1.6281,1.6731,1.7037,1.718,1.6846,1.6457,1.658,1.6642,1.7232,1.7637,1.7727,1.7848,1.79,1.806,1.8261,1.8601,1.9067,1.9697,2.045,2.0469,2.0372,2.0576,2.0596,2.0596,0.7117,0.7117,0.7117,0.7117,0.7117,0.7117,0.7117,0.7117,0.7117,0.7117,0.7117,0.7117,0.7117,0.7117,0.7117,0.7117,0.7117,0.7117,0.7117,0.7117,0.7117,0.7117,0.7117,0.7117,0.7117,0.7117,0.7117,0.7117,0.7117,0.7117,0.7117,0.7117,0.7117,0.7117,0.7117,0.7117,0.7117,0.7139,0.7205,0.7228,0.7272,0.8321,0.8886,0.9017,0.9918,1.0026,0.9061,0.9901,1.0394,1.067,1.1552,1.2787,1.361,1.38,1.3976,1.3913,1.4018,1.406,1.4088,1.4109,1.4109,1.4109,1.4109,1.4109,1.4109,1.4109,1.4109,1.4109,1.4109,1.4109,1.4109,1.4109,1.4109,1.4109,1.4109,1.4109,1.4109,1.4109,1.4109,1.4109,1.4109,1.4109,1.4109,1.425,1.4334,1.4475,1.5103,1.5724,1.5807,1.6642,1.722,1.7334,1.7718,1.8121,1.8161,1.8129,1.792,1.7759,1.7738,1.7989,1.8361,1.855,1.8888,1.9027,1.9353,1.9559,1.9559,1.9981,2.0079,2.0596,2.0596,2.0596,2.0596,2.0596,2.0596,0.7117,0.7117,0.7117,0.7117,0.7117,0.7117,0.7117,0.7117,0.7117,0.7117,0.7117,0.7117,0.7117,0.7117,0.7117,0.7117,0.7117,0.7117,0.7117,0.7117,0.7117,0.7117,0.7117,0.7117,0.7117,0.7117,0.7117,0.7117,0.7117,0.7117,0.7117,0.7117,0.7117,0.7117,0.7117,0.7117,0.7117,0.7183,0.7907,0.8342,0.8452,0.9471,1.0074,1.02,1.1166,1.1574,1.1273,1.0848,1.0994,1.1724,1.2109,1.2829,1.3822,1.4109,1.4109,1.4109,1.4109,1.4109,1.4109,1.4109,1.4109,1.4109,1.4109,1.4109,1.4109,1.4109,1.4109,1.4109,1.4109,1.4109,1.4109,1.4109,1.4109,1.4109,1.4109,1.4109,1.4109,1.4109,1.4109,1.4109,1.4109,1.4109,1.4271,1.4594,1.5116,1.5304,1.6116,1.6785,1.6968,1.7759,1.843,1.849,1.8948,1.9274,1.9313,1.9333,1.9234,1.9047,1.8968,1.8868,1.9175,1.9373,1.9756,2.0021,2.0391,2.0547,2.0586,2.0596,2.0596,2.0596,2.0596,2.0596,2.0596,2.0596,2.0596,0.7117,0.7117,0.7117,0.7117,0.7117,0.7117,0.7117,0.7117,0.7117,0.7117,0.7117,0.7117,0.7117,0.7117,0.7117,0.7117,0.7117,0.7117,0.7117,0.7117,0.7117,0.7117,0.7117,0.7117,0.7117,0.7117,0.7117,0.7117,0.7117,0.7117,0.7117,0.7117,0.7117,0.7117,0.7117,0.7117,0.7117,0.7272,0.8259,0.8912,0.9235,1.0416,1.123,1.1402,1.2355,1.2914,1.2921,1.2275,1.2211,1.2829,1.2984,1.3379,1.4018,1.4109,1.4109,1.4109,1.4109,1.4109,1.4109,1.4109,1.4109,1.4109,1.4109,1.4109,1.4109,1.4109,1.4109,1.4109,1.4109,1.4109,1.4109,1.4109,1.4109,1.4109,1.4109,1.4109,1.4109,1.4109,1.4109,1.4109,1.4109,1.4265,1.4768,1.5158,1.5902,1.6293,1.7232,1.7948,1.8169,1.8897,1.9303,1.9619,1.9903,2.0206,2.045,2.0508,2.0508,2.0391,2.0245,2.0108,2.0147,2.0147,2.0362,2.0323,2.0566,2.0566,2.0596,2.0596,2.0596,2.0596,2.0596,2.0596,2.0596,2.0596,2.0596,0.7117,0.7117,0.7117,0.7117,0.7117,0.7117,0.7117,0.7117,0.7117,0.7117,0.7117,0.7117,0.7117,0.7117,0.7117,0.7117,0.7117,0.7117,0.7117,0.7117,0.7117,0.7117,0.7117,0.7117,0.7117,0.7117,0.7117,0.7117,0.7117,0.7117,0.7117,0.7117,0.7117,0.7117,0.7117,0.7117,0.7183,0.7511,0.8496,0.9126,0.9388,1.1279,1.2392,1.244,1.3385,1.3955,1.3891,1.3779,1.387,1.406,1.3934,1.3976,1.4088,1.4109,1.4109,1.4109,1.4109,1.4109,1.4109,1.4109,1.4109,1.4109,1.4109,1.4109,1.4109,1.4109,1.4109,1.4109,1.4109,1.4109,1.4109,1.4109,1.4109,1.4109,1.4109,1.4109,1.4109,1.4109,1.4187,1.4265,1.4265,1.4594,1.5641,1.5964,1.658,1.7314,1.8341,1.8948,1.9215,1.9766,2.0391,2.0566,2.0508,2.0527,2.0596,2.0596,2.0596,2.0596,2.0596,2.0596,2.0596,2.0596,2.0596,2.0596,2.0596,2.0596,2.0596,2.0596,2.0596,2.0596,2.0596,2.0596,2.0596,2.0596,2.0596,0.7117,0.7117,0.7117,0.7117,0.7117,0.7117,0.7117,0.7117,0.7117,0.7117,0.7117,0.7117,0.7117,0.7117,0.7117,0.7117,0.7117,0.7117,0.7117,0.7117,0.7117,0.7117,0.7117,0.7117,0.7117,0.7117,0.7117,0.7117,0.7117,0.7117,0.7117,0.7117,0.7117,0.7117,0.7117,0.7117,0.7599,0.8474,0.9553,1.0567,1.1429,1.2729,1.3603,1.3667,1.3927,1.4109,1.4109,1.4109,1.4109,1.4109,1.4109,1.4109,1.4109,1.4109,1.4109,1.4109,1.4109,1.4109,1.4109,1.4109,1.4109,1.4109,1.4109,1.4109,1.4109,1.4109,1.4109,1.4109,1.4109,1.4109,1.4109,1.4109,1.4109,1.4109,1.4109,1.4109,1.4109,1.413,1.437,1.5082,1.522,1.5732,1.6683,1.7488,1.8089,1.859,1.9333,2.0079,2.0099,2.0187,2.0596,2.0596,2.0566,2.0586,2.0596,2.0596,2.0596,2.0596,2.0596,2.0596,2.0596,2.0596,2.0596,2.0596,2.0596,2.0596,2.0596,2.0596,2.0596,2.0596,2.0596,2.0596,2.0596,2.0596,2.0596,0.7117,0.7117,0.7117,0.7117,0.7117,0.7117,0.7117,0.7117,0.7117,0.7117,0.7117,0.7117,0.7117,0.7117,0.7117,0.7117,0.7117,0.7117,0.7117,0.7117,0.7117,0.7117,0.7117,0.7117,0.7117,0.7117,0.7117,0.7117,0.7117,0.7117,0.7117,0.7117,0.7117,0.7117,0.7117,0.7139,0.7687,0.8864,1.0009,1.1144,1.2285,1.347,1.3997,1.4109,1.4109,1.4109,1.4109,1.4109,1.4109,1.4109,1.4109,1.4109,1.4109,1.4109,1.4109,1.4109,1.4109,1.4109,1.4109,1.4109,1.4109,1.4109,1.4109,1.4109,1.4109,1.4109,1.4109,1.4109,1.4109,1.4109,1.4109,1.4109,1.4109,1.4109,1.4109,1.4109,1.4109,1.4109,1.4615,1.5338,1.5758,1.6347,1.7759,1.863,1.9155,1.9619,2.0079,2.0421,2.0527,2.0596,2.0596,2.0596,2.0596,2.0596,2.0596,2.0596,2.0596,2.0596,2.0596,2.0596,2.0596,2.0596,2.0596,2.0596,2.0596,2.0596,2.0596,2.0596,2.0596,2.0596,2.0596,2.0596,2.0596,2.0596,2.0596,0.7117,0.7117,0.7117,0.7117,0.7117,0.7117,0.7117,0.7117,0.7117,0.7117,0.7117,0.7117,0.7117,0.7117,0.7117,0.7117,0.7117,0.7117,0.7117,0.7117,0.7117,0.7117,0.7117,0.7117,0.7117,0.7117,0.7117,0.7117,0.7117,0.7117,0.7117,0.7117,0.7117,0.7117,0.7117,0.7117,0.7753,0.8864,1.0009,1.1144,1.2285,1.3449,1.406,1.4109,1.4109,1.4109,1.4109,1.4109,1.4109,1.4109,1.4109,1.4109,1.4109,1.4109,1.4109,1.4109,1.4109,1.4109,1.4109,1.4109,1.4109,1.4109,1.4109,1.4109,1.4109,1.4109,1.4109,1.4109,1.4109,1.4109,1.4109,1.4109,1.4109,1.4109,1.4109,1.4109,1.4124,1.4187,1.4678,1.5703,1.5923,1.7102,1.837,1.9244,1.9529,2.006,2.0489,2.0527,2.0596,2.0596,2.0596,2.0596,2.0596,2.0596,2.0596,2.0596,2.0596,2.0596,2.0596,2.0596,2.0596,2.0596,2.0596,2.0596,2.0596,2.0596,2.0596,2.0596,2.0596,2.0596,2.0596,2.0596,2.0596,2.0596,2.0596,0.7117,0.7117,0.7117,0.7117,0.7117,0.7117,0.7117,0.7117,0.7117,0.7117,0.7117,0.7117,0.7117,0.7117,0.7117,0.7117,0.7117,0.7117,0.7117,0.7117,0.7117,0.7117,0.7117,0.7117,0.7117,0.7117,0.7117,0.7117,0.7117,0.7117,0.7117,0.7117,0.7117,0.7117,0.7117,0.7139,0.7709,0.8886,1.0031,1.1187,1.2376,1.347,1.4109,1.4109,1.4109,1.4109,1.4109,1.4109,1.4109,1.4109,1.4109,1.4109,1.4109,1.4109,1.4109,1.4109,1.4109,1.4109,1.4109,1.4109,1.4109,1.4109,1.4109,1.4109,1.4109,1.4109,1.4109,1.4109,1.4109,1.4109,1.4109,1.4109,1.4109,1.4109,1.4109,1.4109,1.4229,1.4838,1.569,1.6711,1.7658,1.8749,1.9981,2.0108,2.0333,2.0596,2.0596,2.0596,2.0596,2.0596,2.0596,2.0596,2.0596,2.0596,2.0596,2.0596,2.0596,2.0596,2.0596,2.0596,2.0596,2.0596,2.0596,2.0596,2.0596,2.0596,2.0596,2.0596,2.0596,2.0596,2.0596,2.0596,2.0596,2.0596,2.0596,0.7117,0.7117,0.7117,0.7117,0.7117,0.7117,0.7117,0.7117,0.7117,0.7117,0.7117,0.7117,0.7117,0.7117,0.7117,0.7117,0.7117,0.7117,0.7117,0.7117,0.7117,0.7117,0.7117,0.7117,0.7117,0.7117,0.7117,0.7117,0.7117,0.7117,0.7117,0.7117,0.7117,0.7117,0.7117,0.7117,0.8097,0.9488,1.0291,1.1386,1.3012,1.3716,1.4109,1.4109,1.4109,1.4109,1.4109,1.4109,1.4109,1.4109,1.4109,1.4109,1.4109,1.4109,1.4109,1.4109,1.4109,1.4109,1.4109,1.4109,1.4109,1.4109,1.4109,1.4109,1.4109,1.4109,1.4109,1.4109,1.4109,1.4109,1.4109,1.4109,1.4109,1.4109,1.4109,1.4109,1.4271,1.5061,1.6108,1.7192,1.8189,1.9274,2.0138,2.0508,2.0596,2.0596,2.0596,2.0596,2.0596,2.0596,2.0596,2.0596,2.0596,2.0596,2.0596,2.0596,2.0596,2.0596,2.0596,2.0596,2.0596,2.0596,2.0596,2.0605,2.0615,2.0596,2.0596,2.0596,2.0644,2.0635,2.0635,2.0625,2.0635,2.0693,2.0664,0.7117,0.7117,0.7117,0.7117,0.7117,0.7117,0.7117,0.7117,0.7117,0.7117,0.7117,0.7117,0.7117,0.7117,0.7117,0.7117,0.7117,0.7117,0.7117,0.7117,0.7117,0.7117,0.7117,0.7117,0.7117,0.7117,0.7117,0.7117,0.7117,0.7117,0.7117,0.7117,0.7117,0.7117,0.7117,0.7205,0.8035,0.9771,1.0394,1.1472,1.33,1.387,1.4088,1.4109,1.4109,1.4109,1.4109,1.4109,1.4109,1.4109,1.4109,1.4109,1.4109,1.4109,1.4109,1.4109,1.4109,1.4109,1.4109,1.4109,1.4109,1.4109,1.4109,1.4109,1.4109,1.4109,1.4109,1.4109,1.4109,1.4109,1.4109,1.4109,1.4109,1.4145,1.4208,1.4271,1.4377,1.5241,1.6715,1.7212,1.859,1.9903,2.0304,2.0596,2.0596,2.0596,2.0596,2.0596,2.0596,2.0596,2.0596,2.0596,2.0596,2.0596,2.0596,2.084,2.081,2.085,2.0791,2.0859,2.0869,2.1006,2.1055,2.0693,2.0644,2.0703,2.083,2.0987,2.0967,2.0791,2.0879,2.1075,2.0996,2.083,2.084,0.7117,0.7117,0.7117,0.7117,0.7117,0.7117,0.7117,0.7117,0.7117,0.7117,0.7117,0.7117,0.7117,0.7117,0.7117,0.7117,0.7117,0.7117,0.7117,0.7117,0.7117,0.7117,0.7117,0.7117,0.7117,0.7117,0.7117,0.7117,0.7117,0.7117,0.7117,0.7117,0.7117,0.7117,0.7117,0.7183,0.7775,0.9318,1.0178,1.1386,1.2568,1.3625,1.4109,1.4109,1.4109,1.4109,1.4109,1.4109,1.4109,1.4109,1.4109,1.4109,1.4109,1.4109,1.4109,1.4109,1.4109,1.4109,1.4109,1.4109,1.4109,1.4109,1.4109,1.4109,1.4109,1.4109,1.4109,1.4109,1.4109,1.4109,1.4109,1.4109,1.4109,1.4292,1.4755,1.5019,1.4922,1.6322,1.7779,1.7738,1.9076,2.0274,2.0469,2.0596,2.0596,2.0596,2.0596,2.0596,2.0596,2.0596,2.0596,2.0596,2.0596,2.0596,2.0596,2.0957,2.1152,2.124,2.1289,2.1495,2.1553,2.1671,2.1573,2.1153,2.0996,2.1103,2.124,2.1387,2.1446,2.1378,2.1505,2.1632,2.1475,2.1329,2.1456,0.7117,0.7117,0.7117,0.7117,0.7117,0.7117,0.7117,0.7117,0.7117,0.7117,0.7117,0.7117,0.7117,0.7117,0.7117,0.7117,0.7117,0.7117,0.7117,0.7117,0.7117,0.7117,0.7117,0.7117,0.7117,0.7117,0.7117,0.7117,0.7117,0.7117,0.7117,0.7117,0.7117,0.7117,0.7117,0.7139,0.7797,0.8886,1.0009,1.1166,1.2306,1.3512,1.4018,1.4109,1.4109,1.4109,1.4109,1.4109,1.4109,1.4109,1.4109,1.4109,1.4109,1.4109,1.4109,1.4109,1.4109,1.4109,1.4109,1.4109,1.4109,1.4109,1.4109,1.4109,1.4109,1.4109,1.4109,1.4109,1.4109,1.4109,1.4109,1.4109,1.4109,1.4292,1.5082,1.54,1.569,1.7585,1.8129,1.829,1.95,2.0372,2.0508,2.0596,2.0596,2.0596,2.0596,2.0596,2.0596,2.0654,2.0684,2.0791,2.0859,2.1026,2.1055,2.1318,2.1542,2.162,2.1766,2.1973,2.2023,2.2031,2.1866,2.1524,2.1494,2.161,2.1602,2.172,2.1847,2.1954,2.1905,2.1886,2.1886,2.1896,2.2003,0.7117,0.7117,0.7117,0.7117,0.7117,0.7117,0.7117,0.7117,0.7117,0.7117,0.7117,0.7117,0.7117,0.7117,0.7117,0.7117,0.7117,0.7117,0.7117,0.7117,0.7117,0.7117,0.7117,0.7117,0.7117,0.7117,0.7117,0.7117,0.7117,0.7117,0.7117,0.7117,0.7117,0.7117,0.7117,0.7117,0.7885,0.8864,1.0009,1.1187,1.2595,1.3555,1.4109,1.4109,1.4109,1.4109,1.4109,1.4109,1.4109,1.4109,1.4109,1.4109,1.4109,1.4109,1.4109,1.4109,1.4109,1.4109,1.4109,1.4109,1.4109,1.4109,1.4109,1.4109,1.4109,1.4109,1.4109,1.4109,1.4109,1.4109,1.4109,1.4109,1.425,1.4713,1.5421,1.615,1.6642,1.7759,1.8937,1.9402,2.0167,2.044,2.0596,2.0596,2.0596,2.0596,2.0596,2.0596,2.0615,2.0811,2.0899,2.1055,2.1221,2.1475,2.1631,2.1807,2.1973,2.2031,2.2196,2.2422,2.2353,2.2285,2.2119,2.207,2.2158,2.2235,2.2148,2.21,2.2324,2.2393,2.2217,2.2217,2.2363,2.2393,2.2422,0.7117,0.7117,0.7117,0.7117,0.7117,0.7117,0.7117,0.7117,0.7117,0.7117,0.7117,0.7117,0.7117,0.7117,0.7117,0.7117,0.7117,0.7117,0.7117,0.7117,0.7117,0.7117,0.7117,0.7117,0.7117,0.7117,0.7117,0.7117,0.7117,0.7117,0.7117,0.7117,0.7117,0.7117,0.7117,0.7117,0.7731,0.8846,0.9988,1.1628,1.3455,1.3997,1.4088,1.4109,1.4109,1.4109,1.4109,1.4109,1.4109,1.4109,1.4109,1.4109,1.4109,1.4109,1.4109,1.4109,1.4109,1.4109,1.4109,1.4109,1.4109,1.4109,1.4109,1.4109,1.4109,1.4109,1.4109,1.4109,1.4109,1.4109,1.4109,1.4173,1.4587,1.5462,1.6375,1.6948,1.7455,1.8501,1.9599,1.9792,2.0312,2.0508,2.0674,2.0625,2.0596,2.0596,2.0596,2.0615,2.0742,2.0987,2.1309,2.1523,2.1671,2.1894,2.2137,2.2313,2.2383,2.2432,2.2566,2.2771,2.2703,2.2654,2.282,2.2801,2.283,2.2723,2.2537,2.2576,2.2818,2.2808,2.2654,2.2771,2.2986,2.2947,2.2781,0.7117,0.7117,0.7117,0.7117,0.7117,0.7117,0.7117,0.7117,0.7117,0.7117,0.7117,0.7117,0.7117,0.7117,0.7117,0.7117,0.7117,0.7117,0.7117,0.7117,0.7117,0.7117,0.7117,0.7117,0.7117,0.7117,0.7117,0.7117,0.7117,0.7117,0.7117,0.7117,0.7117,0.7117,0.7117,0.7117,0.7379,0.8251,0.9662,1.1756,1.3476,1.4109,1.4109,1.4109,1.4109,1.4109,1.4109,1.4109,1.4109,1.4109,1.4109,1.4109,1.4109,1.4109,1.4109,1.4109,1.4109,1.4109,1.4109,1.4109,1.4109,1.4109,1.4109,1.4109,1.4109,1.4109,1.4109,1.4109,1.4109,1.4109,1.4271,1.4671,1.5158,1.5964,1.7192,1.79,1.849,1.955,2.0401,2.04,2.0427,2.0702,2.0889,2.082,2.0801,2.0772,2.0811,2.0869,2.1084,2.1397,2.1748,2.2127,2.2236,2.2344,2.2576,2.2791,2.2781,2.281,2.282,2.2986,2.3013,2.3052,2.3101,2.3101,2.3015,2.2918,2.2849,2.2898,2.2984,2.3042,2.3091,2.3101,2.3101,2.3081,2.2976,0.7117,0.7117,0.7117,0.7117,0.7117,0.7117,0.7117,0.7117,0.7117,0.7117,0.7117,0.7117,0.7117,0.7117,0.7117,0.7117,0.7117,0.7117,0.7117,0.7117,0.7117,0.7117,0.7117,0.7117,0.7117,0.7117,0.7117,0.7117,0.7117,0.7117,0.7117,0.7117,0.7117,0.7117,0.7117,0.7183,0.7445,0.8575,0.9853,1.1778,1.3646,1.4088,1.4109,1.4109,1.4109,1.4109,1.4109,1.4109,1.4109,1.4109,1.4109,1.4109,1.4109,1.4109,1.4109,1.4109,1.4109,1.4109,1.4109,1.4109,1.4109,1.4109,1.4109,1.4109,1.4109,1.4109,1.4109,1.4109,1.4109,1.4109,1.4307,1.5012,1.5745,1.6601,1.7779,1.863,1.9412,2.0138,2.0693,2.08,2.0866,2.112,2.1221,2.1104,2.1026,2.0967,2.1006,2.1123,2.1426,2.1816,2.2168,2.2547,2.2635,2.2693,2.284,2.3023,2.3081,2.3101,2.3101,2.3101,2.3101,2.3101,2.3101,2.3101,2.3101,2.3052,2.2964,2.3033,2.3101,2.3101,2.3101,2.3101,2.3101,2.3101,2.3101,0.7117,0.7117,0.7117,0.7117,0.7117,0.7117,0.7117,0.7117,0.7117,0.7117,0.7117,0.7117,0.7117,0.7117,0.7117,0.7117,0.7117,0.7117,0.7117,0.7117,0.7117,0.7117,0.7117,0.7117,0.7117,0.7117,0.7117,0.7117,0.7117,0.7117,0.7117,0.7117,0.7117,0.7117,0.7183,0.7338,0.8378,0.9462,1.0611,1.1869,1.3476,1.4109,1.4109,1.4109,1.4109,1.4109,1.4109,1.4109,1.4109,1.4109,1.4109,1.4109,1.4109,1.4109,1.4109,1.4109,1.4109,1.4109,1.4109,1.4109,1.4109,1.4109,1.4109,1.4109,1.4109,1.4109,1.4109,1.4109,1.4109,1.4109,1.4412,1.5075,1.6219,1.709,1.821,1.9294,1.9923,2.0206,2.0752,2.1054,2.1308,2.1513,2.1805,2.1748,2.1534,2.1466,2.1592,2.1719,2.1992,2.2344,2.2586,2.2869,2.2976,2.3013,2.3013,2.3101,2.3101,2.3101,2.3101,2.3101,2.3101,2.3101,2.3101,2.3101,2.3101,2.3101,2.3101,2.3101,2.3101,2.3101,2.3101,2.3101,2.3101,2.3101,2.3101,0.7117,0.7117,0.7117,0.7117,0.7117,0.7117,0.7117,0.7117,0.7117,0.7117,0.7117,0.7117,0.7117,0.7117,0.7117,0.7117,0.7117,0.7117,0.7117,0.7117,0.7117,0.7117,0.7117,0.7117,0.7117,0.7117,0.7117,0.7117,0.7117,0.7117,0.7117,0.7117,0.7117,0.7117,0.7228,0.7797,0.9139,1.0325,1.1359,1.2553,1.3631,1.4109,1.4109,1.4109,1.4109,1.4109,1.4109,1.4109,1.4109,1.4109,1.4109,1.4109,1.4109,1.4109,1.4109,1.4109,1.4109,1.4109,1.4109,1.4109,1.4109,1.4109,1.4109,1.4109,1.4109,1.4109,1.4109,1.4109,1.4109,1.4109,1.425,1.5587,1.7009,1.7658,1.863,1.9844,2.0352,2.0547,2.0791,2.1093,2.1503,2.1855,2.2187,2.2469,2.2207,2.1973,2.2158,2.2334,2.2518,2.2684,2.2888,2.3006,2.3062,2.3101,2.3101,2.3101,2.3101,2.3101,2.3101,2.3101,2.3101,2.3101,2.3101,2.3101,2.3101,2.3101,2.3101,2.3101,2.3101,2.3101,2.3101,2.3101,2.3101,2.3101,2.3101,0.7117,0.7117,0.7117,0.7117,0.7117,0.7117,0.7117,0.7117,0.7117,0.7117,0.7117,0.7117,0.7117,0.7117,0.7117,0.7117,0.7117,0.7117,0.7117,0.7117,0.7117,0.7117,0.7117,0.7117,0.7117,0.7117,0.7117,0.7117,0.7117,0.7117,0.7117,0.7117,0.7117,0.7117,0.7379,0.8299,0.9597,1.0994,1.1858,1.2914,1.3934,1.4109,1.4109,1.4109,1.4109,1.4109,1.4109,1.4109,1.4109,1.4109,1.4109,1.4109,1.4109,1.4109,1.4109,1.4109,1.4109,1.4109,1.4109,1.4109,1.4109,1.4109,1.4109,1.4109,1.4109,1.4109,1.4109,1.4109,1.4109,1.413,1.425,1.5835,1.7029,1.7646,1.9294,2.0469,2.0489,2.0605,2.0859,2.1142,2.1582,2.1992,2.2383,2.2674,2.2693,2.2488,2.2586,2.2693,2.2762,2.2898,2.3015,2.3062,2.3081,2.3101,2.3101,2.3101,2.3101,2.3101,2.3101,2.3101,2.3101,2.3101,2.3101,2.3101,2.3101,2.3101,2.3101,2.3101,2.3101,2.3101,2.3101,2.3101,2.3101,2.3101,2.3101,0.7117,0.7117,0.7117,0.7117,0.7117,0.7117,0.7117,0.7117,0.7117,0.7117,0.7117,0.7117,0.7117,0.7117,0.7117,0.7117,0.7117,0.7117,0.7117,0.7117,0.7117,0.7117,0.7117,0.7117,0.7117,0.7117,0.7117,0.7117,0.7117,0.7117,0.7117,0.7117,0.7117,0.7228,0.725,0.8321,1.0053,1.1901,1.2242,1.316,1.3843,1.4109,1.4109,1.4109,1.4109,1.4109,1.4109,1.4109,1.4109,1.4109,1.4109,1.4109,1.4109,1.4109,1.4109,1.4109,1.4109,1.4109,1.4109,1.4109,1.4109,1.4109,1.4109,1.4109,1.4109,1.4109,1.4109,1.4109,1.4109,1.4173,1.4866,1.5918,1.6874,1.8069,1.9717,2.0596,2.0596,2.0625,2.085,2.1162,2.1621,2.2051,2.2471,2.2801,2.2996,2.3003,2.3052,2.3062,2.3003,2.3023,2.3091,2.3101,2.3101,2.3101,2.3101,2.3101,2.3101,2.3101,2.3101,2.3101,2.3101,2.3101,2.3101,2.3101,2.3101,2.3101,2.3101,2.3101,2.3101,2.3101,2.3101,2.3101,2.3101,2.3101,2.3101,0.7117,0.7117,0.7117,0.7117,0.7117,0.7117,0.7117,0.7117,0.7117,0.7117,0.7117,0.7117,0.7117,0.7117,0.7117,0.7117,0.7117,0.7117,0.7117,0.7117,0.7117,0.7117,0.7117,0.7117,0.7117,0.7117,0.7117,0.7117,0.7117,0.7117,0.7117,0.7117,0.7161,0.7577,0.8382,0.9471,1.0891,1.22,1.2984,1.3752,1.406,1.4109,1.4109,1.4109,1.4109,1.4109,1.4109,1.4109,1.4109,1.4109,1.4109,1.4109,1.4109,1.4109,1.4109,1.4109,1.4109,1.4109,1.4109,1.4109,1.4109,1.4109,1.4109,1.4109,1.4109,1.4109,1.4109,1.4109,1.4109,1.4377,1.5345,1.6404,1.7435,1.855,1.9795,2.0411,2.0615,2.0625,2.0762,2.1182,2.1621,2.2246,2.2723,2.2879,2.3033,2.3101,2.3101,2.3101,2.3052,2.3062,2.3101,2.3101,2.3101,2.3101,2.3101,2.3101,2.3101,2.3101,2.3101,2.3101,2.3101,2.3101,2.3101,2.3101,2.3101,2.3101,2.3101,2.3101,2.3101,2.3101,2.3101,2.3101,2.3101,2.3101,2.3101,0.7117,0.7117,0.7117,0.7117,0.7117,0.7117,0.7117,0.7117,0.7117,0.7117,0.7117,0.7117,0.7117,0.7117,0.7117,0.7117,0.7117,0.7117,0.7117,0.7117,0.7117,0.7117,0.7117,0.7117,0.7117,0.7117,0.7117,0.7117,0.7117,0.7117,0.7117,0.7117,0.7161,0.8097,0.9144,1.033,1.1386,1.2659,1.3709,1.3997,1.4109,1.4109,1.4109,1.4109,1.4109,1.4109,1.4109,1.4109,1.4109,1.4109,1.4109,1.4109,1.4109,1.4109,1.4109,1.4109,1.4109,1.4109,1.4109,1.4109,1.4109,1.4109,1.4109,1.4109,1.4109,1.4109,1.4109,1.4109,1.413,1.4755,1.5649,1.6744,1.7839,1.8957,1.9795,2.043,2.0615,2.0625,2.0683,2.1094,2.167,2.2324,2.2908,2.2996,2.3091,2.3101,2.3101,2.3101,2.3101,2.3101,2.3101,2.3101,2.3101,2.3101,2.3101,2.3101,2.3101,2.3101,2.3101,2.3101,2.3101,2.3101,2.3101,2.3101,2.3101,2.3101,2.3101,2.3101,2.3101,2.3101,2.3101,2.3101,2.3101,2.3101,2.3101,0.7117,0.7117,0.7117,0.7117,0.7117,0.7117,0.7117,0.7117,0.7117,0.7117,0.7117,0.7117,0.7117,0.7117,0.7117,0.7117,0.7117,0.7117,0.7117,0.7117,0.7117,0.7117,0.7117,0.7117,0.7117,0.7117,0.7117,0.7117,0.7117,0.7117,0.7117,0.7117,0.7117,0.8229,0.9488,1.0546,1.1756,1.323,1.3913,1.4109,1.4109,1.4109,1.4109,1.4109,1.4109,1.4109,1.4109,1.4109,1.4109,1.4109,1.4109,1.4109,1.4109,1.4109,1.4109,1.4109,1.4109,1.4109,1.4109,1.4109,1.4109,1.4109,1.4109,1.4109,1.4109,1.4109,1.4109,1.4229,1.4349,1.504,1.5807,1.6927,1.8049,1.9056,2.0021,2.0401,2.0566,2.0605,2.0644,2.1026,2.1641,2.2266,2.2898,2.3091,2.3101,2.3101,2.3101,2.3101,2.3101,2.3101,2.3101,2.3101,2.3101,2.3101,2.3101,2.3101,2.3101,2.3101,2.3101,2.3101,2.3101,2.3101,2.3101,2.3101,2.3101,2.3101,2.3101,2.3101,2.3101,2.3101,2.3101,2.3101,2.3101,2.3101,2.3101,0.7117,0.7117,0.7117,0.7117,0.7117,0.7117,0.7117,0.7117,0.7117,0.7117,0.7117,0.7117,0.7117,0.7117,0.7117,0.7117,0.7117,0.7117,0.7117,0.7117,0.7117,0.7117,0.7117,0.7117,0.7117,0.7117,0.7117,0.7117,0.7117,0.7117,0.7117,0.7117,0.725,0.8273,0.9292,1.0221,1.2083,1.347,1.406,1.4109,1.4109,1.4109,1.4109,1.4109,1.4109,1.4109,1.4109,1.4109,1.4109,1.4109,1.4109,1.4109,1.4109,1.4109,1.4109,1.4109,1.4109,1.4109,1.4109,1.4109,1.4109,1.4109,1.4109,1.4109,1.4109,1.4109,1.4109,1.4229,1.4755,1.5504,1.6457,1.7557,1.863,1.9658,2.0362,2.0469,2.0596,2.0605,2.0674,2.1191,2.1797,2.2363,2.2967,2.3101,2.3101,2.3101,2.3101,2.3101,2.3101,2.3101,2.3101,2.3101,2.3101,2.3101,2.3101,2.3101,2.3101,2.3101,2.3101,2.3101,2.3101,2.3101,2.3101,2.3101,2.3101,2.3101,2.3101,2.3101,2.3101,2.3101,2.3101,2.3101,2.3101,2.3101,2.3123,0.7117,0.7117,0.7117,0.7117,0.7117,0.7117,0.7117,0.7117,0.7117,0.7117,0.7117,0.7117,0.7117,0.7117,0.7117,0.7117,0.7117,0.7117,0.7117,0.7117,0.7117,0.7117,0.7117,0.7117,0.7117,0.7117,0.7117,0.7117,0.7117,0.7117,0.7117,0.7161,0.7423,0.847,0.964,1.0913,1.2297,1.3455,1.4109,1.4109,1.4109,1.4109,1.4109,1.4109,1.4109,1.4109,1.4109,1.4109,1.4109,1.4109,1.4109,1.4109,1.4109,1.4109,1.4109,1.4109,1.4109,1.4109,1.4109,1.4109,1.4109,1.4109,1.4109,1.4109,1.4109,1.4109,1.4109,1.4208,1.5158,1.6108,1.7212,1.829,1.9382,2.045,2.0527,2.0586,2.0596,2.0596,2.0957,2.1454,2.2001,2.2557,2.2908,2.3035,2.3101,2.3101,2.3101,2.3101,2.3101,2.3101,2.3101,2.3101,2.3101,2.3101,2.3101,2.3101,2.3101,2.3101,2.3101,2.3101,2.3101,2.3101,2.3101,2.3101,2.3101,2.3101,2.3101,2.3101,2.3101,2.3113,2.3157,2.32,2.3178,2.3101,2.3123,0.7117,0.7117,0.7117,0.7117,0.7117,0.7117,0.7117,0.7117,0.7117,0.7117,0.7117,0.7117,0.7117,0.7117,0.7117,0.7117,0.7117,0.7117,0.7117,0.7117,0.7117,0.7117,0.7117,0.7117,0.7117,0.7117,0.7117,0.7117,0.7117,0.7139,0.7183,0.7268,0.8211,0.9235,1.0308,1.1445,1.2574,1.3294,1.3906,1.4109,1.4109,1.4109,1.4109,1.4109,1.4109,1.4109,1.4109,1.4109,1.4109,1.4109,1.4109,1.4109,1.4109,1.4109,1.4109,1.4109,1.4109,1.4109,1.4109,1.4109,1.4109,1.4109,1.4109,1.4109,1.4109,1.4109,1.4109,1.4454,1.5304,1.6293,1.7354,1.8709,1.9903,2.045,2.0566,2.0596,2.0596,2.0781,2.129,2.1757,2.2274,2.2781,2.2986,2.3101,2.3101,2.3101,2.3101,2.3101,2.3101,2.3101,2.3101,2.3101,2.3101,2.3101,2.3101,2.3101,2.3101,2.3101,2.3101,2.3101,2.3101,2.3101,2.3101,2.3101,2.3101,2.3101,2.3101,2.3113,2.3135,2.3178,2.3222,2.3299,2.3343,2.3539,2.3616,0.7117,0.7117,0.7117,0.7117,0.7117,0.7117,0.7117,0.7117,0.7117,0.7117,0.7117,0.7117,0.7117,0.7117,0.7117,0.7117,0.7117,0.7117,0.7117,0.7117,0.7117,0.7117,0.7117,0.7117,0.7117,0.7117,0.7117,0.7117,0.7139,0.7228,0.7647,0.8364,0.9082,0.9836,1.0783,1.1901,1.2744,1.3252,1.3758,1.4067,1.4109,1.4109,1.4109,1.4109,1.4109,1.4109,1.4109,1.4109,1.4109,1.4109,1.4109,1.4109,1.4109,1.4109,1.4109,1.4109,1.4109,1.4109,1.4109,1.4109,1.4109,1.4109,1.4109,1.4109,1.4109,1.4109,1.4292,1.4741,1.549,1.6527,1.7597,1.9007,2.0206,2.043,2.0596,2.0596,2.0605,2.1084,2.1583,2.2041,2.2527,2.284,2.3033,2.3101,2.3101,2.3101,2.3101,2.3101,2.3101,2.3101,2.3101,2.3101,2.3101,2.3101,2.3101,2.3101,2.3101,2.3101,2.3101,2.3101,2.3101,2.3101,2.3101,2.3101,2.3101,2.3101,2.3113,2.3157,2.3178,2.3387,2.3973,2.4318,2.4659,2.4893,2.4808,0.7117,0.7117,0.7117,0.7117,0.7117,0.7117,0.7117,0.7117,0.7117,0.7117,0.7117,0.7117,0.7117,0.7117,0.7117,0.7117,0.7117,0.7117,0.7117,0.7117,0.7117,0.7117,0.7117,0.7117,0.7117,0.7117,0.7117,0.7117,0.725,0.7797,0.8408,0.9104,0.9645,1.0675,1.1509,1.2398,1.3033,1.3182,1.3822,1.4039,1.4109,1.4109,1.4109,1.4109,1.4109,1.4109,1.4109,1.4109,1.4109,1.4109,1.4109,1.4109,1.4109,1.4109,1.4109,1.4109,1.4109,1.4109,1.4109,1.4109,1.4109,1.4109,1.4109,1.4109,1.4109,1.4109,1.4109,1.4615,1.6083,1.718,1.7819,1.9027,2.004,2.0547,2.0596,2.0596,2.084,2.125,2.1622,2.1935,2.2461,2.2955,2.3101,2.3101,2.3101,2.3101,2.3101,2.3101,2.3101,2.3101,2.3101,2.3101,2.3101,2.3101,2.3101,2.3101,2.3101,2.3101,2.3101,2.3101,2.3101,2.3101,2.3101,2.3101,2.3101,2.3101,2.3113,2.3398,2.3779,2.4135,2.484,2.5546,2.586,2.6182,2.6233,0.7117,0.7117,0.7117,0.7117,0.7117,0.7117,0.7117,0.7117,0.7117,0.7117,0.7117,0.7117,0.7117,0.7117,0.7117,0.7117,0.7117,0.7117,0.7117,0.7117,0.7117,0.7117,0.7117,0.7117,0.7117,0.7117,0.7117,0.7338,0.7577,0.8233,0.893,0.9623,1.0913,1.2376,1.2787,1.3379,1.3913,1.3843,1.4067,1.4088,1.4109,1.4109,1.4109,1.4109,1.4109,1.4109,1.4109,1.4109,1.4109,1.4109,1.4109,1.4109,1.4109,1.4109,1.4109,1.4109,1.4109,1.4109,1.4109,1.4109,1.4109,1.4109,1.4109,1.4109,1.4109,1.4109,1.4109,1.4824,1.6288,1.7403,1.804,1.9047,2.0021,2.0596,2.0596,2.0664,2.1035,2.1396,2.169,2.1954,2.2471,2.3045,2.3101,2.3101,2.3101,2.3101,2.3101,2.3101,2.3101,2.3101,2.3101,2.3101,2.3101,2.3101,2.3101,2.3101,2.3101,2.3101,2.3101,2.3101,2.3101,2.3101,2.3101,2.3101,2.3101,2.3244,2.3681,2.407,2.4457,2.4957,2.589,2.6676,2.6892,2.7209,2.7614,0.7117,0.7117,0.7117,0.7117,0.7117,0.7117,0.7117,0.7117,0.7117,0.7117,0.7117,0.7117,0.7117,0.7117,0.7117,0.7117,0.7117,0.7117,0.7117,0.7117,0.7117,0.7117,0.7117,0.7117,0.7117,0.7117,0.7228,0.7665,0.8145,0.8759,0.9906,1.145,1.1702,1.2808,1.3709,1.4109,1.4109,1.4109,1.4109,1.4109,1.4109,1.4109,1.4109,1.4109,1.4109,1.4109,1.4109,1.4109,1.4109,1.4109,1.4109,1.4109,1.4109,1.4109,1.4109,1.4109,1.4109,1.4109,1.4109,1.4109,1.4109,1.4109,1.4109,1.4109,1.4109,1.4109,1.4208,1.4454,1.578,1.7037,1.796,1.9491,2.0557,2.0586,2.0596,2.081,2.1113,2.1543,2.1914,2.2275,2.2725,2.3015,2.3101,2.3101,2.3101,2.3101,2.3101,2.3101,2.3101,2.3101,2.3101,2.3101,2.3101,2.3101,2.3101,2.3101,2.3101,2.3101,2.3101,2.3101,2.3101,2.3101,2.3113,2.3408,2.3485,2.3584,2.406,2.502,2.5462,2.6077,2.7084,2.7815,2.7988,2.8199,2.8549]},{"header":{"parameterUnit":"m.s-1","parameterCategory":1,"la1":31.0,"la2":29.5877,"lo1":-88.7671,"lo2":-86.6584,"dy":0.0162,"dx":0.0185,"nx":115,"ny":88,"refTime":"2023-04-30T06:00:00:Z","depth":0,"parameterNumber":3,"parameterNumberName":"V-component_of_WINDS"},"data":[0.0,0.0,0.0,0.0,0.0,0.0,0.0,0.0,0.0,0.0,0.0,0.0,0.0,0.0,0.0,0.0,0.0,0.0,0.0,0.0,0.0,0.0,0.0,0.0,0.0,0.0,0.0,0.0,0.0,0.0,0.0,0.0,0.0,0.0,0.0,0.0,0.0,0.0,0.0,0.0,0.0,0.0,0.0,0.0,0.0,0.0,0.0,0.0,0.0,0.0,0.0,0.0,0.0,0.0,0.0,0.0,0.0,0.0,0.0,0.0,0.0,0.0,0.0,0.0,0.0,0.0,0.0,0.0,0.0,0.0,0.0,0.0,0.0,0.0,0.0,0.0,0.0,0.0,0.0,0.0,0.0,0.0,0.0,0.0,0.0,0.0,0.0,0.0,0.0,0.0,0.0,0.0,0.0,0.0,0.0,0.0,0.0,0.0,0.0,0.0,0.0,0.0,0.0,0.0,0.0,0.0,0.0,0.0,0.0,0.0,0.0,0.0,0.0,0.0,0.0,0.0,0.0,0.0,0.0,0.0,0.0,0.0,0.0,0.0,0.0,0.0,0.0,0.0,0.0,0.0,0.0,0.0,0.0,0.0,0.0,0.0,0.0,0.0,0.0,0.0,0.0,0.0,0.0,0.0,0.0,0.0,0.0,0.0,0.0,0.0,0.0,0.0,0.0,0.0,0.0,0.0,0.0,0.0,0.0,0.0,0.0,0.0,0.0,0.0,0.0,0.0,0.0,0.0,0.0,0.0,0.0,0.0,0.0,0.0,0.0,0.0,0.0,0.0,0.0,0.0,0.0,0.0,0.0,0.0,0.0,0.0,0.0,0.0,0.0,0.0,0.0,0.0,0.0,0.0,0.0,0.0,0.0,0.0,0.0,0.0,0.0,0.0,0.0,0.0,0.0,0.0,0.0,0.0,0.0,0.0,0.0,0.0,0.0,0.0,0.0,0.0,0.0,0.0,0.0,0.0,0.0,0.0,0.0,0.0,0.0,0.0,0.0,0.0,0.0,0.0,0.0,0.0,0.0,0.0,0.0,0.0,0.0,0.0,0.0,0.0,0.0,0.0,0.0,0.0,0.0,0.0,0.0,0.0,0.0,0.0,0.0,0.0,0.0,0.0,0.0,0.0,0.0,0.0,0.0,0.0,0.0,0.0,0.0,0.0,0.0,0.0,0.0,0.0,0.0,0.0,0.0,0.0,0.0,0.0,0.0,0.0,0.0,0.0,0.0,0.0,0.0,0.0,0.0,0.0,0.0,0.0,0.0,0.0,0.0,0.0,0.0,0.0,0.0,0.0,0.0,0.0,0.0,0.0,0.0,0.0,0.0,0.0,0.0,0.0,0.0,0.0,0.0,0.0,0.0,0.0,0.0,0.0,0.0,0.0,0.0,0.0,0.0,0.0,0.0,0.0,0.0,0.0,0.0,0.0,0.0,0.0,0.0,0.0,0.0,0.0,0.0,0.0,0.0,0.0,0.0,0.0,0.0,0.0,0.0,0.0,0.0,0.0,0.0,0.0,0.0,0.0,0.0,0.0,0.0,0.0,0.0,0.0,0.0,0.0,0.0,0.0,0.0,0.0,0.0,0.0,0.0,0.0,0.0,0.0,0.0,0.0,0.0,0.0,0.0,0.0,0.0,0.0,0.0,0.0,0.0,0.0,0.0,0.0,0.0,0.0,0.0,0.0,0.0,0.0,0.0,0.0,0.0,0.0,0.0,0.0,0.0,0.0,0.0,0.0,0.0,0.0,0.0,0.0,0.0,0.0,0.0,0.0,0.0,0.0,0.0,0.0,0.0,0.0,0.0,0.0,0.0,0.0,0.0,0.0,0.0,0.0,0.0,0.0,0.0,0.0,0.0,0.0,0.0,0.0,0.0,0.0,0.0,0.0,0.0,0.0,0.0,0.0,0.0,0.0,0.0,0.0,0.0,0.0,0.0,0.0,0.0,0.0,0.0,0.0,0.0,0.0,0.0,0.0,0.0,0.0,0.0,0.0,0.0,0.0,0.0,0.0,0.0,0.0,0.0,0.0,0.0,0.0,0.0,0.0,0.0,0.0,0.0,0.0,0.0,0.0,0.0,0.0,0.0,0.0,0.0,0.0,0.0,0.0,0.0,0.0,0.0,0.0,0.0,0.0,0.0,0.0,0.0,0.0,0.0,0.0,0.0,0.0,0.0,0.0,0.0,0.0,0.0,0.0,0.0,0.0,0.0,0.0,0.0,0.0,0.0,0.0,0.0,0.0,0.0,0.0,0.0,0.0,0.0,0.0,0.0,0.0,0.0,0.0,0.0,0.0,0.0,0.0,0.0,0.0,0.0,0.0,0.0,0.0,0.0,0.0,0.0,0.0,0.0,0.0,0.0,0.0,0.0,0.0,0.0,0.0,0.0,0.0,0.0,0.0,0.0,0.0,0.0,0.0,0.0,0.0,0.0,0.0,0.0,0.0,0.0,0.0,0.0,0.0,0.0,0.0,0.0,0.0,0.0,0.0,0.0,0.0,0.0,0.0,0.0,0.0,0.0,0.0,0.0,0.0,0.0,0.0,0.0,0.0,0.0,0.0,0.0,0.0,0.0,0.0,0.0,0.0,0.0,0.0,0.0,0.0,0.0,0.0,0.0,0.0,0.0,0.0,0.0,0.0,0.0,0.0,0.0,0.0,0.0,0.0,0.0,0.0,0.0,0.0,0.0,0.0,0.0,0.0,0.0,0.0,0.0,0.0,0.0,0.0,0.0,0.0,0.0,0.0,0.0,0.0,0.0,0.0,0.0,0.0,0.0,0.0,0.0,0.0,0.0,0.0,0.0,0.0,0.0,0.0,0.0,0.0,0.0,0.0,0.0,0.0,0.0,0.0,0.0,0.0,0.0,0.0,0.0,0.0,0.0,0.0,0.0,0.0,0.0,0.0,0.0,0.0,0.0,0.0,0.0,0.0,0.0,0.0,0.0,0.0,0.0,0.0,0.0,0.0,0.0,0.0,0.0,0.0,0.0,0.0,0.0,0.0,0.0,0.0,0.0,0.0,0.0,0.0,0.0,0.0,0.0,0.0,0.0,0.0,0.0,0.0,0.0,0.0,0.0,0.0,0.0,0.0,0.0,0.0,0.0,0.0,0.0,0.0,0.0,0.0,0.0,0.0,0.0,0.0,0.0,0.0,0.0,0.0,0.0,0.0,0.0,0.0,0.0,0.0,0.0,0.0,0.0,0.0,0.0,0.0,0.0,0.0,0.0,0.0,0.0,0.0,0.0,0.0,0.0,0.0,0.0,0.0,0.0,0.0,0.0,0.0,0.0,0.0,0.0,0.0,0.0,0.0,0.0,0.0,0.0,0.0,0.0,0.0,0.0,0.0,0.0,0.0,0.0,0.0,0.0,0.0,0.0,0.0,0.0,0.0,0.0,0.0,0.0,0.0,0.0,0.0,0.0,0.0,0.0,0.0,0.0,0.0,0.0,0.0,0.0,0.0,0.0,0.0,0.0,0.0,0.0,0.0,0.0,0.0,0.0,0.0,0.0,0.0,0.0,0.0,0.0,0.0,0.0,0.0,0.0,0.0,0.0,0.0,0.0,0.0,0.0,0.0,0.0,0.0,0.0,0.0,0.0,0.0,0.0,0.0,0.0,0.0,0.0,0.0,0.0,0.0,0.0,0.0,0.0,0.0,0.0,0.0,0.0,0.0,0.0,0.0,0.0,0.0,0.0,0.0,0.0,0.0,0.0,0.0,0.0,0.0,0.0,0.0,0.0,0.0,0.0,0.0,0.0,0.0,0.0,0.0,0.0,0.0,0.0,0.0,0.0,0.0,0.0,0.0,0.0,0.0,0.0,0.0,0.0,0.0,0.0,0.0,0.0,0.0,0.0,0.0,0.0,0.0,0.0,0.0,0.0,0.0,0.0,0.0,0.0,0.0,0.0,0.0,0.0,0.0,0.0,0.0,0.0,0.0,0.0,0.0,0.0,0.0,0.0,0.0,0.0,0.0,0.0,0.0,0.0,0.0,0.0,0.0,0.0,0.0,0.0,0.0,0.0,0.0,0.0,0.0,0.0,0.0,0.0,0.0,0.0,0.0,0.0,0.0,0.0,0.0,0.0,0.0,0.0,0.0,0.0,0.0,0.0,0.0,0.0,0.0,0.0,0.0,0.0,0.0,0.0,0.0,0.0,0.0,0.0,0.0,0.0,0.0,0.0,0.0,0.0,0.0,0.0,0.0,0.0,0.0,0.0,0.0,0.0,0.0,0.0,0.0,0.0,0.0,0.0,0.0,0.0,0.0,2.4194,0.0,0.0,0.0,0.0,0.0,0.0,0.0,0.0,0.0,0.0,0.0,0.0,0.0,0.0,0.0,0.0,0.0,0.0,0.0,0.0,0.0,0.0,0.0,0.0,0.0,0.0,0.0,0.0,0.0,0.0,0.0,0.0,0.0,0.0,0.0,0.0,0.0,0.0,0.0,0.0,0.0,0.0,0.0,0.0,0.0,0.0,0.0,0.0,0.0,0.0,0.0,0.0,0.0,0.0,0.0,0.0,0.0,0.0,0.0,0.0,0.0,0.0,0.0,0.0,0.0,0.0,0.0,0.0,0.0,0.0,0.0,0.0,0.0,0.0,0.0,0.0,0.0,0.0,0.0,0.0,0.0,0.0,0.0,0.0,0.0,0.0,0.0,0.0,0.0,0.0,0.0,0.0,0.0,0.0,0.0,0.0,0.0,0.0,0.0,0.0,0.0,0.0,0.0,0.0,0.0,0.0,0.0,0.0,0.0,0.0,2.4194,2.4194,2.4194,2.4194,2.4194,0.0,0.0,0.0,0.0,0.0,0.0,0.0,0.0,0.0,0.0,0.0,0.0,0.0,0.0,0.0,0.0,0.0,0.0,0.0,0.0,0.0,0.0,0.0,0.0,0.0,0.0,0.0,0.0,0.0,0.0,0.0,0.0,0.0,0.0,0.0,0.0,0.0,0.0,0.0,0.0,0.0,0.0,0.0,0.0,0.0,0.0,0.0,0.0,0.0,0.0,0.0,0.0,0.0,0.0,0.0,0.0,0.0,0.0,0.0,0.0,0.0,0.0,0.0,0.0,0.0,0.0,0.0,0.0,0.0,0.0,0.0,0.0,0.0,0.0,0.0,0.0,0.0,0.0,0.0,0.0,0.0,0.0,0.0,0.0,0.0,0.0,0.0,0.0,0.0,0.0,0.0,0.0,0.0,0.0,0.0,0.0,0.0,0.0,0.0,0.0,0.0,0.0,0.0,0.0,0.0,0.0,0.0,0.0,0.0,0.0,0.0,0.0,2.4194,2.4194,2.4194,0.0,0.0,0.0,0.0,0.0,0.0,0.0,0.0,0.0,0.0,0.0,0.0,0.0,0.0,0.0,0.0,0.0,0.0,0.0,0.0,0.0,0.0,0.0,0.0,0.0,0.0,0.0,0.0,0.0,0.0,0.0,0.0,0.0,0.0,0.0,0.0,0.0,0.0,0.0,0.0,0.0,0.0,0.0,0.0,0.0,0.0,0.0,0.0,0.0,0.0,0.0,0.0,0.0,0.0,0.0,0.0,0.0,0.0,0.0,0.0,0.0,0.0,0.0,0.0,0.0,0.0,0.0,0.0,0.0,0.0,0.0,0.0,0.0,0.0,0.0,0.0,0.0,0.0,0.0,0.0,0.0,0.0,0.0,0.0,0.0,0.0,0.0,0.0,0.0,0.0,0.0,0.0,0.0,0.0,0.0,0.0,0.0,0.0,0.0,0.0,0.0,0.0,0.0,0.0,0.0,0.0,0.0,0.0,0.0,0.0,2.4194,2.4194,2.4194,0.0,2.4194,0.0,0.0,0.0,0.0,0.0,0.0,0.0,0.0,0.0,0.0,0.0,0.0,0.0,0.0,0.0,0.0,0.0,0.0,0.0,0.0,0.0,0.0,0.0,0.0,0.0,0.0,0.0,0.0,0.0,0.0,0.0,0.0,0.0,0.0,0.0,0.0,0.0,0.0,0.0,0.0,0.0,0.0,0.0,0.0,0.0,0.0,0.0,0.0,0.0,0.0,0.0,0.0,0.0,0.0,0.0,0.0,0.0,0.0,0.0,0.0,0.0,0.0,0.0,0.0,0.0,0.0,0.0,0.0,0.0,0.0,0.0,0.0,0.0,0.0,0.0,0.0,0.0,0.0,0.0,0.0,0.0,0.0,0.0,0.0,0.0,0.0,0.0,0.0,0.0,0.0,0.0,0.0,0.0,0.0,0.0,0.0,0.0,0.0,0.0,0.0,0.0,0.0,0.0,0.0,0.0,0.0,0.0,0.0,0.0,0.0,2.4194,2.4194,2.4194,2.4194,0.0,0.0,0.0,0.0,0.0,0.0,0.0,0.0,0.0,0.0,0.0,0.0,0.0,0.0,0.0,0.0,0.0,0.0,0.0,0.0,0.0,0.0,0.0,0.0,0.0,0.0,0.0,0.0,0.0,0.0,0.0,0.0,0.0,0.0,0.0,0.0,0.0,0.0,0.0,0.0,0.0,0.0,0.0,0.0,0.0,0.0,0.0,0.0,0.0,0.0,0.0,0.0,0.0,0.0,0.0,0.0,0.0,0.0,0.0,0.0,0.0,0.0,0.0,0.0,0.0,0.0,0.0,0.0,0.0,0.0,0.0,0.0,0.0,0.0,0.0,0.0,0.0,0.0,0.0,0.0,0.0,0.0,0.0,0.0,0.0,0.0,0.0,0.0,0.0,0.0,0.0,0.0,0.0,0.0,0.0,0.0,0.0,0.0,0.0,0.0,0.0,0.0,0.0,0.0,0.0,0.0,0.0,0.0,0.0,0.0,2.4194,2.4194,2.4194,2.4194,2.4194,2.4194,0.0,0.0,0.0,0.0,0.0,0.0,0.0,0.0,0.0,0.0,0.0,0.0,0.0,0.0,0.0,0.0,0.0,0.0,0.0,0.0,0.0,0.0,0.0,0.0,0.0,0.0,0.0,0.0,0.0,0.0,0.0,0.0,0.0,0.0,0.0,0.0,0.0,0.0,0.0,0.0,0.0,0.0,0.0,0.0,0.0,0.0,0.0,0.0,0.0,0.0,0.0,0.0,0.0,0.0,0.0,0.0,0.0,0.0,0.0,0.0,0.0,0.0,0.0,0.0,0.0,0.0,0.0,0.0,0.0,0.0,0.0,0.0,0.0,0.0,0.0,0.0,0.0,0.0,0.0,0.0,0.0,0.0,0.0,0.0,0.0,0.0,0.0,0.0,0.0,0.0,0.0,0.0,0.0,0.0,0.0,0.0,0.0,0.0,0.0,0.0,0.0,0.0,0.0,0.0,0.0,0.0,0.0,0.0,2.4204,2.4194,2.4194,2.4204,2.4194,2.4194,0.0,0.0,0.0,0.0,0.0,0.0,0.0,0.0,0.0,0.0,0.0,0.0,0.0,0.0,0.0,0.0,0.0,0.0,0.0,0.0,0.0,0.0,0.0,0.0,0.0,0.0,0.0,0.0,0.0,0.0,0.0,0.0,0.0,0.0,0.0,0.0,0.0,0.0,0.0,0.0,0.0,0.0,0.0,0.0,0.0,0.0,0.0,0.0,0.0,0.0,0.0,0.0,0.0,0.0,0.0,0.0,0.0,0.0,0.0,0.0,0.0,0.0,0.0,0.0,0.0,0.0,0.0,0.0,0.0,0.0,0.0,0.0,0.0,0.0,0.0,0.0,0.0,0.0,0.0,0.0,0.0,0.0,0.0,0.0,0.0,0.0,0.0,0.0,0.0,0.0,0.0,0.0,0.0,0.0,0.0,0.0,0.0,0.0,0.0,0.0,0.0,0.0,0.0,0.0,0.0,0.0,0.0,0.0,0.0,2.4199,2.4194,2.4257,2.4384,2.4284,2.4247,0.0,0.0,0.0,0.0,0.0,0.0,0.0,0.0,0.0,0.0,0.0,0.0,0.0,0.0,0.0,0.0,0.0,0.0,0.0,0.0,0.0,0.0,0.0,0.0,0.0,0.0,0.0,0.0,0.0,0.0,0.0,0.0,0.0,0.0,0.0,0.0,0.0,0.0,0.0,0.0,0.0,0.0,0.0,0.0,0.0,0.0,0.0,0.0,0.0,0.0,0.0,0.0,0.0,0.0,0.0,0.0,0.0,0.0,0.0,0.0,0.0,0.0,0.0,0.0,0.0,0.0,0.0,0.0,0.0,0.0,0.0,0.0,0.0,0.0,0.0,0.0,0.0,0.0,0.0,0.0,0.0,0.0,0.0,0.0,0.0,0.0,0.0,0.0,0.0,0.0,0.0,0.0,0.0,0.0,0.0,0.0,0.0,0.0,0.0,0.0,0.0,0.0,0.0,0.0,0.0,0.0,0.0,0.0,0.0,2.4387,0.0,2.4475,2.4579,2.4465,2.4457,0.0,0.0,0.0,0.0,0.0,0.0,0.0,0.0,0.0,0.0,0.0,0.0,0.0,0.0,0.0,0.0,0.0,0.0,0.0,0.0,0.0,0.0,0.0,0.0,0.0,0.0,0.0,0.0,0.0,0.0,0.0,0.0,0.0,0.0,0.0,0.0,0.0,0.0,0.0,0.0,0.0,0.0,0.0,0.0,0.0,0.0,0.0,0.0,0.0,0.0,0.0,0.0,0.0,0.0,0.0,0.0,0.0,0.0,0.0,0.0,0.0,0.0,0.0,0.0,0.0,0.0,0.0,0.0,0.0,0.0,0.0,0.0,0.0,0.0,0.0,0.0,0.0,0.0,0.0,0.0,0.0,0.0,0.0,0.0,0.0,0.0,0.0,0.0,0.0,0.0,0.0,0.0,0.0,0.0,0.0,0.0,0.0,0.0,0.0,0.0,0.0,0.0,0.0,0.0,0.0,0.0,0.0,0.0,2.4978,2.4778,2.4816,2.4866,2.4834,2.482,2.4834,0.0,0.0,0.0,0.0,0.0,0.0,0.0,0.0,0.0,0.0,0.0,0.0,0.0,0.0,0.0,0.0,0.0,0.0,0.0,0.0,0.0,0.0,0.0,0.0,0.0,0.0,0.0,0.0,0.0,0.0,0.0,0.0,0.0,0.0,0.0,0.0,0.0,0.0,0.0,0.0,0.0,0.0,0.0,0.0,0.0,0.0,0.0,0.0,0.0,0.0,0.0,0.0,0.0,0.0,0.0,0.0,0.0,0.0,0.0,0.0,0.0,0.0,0.0,0.0,0.0,0.0,0.0,0.0,0.0,0.0,0.0,0.0,0.0,0.0,0.0,0.0,0.0,0.0,0.0,0.0,0.0,0.0,0.0,0.0,0.0,0.0,0.0,0.0,0.0,0.0,0.0,0.0,0.0,0.0,0.0,0.0,0.0,0.0,0.0,0.0,0.0,0.0,0.0,0.0,0.0,0.0,0.0,0.0,0.0,2.4663,2.5677,2.6051,2.5665,2.5635,2.5697,0.0,0.0,0.0,0.0,0.0,0.0,0.0,0.0,0.0,0.0,0.0,0.0,0.0,0.0,0.0,0.0,0.0,0.0,0.0,0.0,0.0,0.0,0.0,0.0,0.0,0.0,0.0,0.0,0.0,0.0,0.0,0.0,0.0,0.0,0.0,0.0,0.0,0.0,0.0,0.0,0.0,0.0,0.0,0.0,0.0,0.0,0.0,0.0,0.0,0.0,0.0,0.0,0.0,0.0,0.0,0.0,0.0,0.0,0.0,0.0,0.0,0.0,0.0,0.0,0.0,0.0,0.0,0.0,0.0,0.0,0.0,0.0,0.0,0.0,0.0,0.0,0.0,0.0,0.0,0.0,0.0,0.0,0.0,0.0,0.0,0.0,0.0,0.0,0.0,0.0,0.0,0.0,0.0,0.0,0.0,0.0,0.0,0.0,0.0,0.0,0.0,0.0,0.0,0.0,0.0,0.0,0.0,0.0,0.0,2.5643,2.656,2.6947,2.6558,2.6547,2.6673,2.6862,0.0,0.0,0.0,0.0,0.0,0.0,0.0,0.0,0.0,0.0,0.0,0.0,0.0,0.0,0.0,0.0,0.0,0.0,0.0,0.0,0.0,0.0,0.0,0.0,0.0,0.0,0.0,0.0,0.0,0.0,0.0,0.0,0.0,0.0,0.0,0.0,0.0,0.0,0.0,0.0,0.0,0.0,0.0,0.0,0.0,0.0,0.0,0.0,0.0,0.0,0.0,0.0,0.0,0.0,0.0,0.0,0.0,0.0,0.0,0.0,0.0,0.0,0.0,0.0,0.0,0.0,0.0,0.0,0.0,0.0,0.0,0.0,0.0,0.0,0.0,0.0,0.0,0.0,0.0,0.0,0.0,0.0,0.0,0.0,0.0,0.0,0.0,0.0,0.0,0.0,0.0,0.0,0.0,0.0,0.0,0.0,0.0,0.0,0.0,0.0,0.0,0.0,0.0,0.0,0.0,0.0,0.0,0.0,2.7331,2.7509,2.7594,2.7548,2.7561,2.7698,0.0,0.0,0.0,0.0,0.0,0.0,0.0,0.0,0.0,0.0,0.0,0.0,0.0,0.0,0.0,0.0,0.0,0.0,0.0,0.0,0.0,0.0,0.0,0.0,0.0,0.0,0.0,0.0,0.0,0.0,0.0,0.0,0.0,0.0,0.0,0.0,0.0,0.0,0.0,0.0,0.0,0.0,0.0,0.0,0.0,0.0,0.0,0.0,0.0,0.0,0.0,0.0,0.0,0.0,0.0,0.0,0.0,0.0,0.0,0.0,0.0,0.0,0.0,0.0,0.0,0.0,0.0,0.0,0.0,0.0,0.0,0.0,0.0,0.0,0.0,0.0,0.0,0.0,0.0,0.0,0.0,0.0,0.0,0.0,0.0,0.0,0.0,0.0,0.0,0.0,0.0,0.0,0.0,0.0,0.0,0.0,0.0,0.0,0.0,0.0,0.0,0.0,0.0,0.0,0.0,0.0,0.0,0.0,0.0,2.8844,2.8868,2.8694,2.8259,2.8376,2.8568,0.0,0.0,0.0,0.0,0.0,0.0,0.0,0.0,0.0,0.0,0.0,0.0,0.0,0.0,0.0,0.0,0.0,0.0,0.0,0.0,0.0,0.0,0.0,0.0,0.0,0.0,0.0,0.0,0.0,0.0,0.0,0.0,0.0,0.0,0.0,0.0,0.0,0.0,0.0,0.0,0.0,0.0,0.0,0.0,0.0,0.0,0.0,0.0,0.0,0.0,0.0,0.0,0.0,0.0,0.0,0.0,0.0,0.0,0.0,0.0,0.0,0.0,0.0,0.0,0.0,0.0,0.0,0.0,0.0,0.0,0.0,0.0,0.0,0.0,0.0,0.0,0.0,0.0,0.0,0.0,0.0,0.0,0.0,0.0,0.0,0.0,0.0,0.0,0.0,0.0,0.0,0.0,0.0,0.0,0.0,0.0,0.0,0.0,0.0,0.0,0.0,0.0,0.0,0.0,0.0,0.0,0.0,0.0,2.957,2.9532,2.9514,2.9312,2.8899,2.9071,2.933,0.0,0.0,0.0,0.0,0.0,0.0,0.0,0.0,0.0,0.0,0.0,0.0,0.0,0.0,0.0,0.0,0.0,0.0,0.0,0.0,0.0,0.0,0.0,0.0,0.0,0.0,0.0,0.0,0.0,0.0,0.0,0.0,0.0,0.0,0.0,0.0,0.0,0.0,0.0,0.0,0.0,0.0,0.0,0.0,0.0,0.0,0.0,0.0,0.0,0.0,0.0,0.0,0.0,0.0,0.0,0.0,0.0,0.0,0.0,0.0,0.0,0.0,0.0,0.0,0.0,0.0,0.0,0.0,0.0,0.0,0.0,0.0,0.0,0.0,0.0,0.0,0.0,0.0,0.0,0.0,0.0,0.0,0.0,0.0,0.0,0.0,0.0,0.0,0.0,0.0,0.0,0.0,0.0,0.0,0.0,0.0,0.0,0.0,0.0,0.0,0.0,0.0,0.0,0.0,0.0,0.0,0.0,0.0,2.9504,2.9696,2.9678,2.9575,2.9463,2.9626,2.99,0.0,0.0,0.0,0.0,0.0,0.0,0.0,0.0,0.0,0.0,0.0,0.0,0.0,0.0,0.0,0.0,0.0,0.0,0.0,0.0,0.0,0.0,0.0,0.0,0.0,0.0,0.0,0.0,0.0,0.0,0.0,0.0,0.0,0.0,0.0,0.0,0.0,0.0,0.0,0.0,0.0,0.0,0.0,0.0,0.0,0.0,0.0,0.0,0.0,0.0,0.0,0.0,0.0,0.0,0.0,0.0,0.0,0.0,0.0,0.0,0.0,0.0,0.0,0.0,0.0,0.0,0.0,0.0,0.0,0.0,0.0,0.0,0.0,0.0,0.0,0.0,0.0,0.0,0.0,0.0,0.0,0.0,0.0,0.0,0.0,0.0,0.0,0.0,0.0,0.0,0.0,0.0,0.0,0.0,0.0,0.0,0.0,0.0,0.0,0.0,0.0,0.0,0.0,0.0,0.0,0.0,0.0,0.0,2.9656,2.9696,2.9556,2.9518,2.9625,2.9678,2.9817,0.0,0.0,0.0,0.0,0.0,0.0,0.0,0.0,0.0,0.0,0.0,0.0,0.0,0.0,0.0,0.0,0.0,0.0,0.0,0.0,0.0,0.0,0.0,0.0,0.0,0.0,0.0,0.0,0.0,0.0,0.0,0.0,0.0,0.0,0.0,0.0,0.0,0.0,0.0,0.0,0.0,0.0,0.0,0.0,0.0,0.0,0.0,0.0,2.8498,0.0,0.0,0.0,0.0,0.0,0.0,0.0,0.0,0.0,0.0,0.0,0.0,0.0,0.0,0.0,0.0,0.0,0.0,0.0,0.0,0.0,0.0,0.0,0.0,0.0,0.0,0.0,0.0,0.0,0.0,0.0,0.0,0.0,0.0,0.0,0.0,0.0,0.0,0.0,0.0,0.0,0.0,0.0,0.0,0.0,0.0,0.0,0.0,0.0,0.0,0.0,0.0,0.0,0.0,0.0,0.0,0.0,0.0,0.0,2.9756,2.9829,2.9657,2.9593,2.9696,2.9788,2.9845,0.0,0.0,0.0,0.0,0.0,0.0,0.0,0.0,0.0,0.0,0.0,0.0,0.0,0.0,0.0,0.0,0.0,0.0,0.0,0.0,0.0,0.0,0.0,0.0,0.0,0.0,0.0,0.0,0.0,0.0,0.0,0.0,0.0,0.0,0.0,0.0,0.0,0.0,0.0,0.0,0.0,0.0,0.0,0.0,0.0,0.0,0.0,0.0,0.0,0.0,0.0,0.0,0.0,0.0,0.0,0.0,0.0,0.0,0.0,0.0,0.0,0.0,0.0,0.0,0.0,0.0,0.0,0.0,0.0,0.0,0.0,0.0,0.0,0.0,0.0,0.0,0.0,0.0,0.0,0.0,0.0,0.0,0.0,0.0,0.0,0.0,0.0,0.0,0.0,0.0,0.0,0.0,0.0,0.0,0.0,0.0,0.0,0.0,0.0,0.0,0.0,0.0,0.0,0.0,0.0,0.0,0.0,2.9722,2.9796,2.9969,2.98,2.9722,2.9738,2.9916,2.9893,2.967,0.0,0.0,0.0,0.0,0.0,0.0,0.0,0.0,0.0,0.0,0.0,0.0,0.0,0.0,0.0,0.0,0.0,0.0,0.0,0.0,0.0,0.0,0.0,0.0,0.0,0.0,0.0,0.0,0.0,0.0,0.0,0.0,0.0,0.0,0.0,0.0,0.0,0.0,2.905,2.9089,0.0,0.0,0.0,0.0,0.0,0.0,0.0,0.0,2.8987,0.0,0.0,0.0,0.0,0.0,0.0,0.0,0.0,0.0,0.0,0.0,0.0,0.0,0.0,0.0,0.0,0.0,0.0,0.0,0.0,0.0,0.0,0.0,0.0,0.0,0.0,0.0,0.0,0.0,0.0,0.0,0.0,0.0,0.0,0.0,0.0,0.0,0.0,0.0,0.0,0.0,0.0,0.0,0.0,0.0,0.0,0.0,0.0,0.0,0.0,0.0,0.0,0.0,0.0,0.0,0.0,2.9931,2.9799,2.9815,2.9995,2.9796,2.9794,2.995,2.9988,2.9829,2.9513,0.0,0.0,0.0,0.0,0.0,0.0,0.0,0.0,0.0,0.0,0.0,0.0,0.0,0.0,0.0,0.0,0.0,0.0,0.0,0.0,0.0,0.0,0.0,0.0,0.0,0.0,0.0,0.0,0.0,0.0,0.0,0.0,0.0,0.0,0.0,0.0,0.0,0.0,0.0,2.9489,2.9542,0.0,0.0,0.0,0.0,0.0,0.0,0.0,0.0,2.8881,0.0,0.0,0.0,0.0,0.0,0.0,0.0,0.0,0.0,0.0,0.0,0.0,0.0,0.0,0.0,0.0,0.0,0.0,0.0,0.0,0.0,0.0,0.0,0.0,0.0,0.0,0.0,0.0,0.0,0.0,0.0,0.0,0.0,0.0,0.0,0.0,0.0,0.0,0.0,0.0,0.0,0.0,0.0,0.0,0.0,0.0,0.0,0.0,0.0,0.0,0.0,0.0,0.0,0.0,0.0,2.9864,2.9853,2.9853,2.9845,2.9761,2.9796,2.9995,2.9999,2.9908,0.0,0.0,0.0,0.0,0.0,0.0,0.0,0.0,0.0,0.0,0.0,0.0,0.0,0.0,0.0,0.0,0.0,0.0,0.0,0.0,0.0,0.0,0.0,0.0,0.0,0.0,0.0,0.0,0.0,0.0,0.0,0.0,0.0,0.0,0.0,0.0,0.0,0.0,0.0,0.0,2.9634,2.9705,2.9713,0.0,0.0,0.0,0.0,0.0,0.0,2.8987,2.8934,0.0,0.0,0.0,0.0,0.0,0.0,0.0,0.0,0.0,0.0,0.0,0.0,0.0,0.0,0.0,0.0,0.0,0.0,0.0,0.0,0.0,0.0,0.0,0.0,0.0,0.0,0.0,0.0,0.0,0.0,0.0,0.0,0.0,0.0,0.0,0.0,0.0,0.0,0.0,0.0,0.0,0.0,0.0,0.0,0.0,0.0,0.0,0.0,0.0,0.0,0.0,0.0,0.0,0.0,0.0,2.9647,2.975,2.9736,2.9638,2.9634,2.9746,2.9991,2.9999,2.9999,0.0,0.0,0.0,0.0,0.0,0.0,0.0,0.0,0.0,0.0,0.0,0.0,0.0,0.0,0.0,0.0,0.0,0.0,0.0,0.0,0.0,0.0,0.0,0.0,0.0,0.0,0.0,0.0,0.0,0.0,0.0,0.0,0.0,0.0,0.0,0.0,0.0,0.0,0.0,0.0,0.0,2.9884,2.998,2.9692,0.0,0.0,0.0,0.0,2.8987,2.8987,0.0,0.0,0.0,0.0,0.0,0.0,0.0,0.0,0.0,0.0,0.0,0.0,0.0,0.0,0.0,0.0,0.0,0.0,0.0,0.0,0.0,0.0,0.0,0.0,0.0,0.0,0.0,0.0,0.0,0.0,0.0,0.0,0.0,0.0,0.0,0.0,0.0,0.0,0.0,0.0,0.0,0.0,0.0,0.0,0.0,0.0,0.0,0.0,0.0,0.0,0.0,0.0,0.0,0.0,0.0,0.0,2.9434,2.9241,2.923,2.9419,2.9453,2.9621,2.9988,2.9999,2.9999,0.0,0.0,0.0,0.0,0.0,0.0,0.0,0.0,0.0,0.0,0.0,0.0,0.0,0.0,0.0,0.0,0.0,0.0,0.0,0.0,0.0,0.0,0.0,0.0,0.0,0.0,0.0,0.0,0.0,0.0,0.0,0.0,0.0,0.0,0.0,0.0,0.0,0.0,0.0,0.0,0.0,3.0241,3.0043,2.9823,2.9588,0.0,0.0,2.8987,2.8987,2.8987,0.0,0.0,0.0,0.0,0.0,0.0,0.0,0.0,0.0,0.0,0.0,0.0,0.0,0.0,0.0,0.0,0.0,0.0,0.0,0.0,0.0,0.0,0.0,0.0,0.0,0.0,0.0,0.0,0.0,0.0,0.0,0.0,0.0,0.0,0.0,0.0,0.0,0.0,0.0,0.0,0.0,0.0,0.0,0.0,0.0,0.0,0.0,0.0,0.0,0.0,0.0,0.0,0.0,0.0,0.0,3.1352,3.1011,3.1031,3.0805,3.0326,3.0307,3.0198,2.9995,2.9999,3.0075,0.0,0.0,0.0,0.0,0.0,0.0,0.0,0.0,0.0,0.0,0.0,0.0,0.0,0.0,0.0,0.0,0.0,0.0,0.0,0.0,0.0,0.0,0.0,0.0,0.0,0.0,0.0,0.0,0.0,0.0,0.0,0.0,0.0,0.0,0.0,0.0,0.0,0.0,0.0,0.0,0.0,0.0,3.0017,2.9825,0.0,0.0,0.0,2.8987,2.8987,0.0,0.0,0.0,0.0,0.0,0.0,0.0,0.0,0.0,0.0,0.0,0.0,0.0,0.0,0.0,0.0,0.0,0.0,0.0,0.0,0.0,0.0,0.0,0.0,0.0,0.0,0.0,0.0,0.0,0.0,0.0,0.0,0.0,0.0,0.0,0.0,0.0,0.0,0.0,0.0,0.0,0.0,0.0,0.0,0.0,0.0,0.0,0.0,0.0,0.0,0.0,0.0,0.0,0.0,0.0,0.0,0.0,3.2199,3.2395,3.21,3.132,3.1297,3.109,3.067,3.0658,0.0,0.0,0.0,0.0,0.0,0.0,0.0,0.0,0.0,0.0,0.0,0.0,0.0,0.0,0.0,0.0,0.0,0.0,0.0,0.0,0.0,0.0,0.0,0.0,0.0,0.0,0.0,2.9771,0.0,0.0,0.0,0.0,0.0,0.0,0.0,0.0,0.0,0.0,0.0,0.0,0.0,0.0,3.0021,3.0109,2.9927,2.9771,0.0,0.0,2.9095,2.91,2.9033,2.8987,0.0,0.0,0.0,0.0,0.0,0.0,0.0,0.0,0.0,0.0,0.0,0.0,0.0,0.0,0.0,0.0,0.0,0.0,0.0,0.0,0.0,0.0,0.0,0.0,0.0,0.0,0.0,0.0,0.0,0.0,0.0,0.0,0.0,0.0,0.0,0.0,0.0,0.0,0.0,0.0,0.0,0.0,0.0,0.0,0.0,0.0,0.0,0.0,0.0,0.0,0.0,0.0,0.0,0.0,3.2264,3.2203,3.2217,3.223,3.2127,3.2108,3.2211,3.2413,3.242,3.2162,0.0,0.0,0.0,0.0,0.0,0.0,0.0,0.0,0.0,0.0,0.0,0.0,0.0,0.0,0.0,0.0,0.0,0.0,0.0,0.0,0.0,0.0,0.0,0.0,0.0,0.0,0.0,0.0,0.0,0.0,0.0,0.0,0.0,0.0,0.0,0.0,0.0,0.0,0.0,0.0,0.0,3.0105,3.0326,3.0143,2.998,0.0,2.9629,2.9372,2.9372,2.9167,2.8987,2.8987,0.0,0.0,0.0,0.0,0.0,0.0,0.0,0.0,0.0,0.0,0.0,0.0,0.0,0.0,0.0,0.0,0.0,0.0,0.0,0.0,0.0,0.0,0.0,0.0,0.0,0.0,0.0,0.0,0.0,0.0,0.0,0.0,0.0,0.0,0.0,0.0,0.0,0.0,0.0,0.0,0.0,0.0,0.0,0.0,0.0,0.0,0.0,0.0,0.0,0.0,0.0,0.0,0.0,3.4134,3.3988,3.4146,3.3964,3.3448,3.3433,3.3233,3.2799,3.2779,3.2676,0.0,0.0,0.0,0.0,0.0,0.0,0.0,0.0,0.0,0.0,0.0,0.0,0.0,0.0,0.0,0.0,0.0,0.0,0.0,0.0,0.0,0.0,0.0,0.0,0.0,0.0,0.0,0.0,3.0093,2.9928,2.9731,0.0,0.0,0.0,0.0,0.0,0.0,0.0,0.0,0.0,0.0,3.0047,3.014,2.9947,0.0,0.0,2.9441,2.9138,2.9162,2.9079,2.8987,2.8987,2.8987,0.0,0.0,0.0,0.0,0.0,0.0,0.0,0.0,0.0,0.0,0.0,0.0,0.0,0.0,0.0,0.0,0.0,0.0,0.0,0.0,0.0,0.0,0.0,0.0,0.0,0.0,0.0,0.0,0.0,0.0,0.0,0.0,0.0,0.0,0.0,0.0,0.0,0.0,0.0,0.0,0.0,0.0,0.0,0.0,0.0,0.0,0.0,0.0,0.0,0.0,0.0,0.0,3.5293,3.5105,3.5365,3.5215,3.4584,3.4606,3.4295,3.3718,3.368,3.3545,0.0,0.0,0.0,0.0,0.0,0.0,0.0,0.0,0.0,0.0,0.0,0.0,0.0,0.0,0.0,0.0,0.0,0.0,0.0,0.0,0.0,0.0,0.0,0.0,0.0,0.0,0.0,0.0,3.0746,3.0496,3.0354,0.0,0.0,0.0,0.0,0.0,0.0,0.0,0.0,0.0,0.0,2.9984,3.0231,3.0139,3.0149,3.0389,2.9897,2.9467,2.9473,2.9209,2.8987,2.8987,0.0,0.0,0.0,0.0,0.0,0.0,0.0,0.0,0.0,0.0,0.0,0.0,0.0,0.0,0.0,0.0,0.0,0.0,0.0,0.0,0.0,0.0,0.0,0.0,0.0,0.0,0.0,3.5703,0.0,0.0,3.5596,0.0,0.0,0.0,0.0,0.0,0.0,0.0,0.0,0.0,0.0,0.0,0.0,0.0,0.0,0.0,0.0,0.0,0.0,0.0,0.0,0.0,0.0,3.5105,3.5105,3.5338,3.5481,3.5442,3.5465,3.5423,3.5385,3.5423,3.5042,3.4183,0.0,0.0,0.0,0.0,0.0,0.0,0.0,0.0,0.0,0.0,0.0,0.0,0.0,0.0,0.0,0.0,0.0,0.0,0.0,0.0,0.0,0.0,0.0,0.0,0.0,0.0,3.25,3.2081,3.1731,0.0,0.0,0.0,0.0,0.0,0.0,0.0,0.0,0.0,0.0,2.9705,3.0007,3.0775,3.0875,3.112,3.1902,3.1192,3.0549,3.0544,2.9708,2.8987,0.0,0.0,0.0,0.0,0.0,0.0,0.0,0.0,0.0,0.0,0.0,0.0,0.0,0.0,0.0,0.0,0.0,0.0,0.0,0.0,0.0,0.0,0.0,0.0,0.0,0.0,0.0,3.5764,3.5641,0.0,0.0,0.0,0.0,0.0,0.0,0.0,0.0,0.0,0.0,0.0,3.5503,3.5503,0.0,0.0,0.0,0.0,0.0,0.0,0.0,0.0,0.0,0.0,0.0,0.0,3.4926,3.5096,3.5194,3.5316,3.5477,3.5503,3.5503,3.5503,3.5503,3.5271,3.4814,0.0,0.0,0.0,0.0,0.0,0.0,0.0,0.0,0.0,0.0,0.0,0.0,0.0,0.0,0.0,0.0,0.0,0.0,0.0,0.0,0.0,0.0,0.0,0.0,0.0,3.266,0.0,0.0,0.0,0.0,0.0,0.0,0.0,0.0,0.0,0.0,0.0,3.1012,3.11,3.1218,3.1393,3.1652,3.1587,3.1592,0.0,0.0,0.0,0.0,0.0,0.0,0.0,0.0,0.0,0.0,0.0,0.0,0.0,0.0,3.0174,2.8857,2.831,2.8228,2.8773,0.0,0.0,0.0,0.0,0.0,0.0,0.0,0.0,0.0,0.0,0.0,0.0,0.0,0.0,3.5746,0.0,3.5608,0.0,0.0,0.0,0.0,0.0,0.0,0.0,0.0,3.5503,3.5503,3.5503,3.5503,3.5503,0.0,3.5503,3.5503,0.0,0.0,0.0,0.0,0.0,0.0,0.0,0.0,3.5016,3.51,3.5198,3.5335,3.5493,3.5503,3.5503,3.5503,3.5503,3.5424,3.5239,3.5417,3.5424,0.0,0.0,0.0,0.0,0.0,0.0,0.0,0.0,0.0,0.0,0.0,0.0,0.0,0.0,0.0,0.0,0.0,0.0,0.0,0.0,0.0,0.0,0.0,3.3536,0.0,0.0,0.0,0.0,0.0,0.0,0.0,0.0,0.0,3.176,3.1843,3.1936,3.1936,3.1987,3.2049,3.2243,0.0,0.0,0.0,0.0,0.0,0.0,0.0,3.1409,3.1409,3.1409,3.1409,3.1409,3.1409,3.1409,3.1409,0.0,0.0,2.9682,2.9263,2.9278,2.9795,2.9891,3.0053,3.0582,3.0682,3.0689,0.0,0.0,0.0,0.0,0.0,0.0,0.0,0.0,3.5713,3.5675,0.0,3.5608,0.0,0.0,0.0,0.0,0.0,3.5615,0.0,0.0,3.5615,3.5577,3.5615,3.5615,3.56,3.5577,3.5619,3.5615,3.5615,3.5596,0.0,0.0,0.0,0.0,0.0,0.0,3.5358,3.5113,3.535,3.549,3.55,3.5503,3.5503,3.5503,3.5503,3.55,3.55,3.55,3.55,3.5481,3.55,0.0,0.0,0.0,0.0,0.0,0.0,0.0,0.0,0.0,0.0,0.0,0.0,0.0,0.0,0.0,0.0,0.0,0.0,0.0,0.0,3.5242,0.0,0.0,0.0,0.0,0.0,0.0,0.0,0.0,0.0,0.0,3.2527,3.2298,3.2241,3.227,0.0,0.0,0.0,0.0,3.2993,3.3722,3.3176,3.2674,3.2638,3.2008,3.1501,3.1501,0.0,0.0,3.1501,3.1507,3.1537,3.1501,3.1556,3.1482,3.1458,3.1323,3.1323,3.1402,3.1371,3.1439,3.1476,3.1566,3.1542,3.6977,0.0,0.0,0.0,0.0,3.5973,3.5902,3.5842,3.5841,3.5731,3.5608,3.5608,0.0,0.0,0.0,0.0,0.0,0.0,3.7273,3.7273,3.7296,3.7276,3.7273,3.7296,3.7296,3.7276,3.7292,3.7296,3.7296,3.7276,3.6677,3.5516,0.0,0.0,0.0,0.0,3.4981,3.51,3.5182,3.5304,3.5497,3.5503,3.5503,3.5503,3.5503,3.5503,3.5503,3.5503,3.5503,3.5503,3.5503,0.0,0.0,0.0,0.0,0.0,0.0,0.0,0.0,0.0,0.0,0.0,0.0,0.0,0.0,0.0,0.0,0.0,0.0,0.0,3.5493,3.5092,3.4879,0.0,0.0,0.0,0.0,0.0,0.0,0.0,0.0,0.0,3.4584,3.3831,3.3352,0.0,0.0,3.4132,3.4296,3.4846,3.511,3.4711,3.4465,0.0,3.355,3.3256,3.3116,3.3116,3.3116,3.3109,3.3116,3.3116,3.3098,3.3116,3.3116,3.3116,3.3036,3.2161,3.1684,3.21,3.2265,3.2461,3.2987,3.3109,3.3109,3.7723,3.686,3.6895,3.6906,3.6906,3.6906,3.689,3.6856,3.6836,3.6745,3.6596,3.6593,3.6818,3.7215,3.7234,0.0,0.0,0.0,3.8004,3.8004,3.8004,3.8004,3.8004,3.8004,3.8004,3.8004,3.8004,3.8004,3.8004,3.8004,3.7507,3.6519,0.0,0.0,3.5748,3.5581,3.5424,3.5281,3.5266,3.535,3.5497,3.5503,3.5503,3.5503,3.5503,3.5503,3.5503,3.5503,3.5503,3.5503,3.5503,3.5503,0.0,0.0,0.0,0.0,0.0,0.0,0.0,0.0,0.0,0.0,0.0,3.5503,3.5503,0.0,0.0,0.0,3.5503,3.5503,3.5503,3.5113,0.0,0.0,0.0,0.0,0.0,0.0,0.0,3.4298,3.5271,3.5938,3.5816,3.5236,3.4816,3.4932,3.5285,3.5507,3.5518,0.0,3.6101,3.558,3.5507,3.5341,3.4871,3.4798,3.4798,3.4805,3.4805,3.478,3.478,3.478,3.478,3.4786,3.4805,3.4798,3.4798,3.396,3.3201,3.3103,3.3073,3.3256,3.3715,3.3807,3.3807,3.8475,3.8477,3.8477,3.839,3.8307,3.8307,3.8303,3.8276,3.8278,3.8219,3.8081,3.8081,3.8099,3.8107,3.8161,0.0,3.82,3.8203,3.8219,3.82,3.818,3.82,3.82,3.8219,3.82,3.82,3.82,3.8219,3.8219,3.8219,3.82,3.82,3.82,3.7738,3.6869,3.6808,3.6427,3.5712,3.5712,3.5654,3.56,3.5538,3.5503,3.5503,3.5503,3.5503,3.5503,3.5503,3.5503,3.5503,3.5503,3.5503,3.5503,0.0,0.0,0.0,0.0,0.0,0.0,0.0,0.0,0.0,0.0,0.0,0.0,0.0,0.0,0.0,3.5503,0.0,3.5503,3.5246,0.0,0.0,0.0,3.4222,3.4,3.492,3.5434,3.5131,0.0,0.0,3.6419,3.6431,3.6571,3.6822,3.6581,3.6395,3.6402,3.6475,3.6468,3.6413,3.6376,3.6365,3.6156,3.6163,3.6138,3.6138,3.6285,3.6218,3.6193,3.6211,3.6273,3.6193,3.6266,3.6248,3.6266,3.6101,3.5807,3.4291,3.4027,3.4045,3.4119,3.4156,3.4181,3.9981,3.9981,3.9981,3.9339,3.8307,3.8307,3.8246,3.8146,3.8143,3.8105,3.8033,3.8033,3.8378,3.9031,3.9646,3.9915,3.99,3.9915,3.9915,3.9896,3.9915,3.9915,3.9919,3.9915,3.9896,3.99,3.9915,3.9896,3.99,3.99,3.9919,3.99,3.99,3.9161,3.7757,3.77,3.7603,3.7388,3.7407,3.7081,3.6427,3.5827,3.5503,3.5503,3.5503,3.5503,3.5503,3.5503,3.5503,3.5503,3.5503,3.5503,3.5503,3.5503,0.0,0.0,0.0,0.0,0.0,0.0,0.0,0.0,0.0,3.5503,3.5503,0.0,3.5503,0.0,3.5503,3.5503,3.5481,3.5266,0.0,0.0,3.5222,3.5234,3.5398,3.5818,3.609,3.6005,3.6768,3.7293,3.7224,3.7753,3.8168,3.8214,3.7629,3.7217,3.7235,3.7753,3.7907,3.7338,3.721,3.6997,3.6475,3.6285,3.634,3.6285,3.6303,3.6285,3.6303,3.6285,3.6285,3.6285,3.6285,3.6285,3.634,3.6285,3.6193,3.5789,3.5716,3.5697,3.5697,3.5697,3.5704,4.0492,4.0492,4.0492,4.0028,3.9273,3.9293,3.923,3.9174,3.9155,3.9159,3.9107,3.9107,3.9396,3.9842,4.0304,4.0492,4.0492,4.0492,4.0492,4.0492,4.0492,4.0492,4.0492,4.0492,4.0492,4.0492,4.0492,4.0492,4.0492,4.0492,4.0492,4.0492,4.0492,4.0031,3.9146,3.8757,3.8392,3.8004,3.8004,3.7777,3.7292,3.683,3.6423,3.6042,3.6038,3.5865,3.55,3.5503,3.5503,3.5503,3.5503,3.5503,3.5503,3.5503,3.5503,0.0,0.0,0.0,0.0,0.0,0.0,0.0,0.0,0.0,0.0,0.0,3.5503,3.5503,3.5503,3.5503,3.5503,3.5676,3.577,3.5683,3.6013,3.6182,3.6093,3.653,3.6824,3.6831,3.754,3.8036,3.8036,3.8414,3.8699,3.8699,3.8303,3.8036,3.8054,3.8439,3.8534,3.8109,3.8036,3.7907,3.7422,3.7367,3.7375,3.7349,3.7386,3.7367,3.7367,3.7367,3.7367,3.7367,3.7367,3.7367,3.7367,3.7367,3.7367,3.7367,3.7367,3.711,3.645,3.6285,3.6285,4.0492,4.0492,4.0492,4.0492,4.0492,4.0492,4.0492,4.0492,4.0492,4.0492,4.0492,4.0492,4.0492,4.0492,4.0492,4.0492,4.0492,4.0492,4.0492,4.0492,4.0492,4.0492,4.0492,4.0492,4.0492,4.0492,4.0492,4.0492,4.0492,4.0492,4.0492,4.0492,4.0492,4.0492,4.0473,3.9804,3.9088,3.8334,3.8223,3.8184,3.8161,3.8046,3.7642,3.6904,3.6869,3.6542,3.585,3.5827,3.5808,3.5808,3.5712,3.5635,3.5654,3.5577,3.5503,0.0,3.5615,0.0,0.0,0.0,0.0,0.0,0.0,0.0,0.0,3.5503,3.5535,3.5635,3.5635,3.5682,3.5753,3.6387,3.6608,3.6137,3.6745,3.7004,3.6595,3.7184,3.7658,3.765,3.8274,3.8699,3.8663,3.8699,3.8699,3.8699,3.867,3.8634,3.8689,3.8681,3.8681,3.8699,3.8699,3.8579,3.8553,3.8608,3.8615,3.8644,3.8579,3.8699,3.8608,3.8626,3.8644,3.8644,3.8579,3.8626,3.8699,3.8644,3.8644,3.8571,3.8553,3.8175,3.7074,3.6743,3.6597,4.0492,4.0492,4.0492,4.0492,4.0492,4.0492,4.0492,4.0492,4.0492,4.0492,4.0492,4.0492,4.0492,4.0492,4.0492,4.0492,4.0492,4.0492,4.0492,4.0492,4.0492,4.0492,4.0492,4.0492,4.0492,4.0492,4.0492,4.0492,4.0492,4.0492,4.0492,4.0492,4.0492,4.0492,4.0492,0.0,0.0,0.0,3.9396,3.9069,3.9011,3.8354,3.793,3.7754,3.7757,0.0,3.7546,3.7526,3.7523,3.7504,3.685,0.0,0.0,0.0,0.0,0.0,0.0,0.0,0.0,0.0,0.0,0.0,3.7523,3.6965,3.5635,3.5503,3.5773,3.6404,3.6484,3.6642,3.7082,3.7255,3.7224,3.6942,3.7385,3.7708,3.7625,3.8132,3.8469,3.8487,3.8608,3.8699,3.8699,3.8699,3.8699,3.8699,3.8699,3.8699,3.8699,3.8699,3.8699,3.8699,3.8699,3.8699,3.8699,3.8699,3.8699,3.8699,3.8699,3.8699,3.8699,3.8699,3.8699,3.8699,3.8699,3.8699,3.8699,3.8699,3.8699,3.8699,3.8699,3.8608,3.8296,3.8241,3.8248,4.0492,4.0492,4.0492,4.0492,0.0,4.0492,4.0492,4.0492,4.0492,4.0492,4.0492,4.0492,4.0492,4.0492,4.0492,4.0492,4.0492,4.0492,4.0492,4.0492,4.0492,4.0492,4.0492,4.0492,4.0492,4.0492,4.0492,4.0492,4.0492,4.0492,4.0492,4.0492,4.0492,4.0492,4.0492,4.0492,4.0492,4.0492,4.0092,3.99,3.9881,3.9454,3.905,3.8665,3.8642,0.0,0.0,0.0,0.0,0.0,0.0,0.0,0.0,3.6965,0.0,3.6754,3.71,3.7334,3.735,3.7757,3.8004,3.8004,3.7855,3.7471,3.6762,3.6734,3.6825,3.7067,3.7093,3.7169,3.7298,3.7661,3.7802,3.7565,3.8102,3.8441,3.8358,3.8527,3.8707,3.8699,3.8699,3.8699,3.8699,3.8699,3.8699,3.8699,3.8699,3.8699,3.8699,3.8699,3.8699,3.8699,3.8699,3.8699,3.8699,3.8699,3.8699,3.8699,3.8699,3.8699,3.8699,3.8699,3.8699,3.8699,3.8699,3.8699,3.8699,3.8699,3.8699,3.8699,3.8699,3.8604,3.8401,3.8326,3.8234,4.0492,4.0492,4.0492,4.0492,4.0492,4.0492,4.0492,4.0492,0.0,0.0,0.0,4.0492,4.0492,4.0492,4.0492,4.0492,4.0492,4.0492,4.0492,4.0492,4.0492,4.0492,4.0492,4.0492,4.0492,4.0492,4.0492,4.0492,4.0492,4.0492,4.0492,4.0492,4.0492,4.0492,4.0492,4.0492,4.0492,4.0492,4.0492,4.0492,4.0492,4.0492,4.0189,3.9534,3.9515,3.9165,3.8488,3.843,3.845,3.8434,3.8315,3.8219,3.8223,3.8084,3.8004,3.8004,3.8142,3.8238,3.8238,3.8354,3.845,3.843,3.8151,3.7978,3.8012,3.7955,3.7897,3.7818,3.7769,3.7661,3.7558,3.8069,3.834,3.8074,3.8637,3.8915,3.8724,3.8699,3.8699,3.8699,3.8699,3.8699,3.8699,3.8699,3.8699,3.8699,3.8699,3.8699,3.8699,3.8699,3.8699,3.8699,3.8699,3.8699,3.8699,3.8699,3.8699,3.8699,3.8699,3.8699,3.8699,3.8699,3.8699,3.8699,3.8699,3.8699,3.8699,3.8699,3.8699,3.8699,3.8699,3.8546,3.8048,3.7825,3.7667,4.0492,4.0492,4.0492,4.0492,4.0492,4.0492,4.0492,4.0492,4.0492,4.0492,4.0492,4.0492,4.0492,4.0492,4.0492,4.0492,4.0492,4.0492,4.0492,4.0492,4.0492,4.0492,4.0492,4.0492,4.0492,4.0492,4.0492,4.0492,4.0492,4.0492,4.0492,4.0492,4.0492,4.0492,4.0492,4.0492,4.0492,4.0492,4.0492,4.0492,4.0492,4.0492,4.0458,4.0342,4.0323,4.0285,4.0165,4.0127,4.015,4.0127,3.9492,3.9127,3.9088,3.8415,3.8004,3.8027,3.8684,3.9107,3.9127,3.9765,4.0146,4.0138,3.9896,3.9263,3.8116,3.7736,3.798,3.8896,3.8753,3.8797,3.9169,3.9033,3.8838,3.8619,3.8681,3.8742,3.8699,3.8699,3.8699,3.8699,3.8699,3.8699,3.8699,3.8699,3.8699,3.8699,3.8699,3.8699,3.8699,3.8699,3.8699,3.8699,3.8699,3.8699,3.8699,3.8699,3.8699,3.8699,3.8699,3.8699,3.8699,3.8699,3.8699,3.8699,3.8699,3.8699,3.8699,3.8699,3.865,3.8635,3.8619,3.8415,3.7894,3.7515,3.7239,4.0492,4.0492,4.0492,4.0492,4.0492,4.0492,4.0492,4.0492,4.0492,4.0492,4.0492,4.0492,4.0492,4.0492,4.0492,4.0492,4.0492,4.0492,4.0492,4.0492,4.0492,4.0492,4.0492,4.0492,4.0492,4.0492,4.0492,4.0492,4.0492,4.0492,4.0492,4.0492,4.0492,4.0492,4.0492,4.0492,4.0492,4.0492,4.0492,4.0492,4.0492,4.0492,4.0492,4.0492,4.0492,4.0492,4.0492,4.0492,4.0492,4.0492,4.0146,3.9958,3.9958,3.9569,3.9358,3.9358,3.9742,3.9958,3.9958,4.0285,4.0426,4.0276,3.9998,3.9563,3.8942,3.8899,3.8999,3.9182,3.9037,3.8982,3.911,3.8973,3.8837,3.8712,3.8699,3.8699,3.8699,3.8699,3.8699,3.8699,3.8699,3.8699,3.8699,3.8699,3.8699,3.8699,3.8699,3.8699,3.8699,3.8699,3.8699,3.8699,3.8699,3.8699,3.8699,3.8699,3.8699,3.8699,3.8699,3.8699,3.8699,3.8699,3.8699,3.8699,3.8699,3.8699,3.8699,3.8449,3.8326,3.8242,3.8024,3.7703,3.7201,3.6686,3.6374,4.0492,4.0492,4.0492,4.0492,4.0492,4.0492,4.0492,4.0492,4.0492,4.0492,4.0492,4.0492,4.0492,4.0492,4.0492,4.0492,4.0492,4.0492,4.0492,4.0492,4.0492,4.0492,4.0492,4.0492,4.0492,4.0492,4.0492,4.0492,4.0492,4.0492,4.0492,4.0492,4.0492,4.0492,4.0492,4.0492,4.0492,4.0492,4.0492,4.0492,4.0492,4.0492,4.0492,4.0492,4.0492,4.0492,4.0492,4.0492,4.0492,4.0492,4.043,4.0421,4.0401,4.0336,4.0292,4.0296,4.0377,4.0421,4.0397,4.0266,4.0134,4.0007,3.9673,3.9499,3.9498,3.9731,3.972,3.9283,3.9142,3.9003,3.8855,3.875,3.8699,3.8699,3.8699,3.8699,3.8699,3.8699,3.8699,3.8699,3.8699,3.8699,3.8699,3.8699,3.8699,3.8699,3.8699,3.8699,3.8699,3.8699,3.8699,3.8699,3.8699,3.8699,3.8699,3.8699,3.8699,3.8699,3.8699,3.8699,3.8699,3.8699,3.8699,3.8699,3.8699,3.8699,3.865,3.8425,3.821,3.8167,3.7851,3.7248,3.6623,3.6196,3.5783,4.0492,4.0492,4.0492,4.0492,4.0492,4.0492,4.0492,4.0492,4.0492,4.0492,4.0492,4.0492,4.0492,4.0492,4.0492,4.0492,4.0492,4.0492,4.0492,4.0492,4.0492,4.0492,4.0492,4.0492,4.0492,4.0492,4.0492,4.0492,4.0492,4.0492,4.0492,4.0492,4.0492,4.0492,4.0492,4.0492,4.0492,4.0492,4.0492,4.0492,4.0492,4.0492,4.0492,4.0492,4.0492,4.0492,4.0492,4.0492,4.0492,4.0481,4.0267,4.0144,4.0129,3.9861,3.9701,3.971,3.9978,4.0134,4.0105,3.9563,3.9389,3.9593,3.9358,3.9147,3.9152,3.9185,3.9327,3.9377,3.9244,3.9058,3.9056,3.8844,3.8689,3.8699,3.8699,3.8699,3.8699,3.8699,3.8699,3.8699,3.8699,3.8699,3.8699,3.8699,3.8699,3.8699,3.8699,3.8699,3.8699,3.8699,3.8699,3.8699,3.8699,3.8699,3.8699,3.8699,3.8699,3.8699,3.8699,3.8699,3.8699,3.8699,3.8699,3.8699,3.8699,3.8699,3.8699,3.8627,3.853,3.8218,3.7877,3.7443,3.6684,3.6277,3.6043,4.0492,4.0492,4.0492,4.0492,4.0492,4.0492,4.0492,4.0492,4.0492,4.0492,4.0492,4.0492,4.0492,4.0492,4.0492,4.0492,4.0492,4.0492,4.0492,4.0492,4.0492,4.0492,4.0492,4.0492,4.0492,4.0492,4.0492,4.0492,4.0492,4.0492,4.0492,4.0492,4.0492,4.0492,4.0492,4.0492,4.0492,4.0492,4.0492,4.0492,4.0492,4.0492,4.0492,4.0492,4.0492,4.0492,4.0492,4.0492,4.0492,4.0489,4.0389,4.0343,4.0339,4.0212,4.0138,4.0138,4.0101,4.0012,3.9813,3.9547,3.9358,3.9308,3.9173,3.9054,3.8884,3.8862,3.8934,3.9015,3.893,3.8862,3.8873,3.8769,3.8699,3.8699,3.8699,3.8699,3.8699,3.8699,3.8699,3.8699,3.8699,3.8699,3.8699,3.8699,3.8699,3.8699,3.8699,3.8699,3.8699,3.8699,3.8699,3.8699,3.8699,3.8699,3.8699,3.8699,3.8699,3.8699,3.8699,3.8699,3.8699,3.8699,3.8699,3.8692,3.8627,3.8627,3.8699,3.8135,3.78,3.7694,3.7079,3.6381,3.5996,3.593,3.5805,4.0492,4.0492,4.0492,4.0492,4.0492,4.0492,4.0492,4.0492,4.0492,4.0492,4.0492,4.0492,4.0492,4.0492,4.0492,4.0492,4.0492,4.0492,4.0492,4.0492,4.0492,4.0492,4.0492,4.0492,4.0492,4.0492,4.0492,4.0492,4.0492,4.0492,4.0492,4.0492,4.0492,4.0492,4.0492,4.0492,4.0492,4.0492,4.0492,4.0492,4.0492,4.0492,4.0492,4.0492,4.0492,4.0492,4.0492,4.0492,4.0492,4.0492,4.0368,4.0257,4.0248,4.011,4.0043,4.0072,3.9867,3.9641,3.9469,3.9389,3.9249,3.9027,3.8992,3.8916,3.8757,3.8699,3.8699,3.8704,3.8699,3.8696,3.8699,3.8699,3.8699,3.8699,3.8699,3.8699,3.8699,3.8699,3.8699,3.8699,3.8699,3.8699,3.8699,3.8699,3.8699,3.8699,3.8699,3.8699,3.8699,3.8699,3.8699,3.8699,3.8699,3.8699,3.8699,3.8699,3.8699,3.8699,3.8699,3.8699,3.865,3.8619,3.8473,3.8316,3.8358,3.8269,3.8083,3.7533,3.7114,3.6882,3.6395,3.5805,3.5711,3.5633,3.5622,4.0492,4.0492,4.0492,4.0492,4.0492,4.0492,4.0492,4.0492,4.0492,4.0492,4.0492,4.0492,4.0492,4.0492,4.0492,4.0492,4.0492,4.0492,4.0492,4.0492,4.0492,4.0492,4.0492,4.0492,4.0492,4.0492,4.0492,4.0492,4.0492,4.0492,4.0492,4.0492,4.0492,4.0492,4.0492,4.0492,4.0492,4.0492,4.0492,4.0492,4.0492,4.0492,4.0492,4.0492,4.0492,4.0492,4.0492,4.0492,4.0492,4.0489,3.9999,3.9685,3.9622,3.9136,3.9015,3.9152,3.8959,3.8898,3.9063,3.8927,3.8762,3.8735,3.8747,3.8719,3.8715,3.8699,3.8699,3.8699,3.8699,3.8699,3.8699,3.8699,3.8699,3.8699,3.8699,3.8699,3.8699,3.8699,3.8699,3.8699,3.8699,3.8699,3.8699,3.8699,3.8699,3.8699,3.8699,3.8699,3.8692,3.8692,3.8635,3.8627,3.8619,3.8666,3.8666,3.857,3.8593,3.8554,3.8465,3.857,3.8499,3.835,3.8099,3.7877,3.7685,3.7506,3.7323,3.7116,3.6855,3.6633,3.6426,3.6028,3.5656,3.5622,3.5628,4.0492,4.0492,4.0492,4.0492,4.0492,4.0492,4.0492,4.0492,4.0492,4.0492,4.0492,4.0492,4.0492,4.0492,4.0492,4.0492,4.0492,4.0492,4.0492,4.0492,4.0492,4.0492,4.0492,4.0492,4.0492,4.0492,4.0492,4.0492,4.0492,4.0492,4.0492,4.0492,4.0492,4.0492,4.0492,4.0492,4.0492,4.0492,4.0492,4.0492,4.0492,4.0492,4.0492,4.0492,4.0492,4.0492,4.0492,4.0492,4.0414,4.0264,4.0037,3.9813,3.9611,3.9383,3.921,3.9105,3.8994,3.893,3.8833,3.878,3.8699,3.8699,3.8699,3.8699,3.8699,3.8699,3.8699,3.8699,3.8699,3.8699,3.8699,3.8699,3.8699,3.8699,3.8699,3.8699,3.8699,3.8699,3.8699,3.8699,3.8699,3.8699,3.8699,3.8699,3.8699,3.8699,3.8699,3.8666,3.8627,3.8423,3.8191,3.8133,3.7948,3.7738,3.7747,3.8015,3.8158,3.8057,3.7989,3.78,3.7667,3.7676,3.746,3.7424,3.7163,3.7039,3.6962,3.6736,3.6501,3.6171,3.5963,3.5958,3.5644,3.5611,3.5628,4.0492,4.0492,4.0492,4.0492,4.0492,4.0492,4.0492,4.0492,4.0492,4.0492,4.0492,4.0492,4.0492,4.0492,4.0492,4.0492,4.0492,4.0492,4.0492,4.0492,4.0492,4.0492,4.0492,4.0492,4.0492,4.0492,4.0492,4.0492,4.0492,4.0492,4.0492,4.0492,4.0492,4.0492,4.0492,4.0492,4.0492,4.0492,4.0492,4.0492,4.0489,4.0425,4.0387,4.0356,4.0285,4.0261,4.0364,4.0261,4.0129,3.9953,3.9829,3.9647,3.9352,3.9326,3.9204,3.9006,3.8957,3.8906,3.8735,3.8699,3.8699,3.8699,3.8699,3.8699,3.8699,3.8699,3.8699,3.8699,3.8699,3.8699,3.8699,3.8699,3.8699,3.8699,3.8699,3.8699,3.8699,3.8699,3.8699,3.8699,3.8699,3.8699,3.8699,3.8699,3.8699,3.8699,3.857,3.8449,3.8374,3.8015,3.7676,3.7667,3.7469,3.7331,3.7266,3.7396,3.7569,3.7515,3.7488,3.722,3.703,3.7009,3.695,3.6904,3.6825,3.6726,3.6555,3.6336,3.6043,3.5689,3.5678,3.5734,3.5639,3.5628,3.5628,4.0492,4.0492,4.0492,4.0492,4.0492,4.0492,4.0492,4.0492,4.0492,4.0492,4.0492,4.0492,4.0492,4.0492,4.0492,4.0492,4.0492,4.0492,4.0492,4.0492,4.0492,4.0492,4.0492,4.0492,4.0492,4.0492,4.0492,4.0492,4.0492,4.0492,4.0492,4.0492,4.0492,4.0492,4.0492,4.0492,4.0492,4.0489,4.0477,4.0473,4.0465,4.0223,4.0081,4.0052,3.9778,3.9751,4.0042,3.9803,3.9656,3.9563,3.9314,3.8992,3.8837,3.8769,3.8727,3.875,3.8712,3.8696,3.8707,3.8699,3.8699,3.8699,3.8699,3.8699,3.8699,3.8699,3.8699,3.8699,3.8699,3.8699,3.8699,3.8699,3.8699,3.8699,3.8699,3.8699,3.8699,3.8699,3.8699,3.8699,3.8699,3.8699,3.8699,3.8627,3.8596,3.8523,3.8218,3.7903,3.7868,3.7488,3.7247,3.7173,3.6991,3.6796,3.6776,3.6813,3.6894,3.6972,3.6981,3.6882,3.6676,3.6603,3.6429,3.6357,3.6207,3.6118,3.6118,3.5909,3.5854,3.5628,3.5628,3.5628,3.5628,3.5628,3.5628,4.0492,4.0492,4.0492,4.0492,4.0492,4.0492,4.0492,4.0492,4.0492,4.0492,4.0492,4.0492,4.0492,4.0492,4.0492,4.0492,4.0492,4.0492,4.0492,4.0492,4.0492,4.0492,4.0492,4.0492,4.0492,4.0492,4.0492,4.0492,4.0492,4.0492,4.0492,4.0492,4.0492,4.0492,4.0492,4.0492,4.0492,4.0481,4.0326,4.0218,4.0195,3.9927,3.9759,3.9707,3.9426,3.9308,3.9395,3.9535,3.9474,3.9264,3.9147,3.8978,3.8762,3.8699,3.8699,3.8699,3.8699,3.8699,3.8699,3.8699,3.8699,3.8699,3.8699,3.8699,3.8699,3.8699,3.8699,3.8699,3.8699,3.8699,3.8699,3.8699,3.8699,3.8699,3.8699,3.8699,3.8699,3.8699,3.8699,3.8699,3.8699,3.8699,3.8619,3.8457,3.8191,3.8117,3.7738,3.7424,3.7341,3.6972,3.6664,3.6633,3.6399,3.6249,3.6228,3.6217,3.627,3.6347,3.6388,3.644,3.6301,3.6196,3.6011,3.5887,3.5723,3.5633,3.5611,3.5628,3.5628,3.5628,3.5628,3.5628,3.5628,3.5628,3.5628,4.0492,4.0492,4.0492,4.0492,4.0492,4.0492,4.0492,4.0492,4.0492,4.0492,4.0492,4.0492,4.0492,4.0492,4.0492,4.0492,4.0492,4.0492,4.0492,4.0492,4.0492,4.0492,4.0492,4.0492,4.0492,4.0492,4.0492,4.0492,4.0492,4.0492,4.0492,4.0492,4.0492,4.0492,4.0492,4.0492,4.0492,4.0465,4.0255,4.0096,4.0002,3.9651,3.9408,3.9358,3.911,3.895,3.8968,3.9156,3.9176,3.8978,3.8947,3.8855,3.8712,3.8699,3.8699,3.8699,3.8699,3.8699,3.8699,3.8699,3.8699,3.8699,3.8699,3.8699,3.8699,3.8699,3.8699,3.8699,3.8699,3.8699,3.8699,3.8699,3.8699,3.8699,3.8699,3.8699,3.8699,3.8699,3.8699,3.8699,3.8699,3.8601,3.8348,3.8175,3.7807,3.764,3.722,3.6902,3.6793,3.6447,3.6256,3.6086,3.5952,3.5805,3.5689,3.5656,3.5656,3.5723,3.5783,3.586,3.5838,3.5838,3.5717,3.5739,3.5622,3.5622,3.5628,3.5628,3.5628,3.5628,3.5628,3.5628,3.5628,3.5628,3.5628,4.0492,4.0492,4.0492,4.0492,4.0492,4.0492,4.0492,4.0492,4.0492,4.0492,4.0492,4.0492,4.0492,4.0492,4.0492,4.0492,4.0492,4.0492,4.0492,4.0492,4.0492,4.0492,4.0492,4.0492,4.0492,4.0492,4.0492,4.0492,4.0492,4.0492,4.0492,4.0492,4.0492,4.0492,4.0492,4.0492,4.0481,4.0401,4.0186,4.0027,3.9967,3.9414,3.9078,3.9083,3.8873,3.8735,3.8757,3.8777,3.8765,3.8696,3.8742,3.8727,3.8707,3.8699,3.8699,3.8699,3.8699,3.8699,3.8699,3.8699,3.8699,3.8699,3.8699,3.8699,3.8699,3.8699,3.8699,3.8699,3.8699,3.8699,3.8699,3.8699,3.8699,3.8699,3.8699,3.8699,3.8699,3.8699,3.865,3.8601,3.8601,3.8457,3.7937,3.7781,3.7515,3.7182,3.6686,3.6399,3.6281,3.6028,3.5723,3.5622,3.5656,3.5644,3.5628,3.5628,3.5628,3.5628,3.5628,3.5628,3.5628,3.5628,3.5628,3.5628,3.5628,3.5628,3.5628,3.5628,3.5628,3.5628,3.5628,3.5628,3.5628,3.5628,3.5628,4.0492,4.0492,4.0492,4.0492,4.0492,4.0492,4.0492,4.0492,4.0492,4.0492,4.0492,4.0492,4.0492,4.0492,4.0492,4.0492,4.0492,4.0492,4.0492,4.0492,4.0492,4.0492,4.0492,4.0492,4.0492,4.0492,4.0492,4.0492,4.0492,4.0492,4.0492,4.0492,4.0492,4.0492,4.0492,4.0492,4.0385,4.019,3.9887,3.9611,3.9371,3.9031,3.8818,3.8796,3.8724,3.8699,3.8699,3.8699,3.8699,3.8699,3.8699,3.8699,3.8699,3.8699,3.8699,3.8699,3.8699,3.8699,3.8699,3.8699,3.8699,3.8699,3.8699,3.8699,3.8699,3.8699,3.8699,3.8699,3.8699,3.8699,3.8699,3.8699,3.8699,3.8699,3.8699,3.8699,3.8699,3.8692,3.8562,3.8226,3.815,3.7921,3.747,3.7079,3.6833,3.6583,3.6217,3.5854,3.5843,3.5816,3.5628,3.5628,3.5622,3.5611,3.5628,3.5628,3.5628,3.5628,3.5628,3.5628,3.5628,3.5628,3.5628,3.5628,3.5628,3.5628,3.5628,3.5628,3.5628,3.5628,3.5628,3.5628,3.5628,3.5628,3.5628,4.0492,4.0492,4.0492,4.0492,4.0492,4.0492,4.0492,4.0492,4.0492,4.0492,4.0492,4.0492,4.0492,4.0492,4.0492,4.0492,4.0492,4.0492,4.0492,4.0492,4.0492,4.0492,4.0492,4.0492,4.0492,4.0492,4.0492,4.0492,4.0492,4.0492,4.0492,4.0492,4.0492,4.0492,4.0492,4.0489,4.0368,4.0086,3.9775,3.9432,3.9112,3.8844,3.8719,3.8699,3.8699,3.8699,3.8699,3.8699,3.8699,3.8699,3.8699,3.8699,3.8699,3.8699,3.8699,3.8699,3.8699,3.8699,3.8699,3.8699,3.8699,3.8699,3.8699,3.8699,3.8699,3.8699,3.8699,3.8699,3.8699,3.8699,3.8699,3.8699,3.8699,3.8699,3.8699,3.8699,3.8699,3.8699,3.8449,3.8082,3.7868,3.7596,3.6972,3.6563,3.6312,3.6086,3.5854,3.5683,3.5644,3.5628,3.5628,3.5628,3.5628,3.5628,3.5628,3.5628,3.5628,3.5628,3.5628,3.5628,3.5628,3.5628,3.5628,3.5628,3.5628,3.5628,3.5628,3.5628,3.5628,3.5628,3.5628,3.5628,3.5628,3.5628,3.5628,4.0492,4.0492,4.0492,4.0492,4.0492,4.0492,4.0492,4.0492,4.0492,4.0492,4.0492,4.0492,4.0492,4.0492,4.0492,4.0492,4.0492,4.0492,4.0492,4.0492,4.0492,4.0492,4.0492,4.0492,4.0492,4.0492,4.0492,4.0492,4.0492,4.0492,4.0492,4.0492,4.0492,4.0492,4.0492,4.0492,4.0356,4.0086,3.9775,3.9432,3.9112,3.8851,3.8696,3.8699,3.8699,3.8699,3.8699,3.8699,3.8699,3.8699,3.8699,3.8699,3.8699,3.8699,3.8699,3.8699,3.8699,3.8699,3.8699,3.8699,3.8699,3.8699,3.8699,3.8699,3.8699,3.8699,3.8699,3.8699,3.8699,3.8699,3.8699,3.8699,3.8699,3.8699,3.8699,3.8699,3.8673,3.865,3.8425,3.7911,3.7799,3.7258,3.6694,3.6287,3.6156,3.5865,3.5667,3.5644,3.5628,3.5628,3.5628,3.5628,3.5628,3.5628,3.5628,3.5628,3.5628,3.5628,3.5628,3.5628,3.5628,3.5628,3.5628,3.5628,3.5628,3.5628,3.5628,3.5628,3.5628,3.5628,3.5628,3.5628,3.5628,3.5628,3.5628,4.0492,4.0492,4.0492,4.0492,4.0492,4.0492,4.0492,4.0492,4.0492,4.0492,4.0492,4.0492,4.0492,4.0492,4.0492,4.0492,4.0492,4.0492,4.0492,4.0492,4.0492,4.0492,4.0492,4.0492,4.0492,4.0492,4.0492,4.0492,4.0492,4.0492,4.0492,4.0492,4.0492,4.0492,4.0492,4.0489,4.0364,4.0081,3.977,3.942,3.9104,3.8844,3.8699,3.8699,3.8699,3.8699,3.8699,3.8699,3.8699,3.8699,3.8699,3.8699,3.8699,3.8699,3.8699,3.8699,3.8699,3.8699,3.8699,3.8699,3.8699,3.8699,3.8699,3.8699,3.8699,3.8699,3.8699,3.8699,3.8699,3.8699,3.8699,3.8699,3.8699,3.8699,3.8699,3.8699,3.8635,3.8342,3.7938,3.7478,3.702,3.6501,3.5909,3.586,3.5756,3.5628,3.5628,3.5628,3.5628,3.5628,3.5628,3.5628,3.5628,3.5628,3.5628,3.5628,3.5628,3.5628,3.5628,3.5628,3.5628,3.5628,3.5628,3.5628,3.5628,3.5628,3.5628,3.5628,3.5628,3.5628,3.5628,3.5628,3.5628,3.5628,3.5628,4.0492,4.0492,4.0492,4.0492,4.0492,4.0492,4.0492,4.0492,4.0492,4.0492,4.0492,4.0492,4.0492,4.0492,4.0492,4.0492,4.0492,4.0492,4.0492,4.0492,4.0492,4.0492,4.0492,4.0492,4.0492,4.0492,4.0492,4.0492,4.0492,4.0492,4.0492,4.0492,4.0492,4.0492,4.0492,4.0492,4.0248,3.9903,3.9703,3.9383,3.8959,3.8799,3.8699,3.8699,3.8699,3.8699,3.8699,3.8699,3.8699,3.8699,3.8699,3.8699,3.8699,3.8699,3.8699,3.8699,3.8699,3.8699,3.8699,3.8699,3.8699,3.8699,3.8699,3.8699,3.8699,3.8699,3.8699,3.8699,3.8699,3.8699,3.8699,3.8699,3.8699,3.8699,3.8699,3.8699,3.8619,3.8234,3.772,3.7239,3.6783,3.6249,3.5821,3.5656,3.5628,3.5628,3.5628,3.5628,3.5628,3.5628,3.5628,3.5628,3.5628,3.5628,3.5628,3.5628,3.5628,3.5628,3.5628,3.5628,3.5628,3.5628,3.5628,3.5645,3.5661,3.5628,3.5628,3.5628,3.5712,3.565,3.565,3.5633,3.565,3.5752,3.5701,4.0492,4.0492,4.0492,4.0492,4.0492,4.0492,4.0492,4.0492,4.0492,4.0492,4.0492,4.0492,4.0492,4.0492,4.0492,4.0492,4.0492,4.0492,4.0492,4.0492,4.0492,4.0492,4.0492,4.0492,4.0492,4.0492,4.0492,4.0492,4.0492,4.0492,4.0492,4.0492,4.0492,4.0492,4.0492,4.0477,4.0281,3.9835,3.9656,3.9358,3.8902,3.8765,3.8707,3.8699,3.8699,3.8699,3.8699,3.8699,3.8699,3.8699,3.8699,3.8699,3.8699,3.8699,3.8699,3.8699,3.8699,3.8699,3.8699,3.8699,3.8699,3.8699,3.8699,3.8699,3.8699,3.8699,3.8699,3.8699,3.8699,3.8699,3.8699,3.8699,3.8699,3.8666,3.8643,3.8619,3.858,3.8142,3.7433,3.7229,3.6583,3.5952,3.575,3.5628,3.5628,3.5628,3.5628,3.5628,3.5628,3.5628,3.5628,3.5628,3.5628,3.5628,3.5628,3.6096,3.6045,3.6067,3.5966,3.6084,3.6101,3.6338,3.6422,3.5797,3.5712,3.5814,3.6033,3.6304,3.627,3.5921,3.6073,3.6456,3.6321,3.5988,3.6005,4.0492,4.0492,4.0492,4.0492,4.0492,4.0492,4.0492,4.0492,4.0492,4.0492,4.0492,4.0492,4.0492,4.0492,4.0492,4.0492,4.0492,4.0492,4.0492,4.0492,4.0492,4.0492,4.0492,4.0492,4.0492,4.0492,4.0492,4.0492,4.0492,4.0492,4.0492,4.0492,4.0492,4.0492,4.0492,4.0481,4.0351,3.9963,3.9712,3.9383,3.9043,3.8811,3.8699,3.8699,3.8699,3.8699,3.8699,3.8699,3.8699,3.8699,3.8699,3.8699,3.8699,3.8699,3.8699,3.8699,3.8699,3.8699,3.8699,3.8699,3.8699,3.8699,3.8699,3.8699,3.8699,3.8699,3.8699,3.8699,3.8699,3.8699,3.8699,3.8699,3.8699,3.8611,3.8374,3.8251,3.831,3.7649,3.6962,3.6981,3.6354,3.5789,3.5678,3.5628,3.5628,3.5628,3.5628,3.5628,3.5628,3.5628,3.5628,3.5628,3.5628,3.5628,3.5628,3.6299,3.6682,3.6834,3.6874,3.7183,3.7285,3.7488,3.7319,3.6591,3.6366,3.6552,3.6789,3.6997,3.7099,3.698,3.72,3.742,3.7149,3.6896,3.7116,4.0492,4.0492,4.0492,4.0492,4.0492,4.0492,4.0492,4.0492,4.0492,4.0492,4.0492,4.0492,4.0492,4.0492,4.0492,4.0492,4.0492,4.0492,4.0492,4.0492,4.0492,4.0492,4.0492,4.0492,4.0492,4.0492,4.0492,4.0492,4.0492,4.0492,4.0492,4.0492,4.0492,4.0492,4.0492,4.0489,4.0347,4.0081,3.9775,3.9426,3.9105,3.8829,3.8712,3.8699,3.8699,3.8699,3.8699,3.8699,3.8699,3.8699,3.8699,3.8699,3.8699,3.8699,3.8699,3.8699,3.8699,3.8699,3.8699,3.8699,3.8699,3.8699,3.8699,3.8699,3.8699,3.8699,3.8699,3.8699,3.8699,3.8699,3.8699,3.8699,3.8699,3.8611,3.8226,3.8057,3.7938,3.7076,3.6813,3.6734,3.615,3.5734,3.5656,3.5628,3.5628,3.5628,3.5628,3.5628,3.5628,3.5729,3.578,3.5966,3.6084,3.6372,3.6422,3.6924,3.7359,3.7494,3.7748,3.8058,3.8096,3.8159,3.7826,3.7234,3.7229,3.7477,3.7415,3.7572,3.7792,3.7978,3.7893,3.786,3.786,3.7877,3.8063,4.0492,4.0492,4.0492,4.0492,4.0492,4.0492,4.0492,4.0492,4.0492,4.0492,4.0492,4.0492,4.0492,4.0492,4.0492,4.0492,4.0492,4.0492,4.0492,4.0492,4.0492,4.0492,4.0492,4.0492,4.0492,4.0492,4.0492,4.0492,4.0492,4.0492,4.0492,4.0492,4.0492,4.0492,4.0492,4.0492,4.033,4.0086,3.9775,3.942,3.9054,3.8815,3.8699,3.8699,3.8699,3.8699,3.8699,3.8699,3.8699,3.8699,3.8699,3.8699,3.8699,3.8699,3.8699,3.8699,3.8699,3.8699,3.8699,3.8699,3.8699,3.8699,3.8699,3.8699,3.8699,3.8699,3.8699,3.8699,3.8699,3.8699,3.8699,3.8699,3.8627,3.839,3.8048,3.7702,3.7488,3.6972,3.6426,3.6203,3.5827,3.5717,3.5673,3.5628,3.5628,3.5628,3.5628,3.5628,3.5661,3.6,3.6152,3.6422,3.671,3.7195,3.7466,3.777,3.8058,3.8159,3.8493,3.8836,3.8717,3.8599,3.8311,3.8227,3.8379,3.856,3.8362,3.8278,3.8667,3.8785,3.8481,3.8481,3.8734,3.8785,3.8836,4.0492,4.0492,4.0492,4.0492,4.0492,4.0492,4.0492,4.0492,4.0492,4.0492,4.0492,4.0492,4.0492,4.0492,4.0492,4.0492,4.0492,4.0492,4.0492,4.0492,4.0492,4.0492,4.0492,4.0492,4.0492,4.0492,4.0492,4.0492,4.0492,4.0492,4.0492,4.0492,4.0492,4.0492,4.0492,4.0492,4.036,4.011,3.9781,3.9333,3.887,3.8719,3.8707,3.8699,3.8699,3.8699,3.8699,3.8699,3.8699,3.8699,3.8699,3.8699,3.8699,3.8699,3.8699,3.8699,3.8699,3.8699,3.8699,3.8699,3.8699,3.8699,3.8699,3.8699,3.8699,3.8699,3.8699,3.8699,3.8699,3.8699,3.8699,3.8676,3.8438,3.8032,3.7605,3.735,3.7116,3.6606,3.6097,3.6169,3.5947,3.5836,3.5763,3.5678,3.5628,3.5628,3.5628,3.5661,3.5881,3.6304,3.6907,3.728,3.7488,3.7922,3.8391,3.8696,3.8768,3.8853,3.9136,3.9491,3.9372,3.9288,3.9576,3.9542,3.9592,3.9406,3.9085,3.9153,3.9622,3.9605,3.9288,3.9491,3.9863,3.9795,3.9508,4.0492,4.0492,4.0492,4.0492,4.0492,4.0492,4.0492,4.0492,4.0492,4.0492,4.0492,4.0492,4.0492,4.0492,4.0492,4.0492,4.0492,4.0492,4.0492,4.0492,4.0492,4.0492,4.0492,4.0492,4.0492,4.0492,4.0492,4.0492,4.0492,4.0492,4.0492,4.0492,4.0492,4.0492,4.0492,4.0492,4.0426,4.0217,3.9861,3.9295,3.8862,3.8699,3.8699,3.8699,3.8699,3.8699,3.8699,3.8699,3.8699,3.8699,3.8699,3.8699,3.8699,3.8699,3.8699,3.8699,3.8699,3.8699,3.8699,3.8699,3.8699,3.8699,3.8699,3.8699,3.8699,3.8699,3.8699,3.8699,3.8699,3.8699,3.8619,3.8407,3.8175,3.7781,3.7239,3.6904,3.6633,3.6101,3.5739,3.592,3.6151,3.6175,3.6135,3.6017,3.5983,3.5932,3.6,3.6101,3.6473,3.7014,3.7669,3.8374,3.8514,3.87,3.9153,3.9525,3.9508,3.9559,3.9576,3.9863,3.996,4.0028,4.0113,4.0113,3.9914,3.9745,3.9626,3.9711,3.991,4.0011,4.0096,4.0113,4.0113,4.0079,3.9846,4.0492,4.0492,4.0492,4.0492,4.0492,4.0492,4.0492,4.0492,4.0492,4.0492,4.0492,4.0492,4.0492,4.0492,4.0492,4.0492,4.0492,4.0492,4.0492,4.0492,4.0492,4.0492,4.0492,4.0492,4.0492,4.0492,4.0492,4.0492,4.0492,4.0492,4.0492,4.0492,4.0492,4.0492,4.0492,4.0481,4.0414,4.0129,3.9794,3.9288,3.8803,3.8707,3.8699,3.8699,3.8699,3.8699,3.8699,3.8699,3.8699,3.8699,3.8699,3.8699,3.8699,3.8699,3.8699,3.8699,3.8699,3.8699,3.8699,3.8699,3.8699,3.8699,3.8699,3.8699,3.8699,3.8699,3.8699,3.8699,3.8699,3.8699,3.8585,3.8232,3.7894,3.7506,3.6962,3.6563,3.6175,3.5821,3.5842,3.6254,3.6554,3.6858,3.6755,3.6507,3.6372,3.627,3.6338,3.6541,3.711,3.7787,3.8396,3.9102,3.9254,3.9356,3.9609,3.9977,4.0079,4.0113,4.0113,4.0113,4.0113,4.0113,4.0113,4.0113,4.0113,4.0028,3.9876,3.9994,4.0113,4.0113,4.0113,4.0113,4.0113,4.0113,4.0113,4.0492,4.0492,4.0492,4.0492,4.0492,4.0492,4.0492,4.0492,4.0492,4.0492,4.0492,4.0492,4.0492,4.0492,4.0492,4.0492,4.0492,4.0492,4.0492,4.0492,4.0492,4.0492,4.0492,4.0492,4.0492,4.0492,4.0492,4.0492,4.0492,4.0492,4.0492,4.0492,4.0492,4.0492,4.0481,4.0453,4.0171,3.9889,3.9599,3.9281,3.8862,3.8699,3.8699,3.8699,3.8699,3.8699,3.8699,3.8699,3.8699,3.8699,3.8699,3.8699,3.8699,3.8699,3.8699,3.8699,3.8699,3.8699,3.8699,3.8699,3.8699,3.8699,3.8699,3.8699,3.8699,3.8699,3.8699,3.8699,3.8699,3.8699,3.8546,3.8208,3.7694,3.7285,3.6773,3.6239,3.5941,3.5805,3.5898,3.6513,3.6953,3.7308,3.7816,3.7669,3.7251,3.7133,3.7398,3.7618,3.8091,3.87,3.9169,3.966,3.9846,3.996,3.996,4.0113,4.0113,4.0113,4.0113,4.0113,4.0113,4.0113,4.0113,4.0113,4.0113,4.0113,4.0113,4.0113,4.0113,4.0113,4.0113,4.0113,4.0113,4.0113,4.0113,4.0492,4.0492,4.0492,4.0492,4.0492,4.0492,4.0492,4.0492,4.0492,4.0492,4.0492,4.0492,4.0492,4.0492,4.0492,4.0492,4.0492,4.0492,4.0492,4.0492,4.0492,4.0492,4.0492,4.0492,4.0492,4.0492,4.0492,4.0492,4.0492,4.0492,4.0492,4.0492,4.0492,4.0492,4.0473,4.0347,3.9984,3.9654,3.9371,3.9068,3.8829,3.8699,3.8699,3.8699,3.8699,3.8699,3.8699,3.8699,3.8699,3.8699,3.8699,3.8699,3.8699,3.8699,3.8699,3.8699,3.8699,3.8699,3.8699,3.8699,3.8699,3.8699,3.8699,3.8699,3.8699,3.8699,3.8699,3.8699,3.8699,3.8699,3.8627,3.7981,3.7323,3.702,3.6563,3.5985,3.5745,3.5633,3.5966,3.6581,3.7291,3.7855,3.843,3.8966,3.8464,3.8058,3.8379,3.8684,3.9051,3.9339,3.9694,3.9897,4.0045,4.0113,4.0113,4.0113,4.0113,4.0113,4.0113,4.0113,4.0113,4.0113,4.0113,4.0113,4.0113,4.0113,4.0113,4.0113,4.0113,4.0113,4.0113,4.0113,4.0113,4.0113,4.0113,4.0492,4.0492,4.0492,4.0492,4.0492,4.0492,4.0492,4.0492,4.0492,4.0492,4.0492,4.0492,4.0492,4.0492,4.0492,4.0492,4.0492,4.0492,4.0492,4.0492,4.0492,4.0492,4.0492,4.0492,4.0492,4.0492,4.0492,4.0492,4.0492,4.0492,4.0492,4.0492,4.0492,4.0492,4.0426,4.0227,3.9877,3.9474,3.9244,3.895,3.8742,3.8699,3.8699,3.8699,3.8699,3.8699,3.8699,3.8699,3.8699,3.8699,3.8699,3.8699,3.8699,3.8699,3.8699,3.8699,3.8699,3.8699,3.8699,3.8699,3.8699,3.8699,3.8699,3.8699,3.8699,3.8699,3.8699,3.8699,3.8699,3.8692,3.8627,3.7878,3.7313,3.7047,3.6239,3.5678,3.5667,3.5645,3.6129,3.6665,3.7381,3.8091,3.8768,3.9322,3.9356,3.9,3.9169,3.9356,3.9474,3.9711,3.9914,4.0045,4.0079,4.0113,4.0113,4.0113,4.0113,4.0113,4.0113,4.0113,4.0113,4.0113,4.0113,4.0113,4.0113,4.0113,4.0113,4.0113,4.0113,4.0113,4.0113,4.0113,4.0113,4.0113,4.0113,4.0492,4.0492,4.0492,4.0492,4.0492,4.0492,4.0492,4.0492,4.0492,4.0492,4.0492,4.0492,4.0492,4.0492,4.0492,4.0492,4.0492,4.0492,4.0492,4.0492,4.0492,4.0492,4.0492,4.0492,4.0492,4.0492,4.0492,4.0492,4.0492,4.0492,4.0492,4.0492,4.0492,4.0473,4.0469,4.0223,3.9765,3.9231,3.9125,3.8909,3.8754,3.8699,3.8699,3.8699,3.8699,3.8699,3.8699,3.8699,3.8699,3.8699,3.8699,3.8699,3.8699,3.8699,3.8699,3.8699,3.8699,3.8699,3.8699,3.8699,3.8699,3.8699,3.8699,3.8699,3.8699,3.8699,3.8699,3.8699,3.8699,3.8676,3.8352,3.7843,3.7405,3.6843,3.6032,3.5628,3.5628,3.5633,3.6067,3.6699,3.7449,3.8193,3.892,3.9542,3.988,3.9943,4.0028,4.0045,3.9943,3.9977,4.0096,4.0113,4.0113,4.0113,4.0113,4.0113,4.0113,4.0113,4.0113,4.0113,4.0113,4.0113,4.0113,4.0113,4.0113,4.0113,4.0113,4.0113,4.0113,4.0113,4.0113,4.0113,4.0113,4.0113,4.0113,4.0492,4.0492,4.0492,4.0492,4.0492,4.0492,4.0492,4.0492,4.0492,4.0492,4.0492,4.0492,4.0492,4.0492,4.0492,4.0492,4.0492,4.0492,4.0492,4.0492,4.0492,4.0492,4.0492,4.0492,4.0492,4.0492,4.0492,4.0492,4.0492,4.0492,4.0492,4.0492,4.0485,4.0389,4.019,3.9927,3.9523,3.9139,3.8947,3.8766,3.8696,3.8699,3.8699,3.8699,3.8699,3.8699,3.8699,3.8699,3.8699,3.8699,3.8699,3.8699,3.8699,3.8699,3.8699,3.8699,3.8699,3.8699,3.8699,3.8699,3.8699,3.8699,3.8699,3.8699,3.8699,3.8699,3.8699,3.8699,3.8699,3.858,3.81,3.7614,3.7125,3.6603,3.5989,3.5711,3.5616,3.5633,3.5915,3.6688,3.7449,3.8531,3.9406,3.9677,3.9994,4.0113,4.0113,4.0113,4.0028,4.0045,4.0113,4.0113,4.0113,4.0113,4.0113,4.0113,4.0113,4.0113,4.0113,4.0113,4.0113,4.0113,4.0113,4.0113,4.0113,4.0113,4.0113,4.0113,4.0113,4.0113,4.0113,4.0113,4.0113,4.0113,4.0113,4.0492,4.0492,4.0492,4.0492,4.0492,4.0492,4.0492,4.0492,4.0492,4.0492,4.0492,4.0492,4.0492,4.0492,4.0492,4.0492,4.0492,4.0492,4.0492,4.0492,4.0492,4.0492,4.0492,4.0492,4.0492,4.0492,4.0492,4.0492,4.0492,4.0492,4.0492,4.0492,4.0485,4.0248,4.0003,3.9673,3.9383,3.9034,3.8781,3.8719,3.8699,3.8699,3.8699,3.8699,3.8699,3.8699,3.8699,3.8699,3.8699,3.8699,3.8699,3.8699,3.8699,3.8699,3.8699,3.8699,3.8699,3.8699,3.8699,3.8699,3.8699,3.8699,3.8699,3.8699,3.8699,3.8699,3.8699,3.8699,3.8692,3.8374,3.7955,3.7442,3.6933,3.6416,3.5989,3.57,3.5616,3.5633,3.5735,3.6535,3.7533,3.8667,3.9728,3.988,4.0096,4.0113,4.0113,4.0113,4.0113,4.0113,4.0113,4.0113,4.0113,4.0113,4.0113,4.0113,4.0113,4.0113,4.0113,4.0113,4.0113,4.0113,4.0113,4.0113,4.0113,4.0113,4.0113,4.0113,4.0113,4.0113,4.0113,4.0113,4.0113,4.0113,4.0113,4.0492,4.0492,4.0492,4.0492,4.0492,4.0492,4.0492,4.0492,4.0492,4.0492,4.0492,4.0492,4.0492,4.0492,4.0492,4.0492,4.0492,4.0492,4.0492,4.0492,4.0492,4.0492,4.0492,4.0492,4.0492,4.0492,4.0492,4.0492,4.0492,4.0492,4.0492,4.0492,4.0492,4.0221,3.9903,3.9616,3.9295,3.8906,3.875,3.8699,3.8699,3.8699,3.8699,3.8699,3.8699,3.8699,3.8699,3.8699,3.8699,3.8699,3.8699,3.8699,3.8699,3.8699,3.8699,3.8699,3.8699,3.8699,3.8699,3.8699,3.8699,3.8699,3.8699,3.8699,3.8699,3.8699,3.8699,3.8635,3.857,3.8242,3.7868,3.736,3.6853,3.6364,3.5887,3.5694,3.5622,3.5645,3.5712,3.6372,3.7437,3.8565,3.9711,4.0096,4.0113,4.0113,4.0113,4.0113,4.0113,4.0113,4.0113,4.0113,4.0113,4.0113,4.0113,4.0113,4.0113,4.0113,4.0113,4.0113,4.0113,4.0113,4.0113,4.0113,4.0113,4.0113,4.0113,4.0113,4.0113,4.0113,4.0113,4.0113,4.0113,4.0113,4.0113,4.0492,4.0492,4.0492,4.0492,4.0492,4.0492,4.0492,4.0492,4.0492,4.0492,4.0492,4.0492,4.0492,4.0492,4.0492,4.0492,4.0492,4.0492,4.0492,4.0492,4.0492,4.0492,4.0492,4.0492,4.0492,4.0492,4.0492,4.0492,4.0492,4.0492,4.0492,4.0492,4.0469,4.0212,3.9949,3.9701,3.9216,3.8844,3.8696,3.8699,3.8699,3.8699,3.8699,3.8699,3.8699,3.8699,3.8699,3.8699,3.8699,3.8699,3.8699,3.8699,3.8699,3.8699,3.8699,3.8699,3.8699,3.8699,3.8699,3.8699,3.8699,3.8699,3.8699,3.8699,3.8699,3.8699,3.8699,3.8635,3.8374,3.8015,3.7569,3.7068,3.6563,3.6065,3.5717,3.5678,3.5628,3.5645,3.5763,3.6705,3.7753,3.8734,3.9829,4.0113,4.0113,4.0113,4.0113,4.0113,4.0113,4.0113,4.0113,4.0113,4.0113,4.0113,4.0113,4.0113,4.0113,4.0113,4.0113,4.0113,4.0113,4.0113,4.0113,4.0113,4.0113,4.0113,4.0113,4.0113,4.0113,4.0113,4.0113,4.0113,4.0113,4.0113,4.01,4.0492,4.0492,4.0492,4.0492,4.0492,4.0492,4.0492,4.0492,4.0492,4.0492,4.0492,4.0492,4.0492,4.0492,4.0492,4.0492,4.0492,4.0492,4.0492,4.0492,4.0492,4.0492,4.0492,4.0492,4.0492,4.0492,4.0492,4.0492,4.0492,4.0492,4.0492,4.0485,4.0418,4.0171,3.9867,3.9517,3.9149,3.887,3.8699,3.8699,3.8699,3.8699,3.8699,3.8699,3.8699,3.8699,3.8699,3.8699,3.8699,3.8699,3.8699,3.8699,3.8699,3.8699,3.8699,3.8699,3.8699,3.8699,3.8699,3.8699,3.8699,3.8699,3.8699,3.8699,3.8699,3.8699,3.8699,3.8643,3.8175,3.772,3.7229,3.6734,3.6214,3.5689,3.5644,3.5611,3.5628,3.5628,3.6299,3.7207,3.8154,3.9119,3.9728,3.9948,4.0113,4.0113,4.0113,4.0113,4.0113,4.0113,4.0113,4.0113,4.0113,4.0113,4.0113,4.0113,4.0113,4.0113,4.0113,4.0113,4.0113,4.0113,4.0113,4.0113,4.0113,4.0113,4.0113,4.0113,4.0113,4.0083,4.0058,4.0033,4.0045,4.0113,4.01,4.0492,4.0492,4.0492,4.0492,4.0492,4.0492,4.0492,4.0492,4.0492,4.0492,4.0492,4.0492,4.0492,4.0492,4.0492,4.0492,4.0492,4.0492,4.0492,4.0492,4.0492,4.0492,4.0492,4.0492,4.0492,4.0492,4.0492,4.0492,4.0492,4.0489,4.0481,4.0446,4.0245,4.0002,3.9679,3.9346,3.9061,3.8884,3.8732,3.8699,3.8699,3.8699,3.8699,3.8699,3.8699,3.8699,3.8699,3.8699,3.8699,3.8699,3.8699,3.8699,3.8699,3.8699,3.8699,3.8699,3.8699,3.8699,3.8699,3.8699,3.8699,3.8699,3.8699,3.8699,3.8699,3.8699,3.8699,3.853,3.8117,3.764,3.7163,3.6522,3.5952,3.5689,3.5622,3.5628,3.5628,3.5949,3.6828,3.7731,3.8628,3.9508,3.9863,4.0113,4.0113,4.0113,4.0113,4.0113,4.0113,4.0113,4.0113,4.0113,4.0113,4.0113,4.0113,4.0113,4.0113,4.0113,4.0113,4.0113,4.0113,4.0113,4.0113,4.0113,4.0113,4.0113,4.0113,4.0083,4.007,4.0045,4.002,3.9952,3.9927,3.9812,3.9744,4.0492,4.0492,4.0492,4.0492,4.0492,4.0492,4.0492,4.0492,4.0492,4.0492,4.0492,4.0492,4.0492,4.0492,4.0492,4.0492,4.0492,4.0492,4.0492,4.0492,4.0492,4.0492,4.0492,4.0492,4.0492,4.0492,4.0492,4.0492,4.0489,4.0473,4.0396,4.0213,4.0037,3.9819,3.9552,3.9231,3.9006,3.8898,3.8784,3.8715,3.8699,3.8699,3.8699,3.8699,3.8699,3.8699,3.8699,3.8699,3.8699,3.8699,3.8699,3.8699,3.8699,3.8699,3.8699,3.8699,3.8699,3.8699,3.8699,3.8699,3.8699,3.8699,3.8699,3.8699,3.8699,3.8699,3.8611,3.8401,3.8041,3.756,3.7049,3.6367,3.5805,3.57,3.5628,3.5628,3.5645,3.6473,3.7335,3.8176,3.9068,3.9609,3.9994,4.0113,4.0113,4.0113,4.0113,4.0113,4.0113,4.0113,4.0113,4.0113,4.0113,4.0113,4.0113,4.0113,4.0113,4.0113,4.0113,4.0113,4.0113,4.0113,4.0113,4.0113,4.0113,4.0113,4.0083,4.0058,4.0045,3.9901,3.9506,3.9249,3.9035,3.8887,3.8941,4.0492,4.0492,4.0492,4.0492,4.0492,4.0492,4.0492,4.0492,4.0492,4.0492,4.0492,4.0492,4.0492,4.0492,4.0492,4.0492,4.0492,4.0492,4.0492,4.0492,4.0492,4.0492,4.0492,4.0492,4.0492,4.0492,4.0492,4.0492,4.0469,4.0347,4.0204,4.0032,3.9886,3.9582,3.9327,3.9097,3.8952,3.8902,3.8762,3.8704,3.8699,3.8699,3.8699,3.8699,3.8699,3.8699,3.8699,3.8699,3.8699,3.8699,3.8699,3.8699,3.8699,3.8699,3.8699,3.8699,3.8699,3.8699,3.8699,3.8699,3.8699,3.8699,3.8699,3.8699,3.8699,3.8699,3.8699,3.8449,3.7773,3.7266,3.6943,3.6357,3.5876,3.5633,3.5628,3.5628,3.605,3.6761,3.7403,3.7944,3.8903,3.9859,4.0113,4.0113,4.0113,4.0113,4.0113,4.0113,4.0113,4.0113,4.0113,4.0113,4.0113,4.0113,4.0113,4.0113,4.0113,4.0113,4.0113,4.0113,4.0113,4.0113,4.0113,4.0113,4.0113,4.0113,4.0083,3.9872,3.9623,3.9385,3.8897,3.8414,3.8203,3.8007,3.7948,4.0492,4.0492,4.0492,4.0492,4.0492,4.0492,4.0492,4.0492,4.0492,4.0492,4.0492,4.0492,4.0492,4.0492,4.0492,4.0492,4.0492,4.0492,4.0492,4.0492,4.0492,4.0492,4.0492,4.0492,4.0492,4.0492,4.0492,4.0453,4.0389,4.0241,4.0072,3.9891,3.9517,3.9104,3.8992,3.8855,3.875,3.8754,3.8715,3.8707,3.8699,3.8699,3.8699,3.8699,3.8699,3.8699,3.8699,3.8699,3.8699,3.8699,3.8699,3.8699,3.8699,3.8699,3.8699,3.8699,3.8699,3.8699,3.8699,3.8699,3.8699,3.8699,3.8699,3.8699,3.8699,3.8699,3.8699,3.8368,3.7685,3.7162,3.6835,3.6347,3.5887,3.5628,3.5628,3.5746,3.6389,3.706,3.7521,3.7978,3.892,3.9965,4.0113,4.0113,4.0113,4.0113,4.0113,4.0113,4.0113,4.0113,4.0113,4.0113,4.0113,4.0113,4.0113,4.0113,4.0113,4.0113,4.0113,4.0113,4.0113,4.0113,4.0113,4.0113,4.0113,4.0007,3.9705,3.9424,3.9139,3.8799,3.8159,3.7614,3.7484,3.7279,3.698,4.0492,4.0492,4.0492,4.0492,4.0492,4.0492,4.0492,4.0492,4.0492,4.0492,4.0492,4.0492,4.0492,4.0492,4.0492,4.0492,4.0492,4.0492,4.0492,4.0492,4.0492,4.0492,4.0492,4.0492,4.0492,4.0492,4.0473,4.0372,4.0258,4.0129,3.9822,3.9364,3.927,3.8985,3.8781,3.8699,3.8699,3.8699,3.8699,3.8699,3.8699,3.8699,3.8699,3.8699,3.8699,3.8699,3.8699,3.8699,3.8699,3.8699,3.8699,3.8699,3.8699,3.8699,3.8699,3.8699,3.8699,3.8699,3.8699,3.8699,3.8699,3.8699,3.8699,3.8699,3.8699,3.8699,3.8643,3.853,3.7922,3.7331,3.6874,3.6133,3.5605,3.5611,3.5628,3.6045,3.6569,3.7313,3.7956,3.8582,3.936,3.9914,4.0113,4.0113,4.0113,4.0113,4.0113,4.0113,4.0113,4.0113,4.0113,4.0113,4.0113,4.0113,4.0113,4.0113,4.0113,4.0113,4.0113,4.0113,4.0113,4.0113,4.0083,3.9889,3.9821,3.974,3.9407,3.8759,3.8469,3.8032,3.7321,3.6828,3.6722,3.6585,3.6337]}]]